| time (UTC) | temp C | wind direction | speed KPH | gust KPH | rain 1hr cm | rain 24hr cm | rain mn cm | humidity % | barometer mb |
| 20260906051515 | 21 | 5 | 1.6 | 11.3 | 0.00 | 0.00 | 0.00 | 49 | 1022.8 |
| 20260906051503 | 21 | 295 | 3.2 | 11.3 | 0.00 | 0.00 | 0.00 | 50 | 1022.4 |
| 20260906051403 | 21 | 297 | 3.2 | 11.3 | 0.00 | 0.00 | 0.00 | 50 | 1022.4 |
| 20260906051303 | 21 | 298 | 3.2 | 14.5 | 0.00 | 0.00 | 0.00 | 50 | 1022.4 |
| 20260906051103 | 21 | 308 | 3.2 | 14.5 | 0.00 | 0.00 | 0.00 | 50 | 1022.4 |
| 20260906051008 | 21 | 292 | 1.6 | 12.9 | 0.00 | 0.00 | 0.00 | 49 | 1022.7 |
| 20260906051003 | 21 | 307 | 3.2 | 14.5 | 0.00 | 0.00 | 0.00 | 50 | 1022.4 |
| 20260906050903 | 21 | 306 | 3.2 | 14.5 | 0.00 | 0.00 | 0.00 | 50 | 1022.5 |
| 20260906050703 | 21 | 305 | 3.2 | 14.5 | 0.00 | 0.00 | 0.00 | 50 | 1022.4 |
| 20260906050603 | 21 | 310 | 3.2 | 14.5 | 0.00 | 0.00 | 0.00 | 50 | 1022.4 |
| 20260906050511 | 21 | 299 | 1.6 | 12.9 | 0.00 | 0.00 | 0.00 | 49 | 1022.7 |
| 20260906050503 | 21 | 309 | 3.2 | 14.5 | 0.00 | 0.00 | 0.00 | 50 | 1022.4 |
| 20260906050417 | 21 | 311 | 3.2 | 14.5 | 0.00 | 0.00 | 0.00 | 50 | 1022.4 |
| 20260906050303 | 21 | 307 | 3.2 | 14.5 | 0.00 | 0.00 | 0.00 | 50 | 1022.4 |
| 20260906050018 | 21 | 296 | 3.2 | 12.9 | 0.00 | 0.00 | 0.00 | 50 | 1022.6 |
| 20260906050003 | 21 | 286 | 3.2 | 14.5 | 0.00 | 0.00 | 0.00 | 50 | 1022.3 |
| 20260906045903 | 21 | 285 | 3.2 | 14.5 | 0.00 | 0.00 | 0.00 | 51 | 1022.3 |
| 20260906045803 | 21 | 289 | 3.2 | 14.5 | 0.00 | 0.00 | 0.00 | 51 | 1022.3 |
| 20260906045717 | 21 | 292 | 3.2 | 14.5 | 0.00 | 0.00 | 0.00 | 51 | 1022.3 |
| 20260906045603 | 21 | 299 | 3.2 | 14.5 | 0.00 | 0.00 | 0.00 | 51 | 1022.3 |
| 20260906045517 | 21 | 142 | 1.6 | 14.5 | 0.00 | 0.00 | 0.00 | 51 | 1022.6 |
| 20260906045305 | 21 | 295 | 3.2 | 14.5 | 0.00 | 0.00 | 0.00 | 51 | 1022.3 |
| 20260906045203 | 21 | 292 | 3.2 | 14.5 | 0.00 | 0.00 | 0.00 | 51 | 1022.3 |
| 20260906045103 | 21 | 286 | 3.2 | 14.5 | 0.00 | 0.00 | 0.00 | 51 | 1022.3 |
| 20260906045011 | 21 | 290 | 4.8 | 14.5 | 0.00 | 0.00 | 0.00 | 51 | 1022.6 |
| 20260906045003 | 21 | 282 | 3.2 | 12.9 | 0.00 | 0.00 | 0.00 | 52 | 1022.3 |
| 20260906044903 | 21 | 282 | 3.2 | 12.9 | 0.00 | 0.00 | 0.00 | 52 | 1022.3 |
| 20260906044703 | 21 | 270 | 3.2 | 12.9 | 0.00 | 0.00 | 0.00 | 52 | 1022.2 |
| 20260906044603 | 21 | 268 | 3.2 | 12.9 | 0.00 | 0.00 | 0.00 | 52 | 1022.2 |
| 20260906044524 | 21 | 284 | 3.2 | 12.9 | 0.00 | 0.00 | 0.00 | 51 | 1022.5 |
| 20260906044517 | 21 | 267 | 3.2 | 12.9 | 0.00 | 0.00 | 0.00 | 52 | 1022.2 |
| 20260906044403 | 21 | 269 | 3.2 | 12.9 | 0.00 | 0.00 | 0.00 | 52 | 1022.1 |
| 20260906044203 | 21 | 276 | 3.2 | 12.9 | 0.00 | 0.00 | 0.00 | 52 | 1022.1 |
| 20260906044103 | 21 | 279 | 3.2 | 12.9 | 0.00 | 0.00 | 0.00 | 52 | 1022.1 |
| 20260906044014 | 20 | 241 | 6.4 | 12.9 | 0.00 | 0.00 | 0.00 | 52 | 1022.4 |
| 20260906043903 | 21 | 293 | 3.2 | 12.9 | 0.00 | 0.00 | 0.00 | 52 | 1022.1 |
| 20260906043803 | 21 | 299 | 3.2 | 12.9 | 0.00 | 0.00 | 0.00 | 52 | 1022.1 |
| 20260906043703 | 21 | 318 | 3.2 | 12.9 | 0.00 | 0.00 | 0.00 | 52 | 1022.0 |
| 20260906043603 | 21 | 324 | 3.2 | 12.9 | 0.00 | 0.00 | 0.00 | 52 | 1022.0 |
| 20260906043514 | 20 | 91 | 1.6 | 11.3 | 0.00 | 0.00 | 0.00 | 52 | 1022.3 |
| 20260906043503 | 21 | 316 | 3.2 | 12.9 | 0.00 | 0.00 | 0.00 | 52 | 1022.0 |
| 20260906043303 | 21 | 310 | 3.2 | 12.9 | 0.00 | 0.00 | 0.00 | 52 | 1022.0 |
| 20260906043203 | 21 | 302 | 3.2 | 12.9 | 0.00 | 0.00 | 0.00 | 52 | 1022.0 |
| 20260906043103 | 21 | 300 | 3.2 | 12.9 | 0.00 | 0.00 | 0.00 | 52 | 1022.0 |
| 20260906043011 | 20 | 315 | 3.2 | 11.3 | 0.00 | 0.00 | 0.00 | 52 | 1022.2 |
| 20260906043003 | 21 | 298 | 3.2 | 6.4 | 0.00 | 0.00 | 0.00 | 53 | 1022.0 |
| 20260906042803 | 21 | 292 | 3.2 | 6.4 | 0.00 | 0.00 | 0.00 | 53 | 1022.0 |
| 20260906042703 | 21 | 283 | 3.2 | 6.4 | 0.00 | 0.00 | 0.00 | 53 | 1021.9 |
| 20260906042603 | 21 | 283 | 3.2 | 12.9 | 0.00 | 0.00 | 0.00 | 53 | 1021.9 |
| 20260906042503 | 21 | 274 | 3.2 | 12.9 | 0.00 | 0.00 | 0.00 | 53 | 1021.9 |
| 20260906042403 | 21 | 270 | 3.2 | 12.9 | 0.00 | 0.00 | 0.00 | 53 | 1021.9 |
| 20260906042306 | 21 | 269 | 3.2 | 12.9 | 0.00 | 0.00 | 0.00 | 53 | 1021.9 |
| 20260906042203 | 21 | 284 | 3.2 | 12.9 | 0.00 | 0.00 | 0.00 | 53 | 1021.8 |
| 20260906042103 | 21 | 276 | 3.2 | 12.9 | 0.00 | 0.00 | 0.00 | 53 | 1021.8 |
| 20260906042003 | 20 | 298 | 3.2 | 11.3 | 0.00 | 0.00 | 0.00 | 52 | 1022.1 |
| 20260906041903 | 21 | 284 | 3.2 | 12.9 | 0.00 | 0.00 | 0.00 | 53 | 1021.8 |
| 20260906041803 | 21 | 296 | 3.2 | 12.9 | 0.00 | 0.00 | 0.00 | 53 | 1021.9 |
| 20260906041703 | 21 | 302 | 3.2 | 12.9 | 0.00 | 0.00 | 0.00 | 53 | 1021.8 |
| 20260906041518 | 21 | 302 | 3.2 | 11.3 | 0.00 | 0.00 | 0.00 | 53 | 1021.8 |
| 20260906041510 | 20 | 245 | 3.2 | 11.3 | 0.00 | 0.00 | 0.00 | 52 | 1022.1 |
| 20260906041403 | 21 | 307 | 3.2 | 11.3 | 0.00 | 0.00 | 0.00 | 53 | 1021.8 |
| 20260906041203 | 21 | 309 | 3.2 | 11.3 | 0.00 | 0.00 | 0.00 | 53 | 1021.8 |
| 20260906041103 | 21 | 311 | 3.2 | 11.3 | 0.00 | 0.00 | 0.00 | 53 | 1021.7 |
| 20260906041007 | 20 | 283 | 3.2 | 9.7 | 0.00 | 0.00 | 0.00 | 52 | 1022.0 |
| 20260906041003 | 21 | 312 | 3.2 | 11.3 | 0.00 | 0.00 | 0.00 | 52 | 1021.8 |
| 20260906040903 | 21 | 305 | 3.2 | 11.3 | 0.00 | 0.00 | 0.00 | 52 | 1021.8 |
| 20260906040803 | 21 | 300 | 3.2 | 11.3 | 0.00 | 0.00 | 0.00 | 52 | 1021.7 |
| 20260906040703 | 21 | 299 | 3.2 | 11.3 | 0.00 | 0.00 | 0.00 | 52 | 1021.7 |
| 20260906040603 | 21 | 301 | 3.2 | 11.3 | 0.00 | 0.00 | 0.00 | 53 | 1021.8 |
| 20260906040506 | 20 | 201 | 4.8 | 9.7 | 0.00 | 0.00 | 0.00 | 52 | 1022.1 |
| 20260906040503 | 21 | 307 | 3.2 | 11.3 | 0.00 | 0.00 | 0.00 | 53 | 1021.7 |
| 20260906040403 | 21 | 302 | 3.2 | 9.7 | 0.00 | 0.00 | 0.00 | 52 | 1021.7 |
| 20260906040303 | 21 | 303 | 3.2 | 9.7 | 0.00 | 0.00 | 0.00 | 52 | 1021.8 |
| 20260906040203 | 21 | 290 | 3.2 | 8.0 | 0.00 | 0.00 | 0.00 | 52 | 1021.7 |
| 20260906040015 | 20 | 275 | 3.2 | 11.3 | 0.00 | 0.00 | 0.00 | 52 | 1022.0 |
| 20260906040003 | 21 | 296 | 3.2 | 8.0 | 0.00 | 0.00 | 0.00 | 52 | 1021.7 |
| 20260906035903 | 21 | 295 | 3.2 | 8.0 | 0.00 | 0.00 | 0.00 | 52 | 1021.7 |
| 20260906035803 | 21 | 294 | 3.2 | 8.0 | 0.00 | 0.00 | 0.00 | 52 | 1021.6 |
| 20260906035703 | 21 | 305 | 3.2 | 8.0 | 0.00 | 0.00 | 0.00 | 52 | 1021.6 |
| 20260906035603 | 21 | 306 | 3.2 | 8.0 | 0.00 | 0.00 | 0.00 | 52 | 1021.6 |
| 20260906035508 | 21 | 294 | 1.6 | 11.3 | 0.00 | 0.00 | 0.00 | 52 | 1021.9 |
| 20260906035403 | 21 | 306 | 3.2 | 16.1 | 0.00 | 0.00 | 0.00 | 52 | 1021.6 |
| 20260906035306 | 21 | 306 | 3.2 | 16.1 | 0.00 | 0.00 | 0.00 | 52 | 1021.5 |
| 20260906035204 | 21 | 310 | 3.2 | 16.1 | 0.00 | 0.00 | 0.00 | 52 | 1021.6 |
| 20260906035103 | 21 | 303 | 3.2 | 16.1 | 0.00 | 0.00 | 0.00 | 52 | 1021.6 |
| 20260906035013 | 21 | 300 | 3.2 | 14.5 | 0.00 | 0.00 | 0.00 | 52 | 1021.9 |
| 20260906035003 | 21 | 304 | 3.2 | 16.1 | 0.00 | 0.00 | 0.00 | 52 | 1021.5 |
| 20260906034918 | 21 | 292 | 3.2 | 16.1 | 0.00 | 0.00 | 0.00 | 52 | 1021.5 |
| 20260906034803 | 21 | 292 | 3.2 | 16.1 | 0.00 | 0.00 | 0.00 | 52 | 1021.4 |
| 20260906034603 | 21 | 281 | 3.2 | 16.1 | 0.00 | 0.00 | 0.00 | 52 | 1021.5 |
| 20260906034539 | 21 | 276 | 3.2 | 14.5 | 0.00 | 0.00 | 0.00 | 52 | 1021.8 |
| 20260906034503 | 21 | 285 | 3.2 | 16.1 | 0.00 | 0.00 | 0.00 | 52 | 1021.4 |
| 20260906034403 | 21 | 285 | 3.2 | 16.1 | 0.00 | 0.00 | 0.00 | 52 | 1021.4 |
| 20260906034303 | 21 | 282 | 3.2 | 9.7 | 0.00 | 0.00 | 0.00 | 52 | 1021.4 |
| 20260906034203 | 21 | 283 | 3.2 | 9.7 | 0.00 | 0.00 | 0.00 | 52 | 1021.4 |
| 20260906034103 | 21 | 284 | 3.2 | 14.5 | 0.00 | 0.00 | 0.00 | 52 | 1021.4 |
| 20260906034010 | 21 | 306 | 4.8 | 9.7 | 0.00 | 0.00 | 0.00 | 51 | 1021.7 |
| 20260906034003 | 21 | 286 | 3.2 | 14.5 | 0.00 | 0.00 | 0.00 | 52 | 1021.4 |
| 20260906033903 | 21 | 293 | 3.2 | 14.5 | 0.00 | 0.00 | 0.00 | 52 | 1021.4 |
| 20260906033803 | 21 | 295 | 3.2 | 14.5 | 0.00 | 0.00 | 0.00 | 52 | 1021.4 |
| 20260906033603 | 21 | 292 | 3.2 | 14.5 | 0.00 | 0.00 | 0.00 | 52 | 1021.4 |
| 20260906033510 | 21 | 333 | 3.2 | 12.9 | 0.00 | 0.00 | 0.00 | 51 | 1021.7 |
| 20260906033503 | 21 | 288 | 3.2 | 14.5 | 0.00 | 0.00 | 0.00 | 52 | 1021.3 |
| 20260906033403 | 21 | 285 | 3.2 | 14.5 | 0.00 | 0.00 | 0.00 | 52 | 1021.4 |
| 20260906033303 | 21 | 286 | 3.2 | 14.5 | 0.00 | 0.00 | 0.00 | 52 | 1021.3 |
| 20260906033203 | 21 | 287 | 3.2 | 14.5 | 0.00 | 0.00 | 0.00 | 51 | 1021.3 |
| 20260906033103 | 21 | 285 | 3.2 | 14.5 | 0.00 | 0.00 | 0.00 | 51 | 1021.3 |
| 20260906033031 | 21 | 301 | 4.8 | 12.9 | 0.00 | 0.00 | 0.00 | 51 | 1021.6 |
| 20260906033003 | 21 | 278 | 3.2 | 12.9 | 0.00 | 0.00 | 0.00 | 51 | 1021.3 |
| 20260906032903 | 21 | 282 | 3.2 | 12.9 | 0.00 | 0.00 | 0.00 | 51 | 1021.3 |
| 20260906032803 | 21 | 283 | 3.2 | 12.9 | 0.00 | 0.00 | 0.00 | 51 | 1021.2 |
| 20260906032703 | 21 | 291 | 3.2 | 6.4 | 0.00 | 0.00 | 0.00 | 51 | 1021.2 |
| 20260906032516 | 21 | 294 | 1.6 | 6.4 | 0.00 | 0.00 | 0.00 | 51 | 1021.5 |
| 20260906032503 | 21 | 298 | 3.2 | 8.0 | 0.00 | 0.00 | 0.00 | 51 | 1021.2 |
| 20260906032403 | 21 | 304 | 3.2 | 8.0 | 0.00 | 0.00 | 0.00 | 51 | 1021.2 |
| 20260906032306 | 21 | 308 | 3.2 | 8.0 | 0.00 | 0.00 | 0.00 | 51 | 1021.2 |
| 20260906032203 | 21 | 305 | 3.2 | 8.0 | 0.00 | 0.00 | 0.00 | 51 | 1021.2 |
| 20260906032103 | 21 | 308 | 3.2 | 8.0 | 0.00 | 0.00 | 0.00 | 51 | 1021.2 |
| 20260906032004 | 21 | 230 | 1.6 | 8.0 | 0.00 | 0.00 | 0.00 | 51 | 1021.4 |
| 20260906031903 | 21 | 296 | 3.2 | 8.0 | 0.00 | 0.00 | 0.00 | 51 | 1021.2 |
| 20260906031803 | 21 | 290 | 3.2 | 8.0 | 0.00 | 0.00 | 0.00 | 51 | 1021.0 |
| 20260906031703 | 21 | 288 | 3.2 | 8.0 | 0.00 | 0.00 | 0.00 | 51 | 1021.1 |
| 20260906031603 | 21 | 292 | 3.2 | 8.0 | 0.00 | 0.00 | 0.00 | 51 | 1021.1 |
| 20260906031514 | 21 | 319 | 3.2 | 8.0 | 0.00 | 0.00 | 0.00 | 51 | 1021.4 |
| 20260906031503 | 21 | 292 | 3.2 | 11.3 | 0.00 | 0.00 | 0.00 | 51 | 1021.0 |
| 20260906031403 | 21 | 285 | 3.2 | 11.3 | 0.00 | 0.00 | 0.00 | 51 | 1021.0 |
| 20260906031303 | 21 | 279 | 3.2 | 11.3 | 0.00 | 0.00 | 0.00 | 51 | 1021.0 |
| 20260906031203 | 21 | 273 | 3.2 | 11.3 | 0.00 | 0.00 | 0.00 | 51 | 1021.0 |
| 20260906031103 | 21 | 268 | 3.2 | 11.3 | 0.00 | 0.00 | 0.00 | 51 | 1021.0 |
| 20260906031003 | 21 | 246 | 3.2 | 11.3 | 0.00 | 0.00 | 0.00 | 51 | 1021.3 |
| 20260906030903 | 21 | 284 | 3.2 | 11.3 | 0.00 | 0.00 | 0.00 | 51 | 1020.9 |
| 20260906030803 | 21 | 289 | 3.2 | 11.3 | 0.00 | 0.00 | 0.00 | 51 | 1020.9 |
| 20260906030703 | 21 | 288 | 3.2 | 11.3 | 0.00 | 0.00 | 0.00 | 51 | 1020.9 |
| 20260906030603 | 21 | 281 | 3.2 | 11.3 | 0.00 | 0.00 | 0.00 | 51 | 1020.9 |
| 20260906030506 | 21 | 311 | 3.2 | 11.3 | 0.00 | 0.00 | 0.00 | 50 | 1021.2 |
| 20260906030503 | 21 | 276 | 3.2 | 11.3 | 0.00 | 0.00 | 0.00 | 51 | 1020.9 |
| 20260906030403 | 21 | 278 | 3.2 | 8.0 | 0.00 | 0.00 | 0.00 | 51 | 1020.8 |
| 20260906030303 | 21 | 282 | 3.2 | 8.0 | 0.00 | 0.00 | 0.00 | 51 | 1020.9 |
| 20260906030203 | 21 | 285 | 3.2 | 8.0 | 0.00 | 0.00 | 0.00 | 51 | 1020.8 |
| 20260906030014 | 21 | 279 | 3.2 | 8.0 | 0.00 | 0.00 | 0.00 | 50 | 1021.1 |
| 20260906025903 | 21 | 292 | 3.2 | 8.0 | 0.00 | 0.00 | 0.00 | 51 | 1020.8 |
| 20260906025803 | 21 | 293 | 3.2 | 8.0 | 0.00 | 0.00 | 0.00 | 51 | 1020.8 |
| 20260906025703 | 21 | 296 | 3.2 | 8.0 | 0.00 | 0.00 | 0.00 | 51 | 1020.8 |
| 20260906025603 | 21 | 304 | 3.2 | 6.4 | 0.00 | 0.00 | 0.00 | 50 | 1020.8 |
| 20260906025515 | 21 | 279 | 1.6 | 8.0 | 0.00 | 0.00 | 0.00 | 50 | 1021.1 |
| 20260906025503 | 21 | 306 | 3.2 | 6.4 | 0.00 | 0.00 | 0.00 | 50 | 1020.8 |
| 20260906025403 | 21 | 307 | 3.2 | 12.9 | 0.00 | 0.00 | 0.00 | 50 | 1020.7 |
| 20260906025203 | 22 | 316 | 3.2 | 12.9 | 0.00 | 0.00 | 0.00 | 50 | 1020.7 |
| 20260906025103 | 22 | 318 | 3.2 | 12.9 | 0.00 | 0.00 | 0.00 | 50 | 1020.7 |
| 20260906025011 | 21 | 302 | 3.2 | 11.3 | 0.00 | 0.00 | 0.00 | 50 | 1020.9 |
| 20260906024903 | 22 | 321 | 3.2 | 12.9 | 0.00 | 0.00 | 0.00 | 50 | 1020.7 |
| 20260906024803 | 22 | 316 | 3.2 | 12.9 | 0.00 | 0.00 | 0.00 | 50 | 1020.7 |
| 20260906024703 | 22 | 316 | 3.2 | 12.9 | 0.00 | 0.00 | 0.00 | 50 | 1020.7 |
| 20260906024603 | 22 | 316 | 3.2 | 12.9 | 0.00 | 0.00 | 0.00 | 50 | 1020.6 |
| 20260906024522 | 21 | 296 | 1.6 | 11.3 | 0.00 | 0.00 | 0.00 | 50 | 1020.9 |
| 20260906024503 | 22 | 311 | 3.2 | 12.9 | 0.00 | 0.00 | 0.00 | 50 | 1020.6 |
| 20260906024403 | 22 | 310 | 3.2 | 12.9 | 0.00 | 0.00 | 0.00 | 50 | 1020.6 |
| 20260906024303 | 22 | 302 | 3.2 | 11.3 | 0.00 | 0.00 | 0.00 | 50 | 1020.6 |
| 20260906024203 | 22 | 298 | 3.2 | 11.3 | 0.00 | 0.00 | 0.00 | 50 | 1020.6 |
| 20260906024103 | 22 | 291 | 3.2 | 11.3 | 0.00 | 0.00 | 0.00 | 50 | 1020.6 |
| 20260906024014 | 21 | 304 | 3.2 | 9.7 | 0.00 | 0.00 | 0.00 | 50 | 1020.9 |
| 20260906024003 | 22 | 286 | 3.2 | 11.3 | 0.00 | 0.00 | 0.00 | 50 | 1020.6 |
| 20260906023903 | 22 | 284 | 3.2 | 11.3 | 0.00 | 0.00 | 0.00 | 50 | 1020.6 |
| 20260906023804 | 22 | 283 | 3.2 | 11.3 | 0.00 | 0.00 | 0.00 | 50 | 1020.6 |
| 20260906023703 | 22 | 279 | 3.2 | 11.3 | 0.00 | 0.00 | 0.00 | 50 | 1020.6 |
| 20260906023603 | 22 | 268 | 3.2 | 11.3 | 0.00 | 0.00 | 0.00 | 50 | 1020.6 |
| 20260906023513 | 21 | 257 | 4.8 | 9.7 | 0.00 | 0.00 | 0.00 | 50 | 1020.9 |
| 20260906023503 | 22 | 274 | 3.2 | 11.3 | 0.00 | 0.00 | 0.00 | 50 | 1020.6 |
| 20260906023403 | 22 | 270 | 3.2 | 11.3 | 0.00 | 0.00 | 0.00 | 50 | 1020.6 |
| 20260906023303 | 22 | 271 | 3.2 | 11.3 | 0.00 | 0.00 | 0.00 | 50 | 1020.6 |
| 20260906023203 | 22 | 271 | 3.2 | 8.0 | 0.00 | 0.00 | 0.00 | 50 | 1020.5 |
| 20260906023103 | 22 | 271 | 3.2 | 8.0 | 0.00 | 0.00 | 0.00 | 50 | 1020.5 |
| 20260906023030 | 21 | 232 | 3.2 | 8.0 | 0.00 | 0.00 | 0.00 | 50 | 1020.8 |
| 20260906022903 | 22 | 286 | 3.2 | 8.0 | 0.00 | 0.00 | 0.00 | 50 | 1020.4 |
| 20260906022803 | 22 | 286 | 3.2 | 8.0 | 0.00 | 0.00 | 0.00 | 50 | 1020.4 |
| 20260906022603 | 22 | 294 | 3.2 | 8.0 | 0.00 | 0.00 | 0.00 | 50 | 1020.4 |
| 20260906022515 | 21 | 319 | 3.2 | 8.0 | 0.00 | 0.00 | 0.00 | 50 | 1020.6 |
| 20260906022503 | 22 | 289 | 3.2 | 8.0 | 0.00 | 0.00 | 0.00 | 50 | 1020.4 |
| 20260906022403 | 22 | 296 | 3.2 | 6.4 | 0.00 | 0.00 | 0.00 | 50 | 1020.4 |
| 20260906022306 | 22 | 298 | 3.2 | 6.4 | 0.00 | 0.00 | 0.00 | 50 | 1020.4 |
| 20260906022203 | 22 | 296 | 3.2 | 6.4 | 0.00 | 0.00 | 0.00 | 51 | 1020.4 |
| 20260906022103 | 22 | 306 | 3.2 | 6.4 | 0.00 | 0.00 | 0.00 | 51 | 1020.4 |
| 20260906022017 | 22 | 305 | 3.2 | 11.3 | 0.00 | 0.00 | 0.00 | 50 | 1020.4 |
| 20260906022014 | 21 | 5 | 1.6 | 6.4 | 0.00 | 0.00 | 0.00 | 50 | 1020.6 |
| 20260906021903 | 22 | 306 | 3.2 | 11.3 | 0.00 | 0.00 | 0.00 | 51 | 1020.3 |
| 20260906021703 | 22 | 297 | 3.2 | 11.3 | 0.00 | 0.00 | 0.00 | 51 | 1020.3 |
| 20260906021603 | 22 | 296 | 3.2 | 11.3 | 0.00 | 0.00 | 0.00 | 51 | 1020.3 |
| 20260906021538 | 21 | 284 | 3.2 | 11.3 | 0.00 | 0.00 | 0.00 | 50 | 1020.6 |
| 20260906021403 | 22 | 296 | 3.2 | 11.3 | 0.00 | 0.00 | 0.00 | 51 | 1020.3 |
| 20260906021303 | 22 | 295 | 3.2 | 11.3 | 0.00 | 0.00 | 0.00 | 51 | 1020.3 |
| 20260906021203 | 22 | 296 | 3.2 | 11.3 | 0.00 | 0.00 | 0.00 | 51 | 1020.3 |
| 20260906021103 | 21 | 293 | 3.2 | 11.3 | 0.00 | 0.00 | 0.00 | 51 | 1020.3 |
| 20260906021003 | 21 | 284 | 3.2 | 11.3 | 0.00 | 0.00 | 0.00 | 51 | 1020.3 |
| 20260906020903 | 21 | 274 | 3.2 | 9.7 | 0.00 | 0.00 | 0.00 | 51 | 1020.3 |
| 20260906020803 | 21 | 278 | 3.2 | 9.7 | 0.00 | 0.00 | 0.00 | 51 | 1020.3 |
| 20260906020703 | 21 | 284 | 3.2 | 8.0 | 0.00 | 0.00 | 0.00 | 51 | 1020.3 |
| 20260906020603 | 21 | 282 | 3.2 | 8.0 | 0.00 | 0.00 | 0.00 | 51 | 1020.3 |
| 20260906020504 | 21 | 298 | 1.6 | 6.4 | 0.00 | 0.00 | 0.00 | 50 | 1020.5 |
| 20260906020403 | 21 | 282 | 3.2 | 8.0 | 0.00 | 0.00 | 0.00 | 51 | 1020.3 |
| 20260906020303 | 21 | 282 | 3.2 | 8.0 | 0.00 | 0.00 | 0.00 | 51 | 1020.3 |
| 20260906020203 | 21 | 281 | 3.2 | 8.0 | 0.00 | 0.00 | 0.00 | 51 | 1020.3 |
| 20260906020010 | 21 | 254 | 1.6 | 6.4 | 0.00 | 0.00 | 0.00 | 50 | 1020.6 |
| 20260906020003 | 21 | 281 | 3.2 | 8.0 | 0.00 | 0.00 | 0.00 | 51 | 1020.3 |
| 20260906015903 | 21 | 286 | 3.2 | 8.0 | 0.00 | 0.00 | 0.00 | 51 | 1020.3 |
| 20260906015703 | 21 | 302 | 3.2 | 8.0 | 0.00 | 0.00 | 0.00 | 51 | 1020.3 |
| 20260906015603 | 21 | 336 | 3.2 | 8.0 | 0.00 | 0.00 | 0.00 | 51 | 1020.2 |
| 20260906015508 | 21 | 298 | 1.6 | 6.4 | 0.00 | 0.00 | 0.00 | 50 | 1020.5 |
| 20260906015503 | 21 | 24 | 3.2 | 8.0 | 0.00 | 0.00 | 0.00 | 51 | 1020.2 |
| 20260906015306 | 21 | 36 | 3.2 | 8.0 | 0.00 | 0.00 | 0.00 | 51 | 1020.1 |
| 20260906015203 | 21 | 58 | 3.2 | 3.2 | 0.00 | 0.00 | 0.00 | 51 | 1020.2 |
| 20260906015103 | 21 | 19 | 3.2 | 12.9 | 0.00 | 0.00 | 0.00 | 51 | 1020.1 |
| 20260906015007 | 21 | 63 | 0.0 | 3.2 | 0.00 | 0.00 | 0.00 | 50 | 1020.4 |
| 20260906015004 | 21 | 3 | 3.2 | 12.9 | 0.00 | 0.00 | 0.00 | 51 | 1020.1 |
| 20260906014903 | 21 | 1 | 3.2 | 12.9 | 0.00 | 0.00 | 0.00 | 51 | 1020.2 |
| 20260906014803 | 21 | 336 | 3.2 | 12.9 | 0.00 | 0.00 | 0.00 | 51 | 1020.2 |
| 20260906014519 | 21 | 96 | 0.0 | 12.9 | 0.00 | 0.00 | 0.00 | 51 | 1020.5 |
| 20260906014503 | 21 | 306 | 3.2 | 12.9 | 0.00 | 0.00 | 0.00 | 51 | 1020.2 |
| 20260906014403 | 21 | 310 | 3.2 | 12.9 | 0.00 | 0.00 | 0.00 | 51 | 1020.2 |
| 20260906014303 | 21 | 306 | 3.2 | 12.9 | 0.00 | 0.00 | 0.00 | 51 | 1020.2 |
| 20260906014203 | 21 | 295 | 3.2 | 12.9 | 0.00 | 0.00 | 0.00 | 51 | 1020.3 |
| 20260906014103 | 21 | 294 | 3.2 | 12.9 | 0.00 | 0.00 | 0.00 | 51 | 1020.2 |
| 20260906014010 | 20 | 297 | 3.2 | 12.9 | 0.00 | 0.00 | 0.00 | 51 | 1020.5 |
| 20260906014003 | 21 | 296 | 3.2 | 4.8 | 0.00 | 0.00 | 0.00 | 51 | 1020.2 |
| 20260906013903 | 21 | 297 | 3.2 | 4.8 | 0.00 | 0.00 | 0.00 | 51 | 1020.2 |
| 20260906013603 | 20 | 281 | 3.2 | 3.2 | 0.00 | 0.00 | 0.00 | 52 | 1020.3 |
| 20260906013513 | 20 | 244 | 0.0 | 4.8 | 0.00 | 0.00 | 0.00 | 51 | 1020.6 |
| 20260906013503 | 20 | 287 | 3.2 | 3.2 | 0.00 | 0.00 | 0.00 | 52 | 1020.3 |
| 20260906013403 | 20 | 289 | 3.2 | 3.2 | 0.00 | 0.00 | 0.00 | 52 | 1020.3 |
| 20260906013303 | 20 | 298 | 3.2 | 4.8 | 0.00 | 0.00 | 0.00 | 52 | 1020.3 |
| 20260906013103 | 20 | 288 | 3.2 | 4.8 | 0.00 | 0.00 | 0.00 | 52 | 1020.4 |
| 20260906013024 | 20 | 319 | 1.6 | 4.8 | 0.00 | 0.00 | 0.00 | 52 | 1020.6 |
| 20260906013003 | 20 | 283 | 3.2 | 8.0 | 0.00 | 0.00 | 0.00 | 52 | 1020.3 |
| 20260906012903 | 20 | 287 | 3.2 | 8.0 | 0.00 | 0.00 | 0.00 | 52 | 1020.4 |
| 20260906012803 | 20 | 288 | 3.2 | 8.0 | 0.00 | 0.00 | 0.00 | 53 | 1020.4 |
| 20260906012703 | 20 | 287 | 3.2 | 8.0 | 0.00 | 0.00 | 0.00 | 53 | 1020.4 |
| 20260906012603 | 20 | 289 | 3.2 | 8.0 | 0.00 | 0.00 | 0.00 | 53 | 1020.4 |
| 20260906012517 | 20 | 289 | 3.2 | 8.0 | 0.00 | 0.00 | 0.00 | 53 | 1020.4 |
| 20260906012514 | 19 | 296 | 1.6 | 6.4 | 0.00 | 0.00 | 0.00 | 52 | 1020.7 |
| 20260906012403 | 19 | 286 | 3.2 | 8.0 | 0.00 | 0.00 | 0.00 | 53 | 1020.3 |
| 20260906012316 | 19 | 271 | 3.2 | 8.0 | 0.00 | 0.00 | 0.00 | 54 | 1020.4 |
| 20260906012203 | 19 | 278 | 3.2 | 8.0 | 0.00 | 0.00 | 0.00 | 54 | 1020.4 |
| 20260906012118 | 19 | 278 | 3.2 | 8.0 | 0.00 | 0.00 | 0.00 | 54 | 1020.3 |
| 20260906012014 | 18 | 264 | 1.6 | 6.4 | 0.00 | 0.00 | 0.00 | 54 | 1020.6 |
| 20260906012003 | 18 | 284 | 3.2 | 8.0 | 0.00 | 0.00 | 0.00 | 54 | 1020.3 |
| 20260906011803 | 18 | 275 | 3.2 | 3.2 | 0.00 | 0.00 | 0.00 | 54 | 1020.4 |
| 20260906011703 | 18 | 275 | 3.2 | 3.2 | 0.00 | 0.00 | 0.00 | 54 | 1020.3 |
| 20260906011603 | 18 | 279 | 3.2 | 3.2 | 0.00 | 0.00 | 0.00 | 55 | 1020.3 |
| 20260906011530 | 18 | 293 | 0.0 | 3.2 | 0.00 | 0.00 | 0.00 | 54 | 1020.5 |
| 20260906011503 | 18 | 243 | 3.2 | 3.2 | 0.00 | 0.00 | 0.00 | 55 | 1020.3 |
| 20260906011403 | 18 | 233 | 3.2 | 3.2 | 0.00 | 0.00 | 0.00 | 55 | 1020.2 |
| 20260906011203 | 18 | 214 | 3.2 | 3.2 | 0.00 | 0.00 | 0.00 | 55 | 1020.1 |
| 20260906011103 | 18 | 214 | 3.2 | 3.2 | 0.00 | 0.00 | 0.00 | 55 | 1020.1 |
| 20260906011016 | 18 | 304 | 0.0 | 3.2 | 0.00 | 0.00 | 0.00 | 55 | 1020.4 |
| 20260906011003 | 18 | 243 | 3.2 | 3.2 | 0.00 | 0.00 | 0.00 | 55 | 1020.1 |
| 20260906010803 | 18 | 243 | 3.2 | 3.2 | 0.00 | 0.00 | 0.00 | 56 | 1020.1 |
| 20260906010703 | 18 | 243 | 3.2 | 3.2 | 0.00 | 0.00 | 0.00 | 56 | 1020.1 |
| 20260906010603 | 18 | 243 | 3.2 | 3.2 | 0.00 | 0.00 | 0.00 | 55 | 1020.0 |
| 20260906010512 | 17 | 214 | 0.0 | 3.2 | 0.00 | 0.00 | 0.00 | 55 | 1020.3 |
| 20260906010403 | 17 | 255 | 3.2 | 3.2 | 0.00 | 0.00 | 0.00 | 56 | 1020.1 |
| 20260906010303 | 17 | 242 | 3.2 | 3.2 | 0.00 | 0.00 | 0.00 | 56 | 1020.0 |
| 20260906010203 | 17 | 242 | 3.2 | 3.2 | 0.00 | 0.00 | 0.00 | 56 | 1020.0 |
| 20260906010103 | 17 | 242 | 3.2 | 3.2 | 0.00 | 0.00 | 0.00 | 56 | 1020.0 |
| 20260906010012 | 17 | 282 | 0.0 | 3.2 | 0.00 | 0.00 | 0.00 | 56 | 1020.2 |
| 20260906005903 | 17 | 216 | 3.2 | 3.2 | 0.00 | 0.00 | 0.00 | 56 | 1020.0 |
| 20260906005803 | 17 | 216 | 3.2 | 3.2 | 0.00 | 0.00 | 0.00 | 55 | 1020.0 |
| 20260906005703 | 17 | 216 | 3.2 | 3.2 | 0.00 | 0.00 | 0.00 | 56 | 1019.9 |
| 20260906005603 | 17 | 216 | 3.2 | 3.2 | 0.00 | 0.00 | 0.00 | 56 | 1019.9 |
| 20260906005506 | 17 | 216 | 0.0 | 3.2 | 0.00 | 0.00 | 0.00 | 56 | 1020.1 |
| 20260906005503 | 17 | 216 | 3.2 | 3.2 | 0.00 | 0.00 | 0.00 | 56 | 1020.0 |
| 20260906005306 | 17 | 0 | 3.2 | 1.6 | 0.00 | 0.00 | 0.00 | 56 | 1019.9 |
| 20260906005203 | 17 | 0 | 3.2 | 0.0 | 0.00 | 0.00 | 0.00 | 56 | 1019.9 |
| 20260906005103 | 17 | 0 | 3.2 | 0.0 | 0.00 | 0.00 | 0.00 | 56 | 1019.9 |
| 20260906005004 | 17 | 178 | 0.0 | 0.0 | 0.00 | 0.00 | 0.00 | 56 | 1020.2 |
| 20260906004903 | 17 | 0 | 3.2 | 0.0 | 0.00 | 0.00 | 0.00 | 56 | 1019.9 |
| 20260906004803 | 17 | 0 | 3.2 | 0.0 | 0.00 | 0.00 | 0.00 | 56 | 1019.8 |
| 20260906004718 | 17 | 0 | 3.2 | 0.0 | 0.00 | 0.00 | 0.00 | 57 | 1019.8 |
| 20260906004603 | 17 | 0 | 3.2 | 0.0 | 0.00 | 0.00 | 0.00 | 56 | 1019.8 |
| 20260906004515 | 17 | 178 | 0.0 | 0.0 | 0.00 | 0.00 | 0.00 | 56 | 1020.1 |
| 20260906004403 | 17 | 0 | 3.2 | 0.0 | 0.00 | 0.00 | 0.00 | 57 | 1019.8 |
| 20260906004303 | 17 | 0 | 3.2 | 0.0 | 0.00 | 0.00 | 0.00 | 57 | 1019.8 |
| 20260906004203 | 17 | 0 | 3.2 | 0.0 | 0.00 | 0.00 | 0.00 | 57 | 1019.8 |
| 20260906004117 | 17 | 0 | 3.2 | 0.0 | 0.00 | 0.00 | 0.00 | 57 | 1019.8 |
| 20260906004008 | 17 | 178 | 0.0 | 0.0 | 0.00 | 0.00 | 0.00 | 56 | 1020.1 |
| 20260906004003 | 17 | 0 | 3.2 | 0.0 | 0.00 | 0.00 | 0.00 | 57 | 1019.8 |
| 20260906003803 | 17 | 0 | 3.2 | 3.2 | 0.00 | 0.00 | 0.00 | 57 | 1019.8 |
| 20260906003703 | 17 | 0 | 3.2 | 3.2 | 0.00 | 0.00 | 0.00 | 57 | 1019.8 |
| 20260906003603 | 17 | 0 | 3.2 | 3.2 | 0.00 | 0.00 | 0.00 | 57 | 1019.8 |
| 20260906003511 | 17 | 180 | 0.0 | 3.2 | 0.00 | 0.00 | 0.00 | 57 | 1020.1 |
| 20260906003503 | 17 | 0 | 3.2 | 3.2 | 0.00 | 0.00 | 0.00 | 57 | 1019.8 |
| 20260906003403 | 17 | 0 | 3.2 | 3.2 | 0.00 | 0.00 | 0.00 | 57 | 1019.8 |
| 20260906003303 | 17 | 0 | 3.2 | 3.2 | 0.00 | 0.00 | 0.00 | 57 | 1019.8 |
| 20260906003203 | 17 | 0 | 3.2 | 3.2 | 0.00 | 0.00 | 0.00 | 57 | 1019.8 |
| 20260906003103 | 17 | 0 | 3.2 | 3.2 | 0.00 | 0.00 | 0.00 | 57 | 1019.8 |
| 20260906003023 | 17 | 180 | 0.0 | 3.2 | 0.00 | 0.00 | 0.00 | 57 | 1020.0 |
| 20260906003003 | 17 | 0 | 3.2 | 3.2 | 0.00 | 0.00 | 0.00 | 57 | 1019.8 |
| 20260906002903 | 17 | 0 | 3.2 | 3.2 | 0.00 | 0.00 | 0.00 | 57 | 1019.8 |
| 20260906002803 | 17 | 0 | 3.2 | 0.0 | 0.00 | 0.00 | 0.00 | 57 | 1019.8 |
| 20260906002512 | 17 | 183 | 0.0 | 0.0 | 0.00 | 0.00 | 0.00 | 57 | 1020.0 |
| 20260906002503 | 17 | 0 | 3.2 | 0.0 | 0.00 | 0.00 | 0.00 | 58 | 1019.8 |
| 20260906002403 | 17 | 0 | 3.2 | 0.0 | 0.00 | 0.00 | 0.00 | 58 | 1019.7 |
| 20260906002305 | 17 | 0 | 3.2 | 0.0 | 0.00 | 0.00 | 0.00 | 57 | 1019.8 |
| 20260906002203 | 17 | 0 | 3.2 | 0.0 | 0.00 | 0.00 | 0.00 | 58 | 1019.7 |
| 20260906002103 | 17 | 0 | 3.2 | 0.0 | 0.00 | 0.00 | 0.00 | 58 | 1019.7 |
| 20260906002014 | 17 | 183 | 0.0 | 0.0 | 0.00 | 0.00 | 0.00 | 57 | 1020.0 |
| 20260906002003 | 17 | 0 | 3.2 | 0.0 | 0.00 | 0.00 | 0.00 | 58 | 1019.7 |
| 20260906001903 | 17 | 0 | 3.2 | 0.0 | 0.00 | 0.00 | 0.00 | 58 | 1019.7 |
| 20260906001803 | 17 | 0 | 3.2 | 0.0 | 0.00 | 0.00 | 0.00 | 57 | 1019.8 |
| 20260906001703 | 17 | 0 | 3.2 | 0.0 | 0.00 | 0.00 | 0.00 | 57 | 1019.7 |
| 20260906001541 | 17 | 181 | 0.0 | 0.0 | 0.00 | 0.00 | 0.00 | 57 | 1020.0 |
| 20260906001503 | 17 | 0 | 3.2 | 0.0 | 0.00 | 0.00 | 0.00 | 57 | 1019.7 |
| 20260906001403 | 17 | 0 | 3.2 | 0.0 | 0.00 | 0.00 | 0.00 | 57 | 1019.6 |
| 20260906001303 | 17 | 0 | 3.2 | 0.0 | 0.00 | 0.00 | 0.00 | 57 | 1019.6 |
| 20260906001203 | 17 | 181 | 3.2 | 0.0 | 0.00 | 0.00 | 0.00 | 57 | 1019.7 |
| 20260906001103 | 17 | 181 | 3.2 | 0.0 | 0.00 | 0.00 | 0.00 | 57 | 1019.7 |
| 20260906001016 | 17 | 181 | 0.0 | 3.2 | 0.00 | 0.00 | 0.00 | 56 | 1020.0 |
| 20260906001003 | 17 | 181 | 3.2 | 0.0 | 0.00 | 0.00 | 0.00 | 56 | 1019.7 |
| 20260906000903 | 17 | 181 | 3.2 | 0.0 | 0.00 | 0.00 | 0.00 | 56 | 1019.7 |
| 20260906000803 | 17 | 181 | 3.2 | 0.0 | 0.00 | 0.00 | 0.00 | 56 | 1019.7 |
| 20260906000703 | 17 | 181 | 3.2 | 0.0 | 0.00 | 0.00 | 0.00 | 56 | 1019.7 |
| 20260906000603 | 18 | 181 | 3.2 | 0.0 | 0.00 | 0.00 | 0.00 | 56 | 1019.8 |
| 20260906000512 | 17 | 181 | 0.0 | 3.2 | 0.00 | 0.00 | 0.00 | 56 | 1020.0 |
| 20260906000503 | 18 | 181 | 3.2 | 0.0 | 0.00 | 0.00 | 0.00 | 56 | 1019.8 |
| 20260906000403 | 18 | 181 | 3.2 | 3.2 | 0.00 | 0.00 | 0.00 | 56 | 1019.7 |
| 20260906000303 | 18 | 180 | 3.2 | 3.2 | 0.00 | 0.00 | 0.00 | 56 | 1019.6 |
| 20260906000219 | 18 | 180 | 3.2 | 3.2 | 0.00 | 0.00 | 0.00 | 57 | 1019.7 |
| 20260906000030 | 17 | 181 | 0.0 | 3.2 | 0.00 | 0.00 | 0.00 | 56 | 1019.9 |
| 20260906000018 | 18 | 180 | 3.2 | 3.2 | 0.00 | 0.00 | 0.00 | 56 | 1019.6 |
| 20260905235903 | 18 | 180 | 3.2 | 3.2 | 0.00 | 0.00 | 0.00 | 56 | 1019.6 |
| 20260905235703 | 18 | 180 | 3.2 | 3.2 | 0.00 | 0.00 | 0.00 | 57 | 1019.6 |
| 20260905235603 | 18 | 180 | 3.2 | 3.2 | 0.00 | 0.00 | 0.00 | 57 | 1019.6 |
| 20260905235517 | 18 | 180 | 3.2 | 3.2 | 0.00 | 0.00 | 0.00 | 56 | 1019.5 |
| 20260905235403 | 17 | 180 | 3.2 | 3.2 | 0.00 | 0.00 | 0.00 | 56 | 1019.6 |
| 20260905235204 | 17 | 219 | 3.2 | 3.2 | 0.00 | 0.00 | 0.00 | 57 | 1019.6 |
| 20260905235103 | 17 | 219 | 3.2 | 3.2 | 0.00 | 0.00 | 0.00 | 57 | 1019.6 |
| 20260905235007 | 17 | 238 | 0.0 | 3.2 | 0.00 | 0.00 | 0.00 | 56 | 1019.9 |
| 20260905235003 | 17 | 219 | 3.2 | 3.2 | 0.00 | 0.00 | 0.00 | 57 | 1019.5 |
| 20260905234903 | 17 | 219 | 3.2 | 3.2 | 0.00 | 0.00 | 0.00 | 57 | 1019.5 |
| 20260905234803 | 17 | 219 | 3.2 | 3.2 | 0.00 | 0.00 | 0.00 | 58 | 1019.4 |
| 20260905234703 | 17 | 219 | 3.2 | 3.2 | 0.00 | 0.00 | 0.00 | 58 | 1019.5 |
| 20260905234603 | 17 | 219 | 3.2 | 3.2 | 0.00 | 0.00 | 0.00 | 58 | 1019.5 |
| 20260905234514 | 17 | 235 | 0.0 | 3.2 | 0.00 | 0.00 | 0.00 | 57 | 1019.7 |
| 20260905234503 | 17 | 219 | 3.2 | 3.2 | 0.00 | 0.00 | 0.00 | 58 | 1019.5 |
| 20260905234403 | 17 | 219 | 3.2 | 3.2 | 0.00 | 0.00 | 0.00 | 58 | 1019.5 |
| 20260905234303 | 17 | 219 | 3.2 | 3.2 | 0.00 | 0.00 | 0.00 | 58 | 1019.4 |
| 20260905234103 | 17 | 0 | 3.2 | 0.0 | 0.00 | 0.00 | 0.00 | 58 | 1019.4 |
| 20260905234009 | 17 | 138 | 0.0 | 0.0 | 0.00 | 0.00 | 0.00 | 57 | 1019.7 |
| 20260905234003 | 17 | 0 | 3.2 | 0.0 | 0.00 | 0.00 | 0.00 | 57 | 1019.4 |
| 20260905233703 | 17 | 0 | 3.2 | 0.0 | 0.00 | 0.00 | 0.00 | 57 | 1019.4 |
| 20260905233603 | 17 | 0 | 3.2 | 0.0 | 0.00 | 0.00 | 0.00 | 57 | 1019.5 |
| 20260905233508 | 17 | 138 | 0.0 | 0.0 | 0.00 | 0.00 | 0.00 | 57 | 1019.7 |
| 20260905233503 | 17 | 0 | 3.2 | 0.0 | 0.00 | 0.00 | 0.00 | 57 | 1019.4 |
| 20260905233403 | 17 | 0 | 3.2 | 0.0 | 0.00 | 0.00 | 0.00 | 57 | 1019.5 |
| 20260905233303 | 17 | 0 | 3.2 | 0.0 | 0.00 | 0.00 | 0.00 | 57 | 1019.5 |
| 20260905233203 | 17 | 0 | 3.2 | 0.0 | 0.00 | 0.00 | 0.00 | 57 | 1019.5 |
| 20260905233018 | 17 | 138 | 0.0 | 0.0 | 0.00 | 0.00 | 0.00 | 57 | 1019.6 |
| 20260905232903 | 17 | 0 | 3.2 | 0.0 | 0.00 | 0.00 | 0.00 | 57 | 1019.4 |
| 20260905232803 | 17 | 0 | 3.2 | 0.0 | 0.00 | 0.00 | 0.00 | 57 | 1019.4 |
| 20260905232703 | 17 | 0 | 3.2 | 0.0 | 0.00 | 0.00 | 0.00 | 57 | 1019.3 |
| 20260905232603 | 17 | 0 | 3.2 | 0.0 | 0.00 | 0.00 | 0.00 | 57 | 1019.3 |
| 20260905232510 | 17 | 138 | 0.0 | 0.0 | 0.00 | 0.00 | 0.00 | 56 | 1019.6 |
| 20260905232503 | 17 | 0 | 3.2 | 0.0 | 0.00 | 0.00 | 0.00 | 57 | 1019.2 |
| 20260905232403 | 18 | 0 | 3.2 | 0.0 | 0.00 | 0.00 | 0.00 | 57 | 1019.3 |
| 20260905232305 | 18 | 0 | 3.2 | 0.0 | 0.00 | 0.00 | 0.00 | 56 | 1019.3 |
| 20260905232203 | 18 | 0 | 3.2 | 0.0 | 0.00 | 0.00 | 0.00 | 56 | 1019.2 |
| 20260905232103 | 18 | 0 | 3.2 | 0.0 | 0.00 | 0.00 | 0.00 | 56 | 1019.2 |
| 20260905232012 | 17 | 138 | 0.0 | 0.0 | 0.00 | 0.00 | 0.00 | 56 | 1019.5 |
| 20260905232003 | 18 | 0 | 3.2 | 0.0 | 0.00 | 0.00 | 0.00 | 56 | 1019.2 |
| 20260905231903 | 18 | 0 | 3.2 | 0.0 | 0.00 | 0.00 | 0.00 | 56 | 1019.2 |
| 20260905231703 | 18 | 0 | 3.2 | 0.0 | 0.00 | 0.00 | 0.00 | 56 | 1019.1 |
| 20260905231603 | 18 | 0 | 3.2 | 0.0 | 0.00 | 0.00 | 0.00 | 56 | 1019.1 |
| 20260905231528 | 17 | 138 | 0.0 | 0.0 | 0.00 | 0.00 | 0.00 | 56 | 1019.4 |
| 20260905231503 | 18 | 0 | 3.2 | 0.0 | 0.00 | 0.00 | 0.00 | 56 | 1019.1 |
| 20260905231403 | 18 | 0 | 3.2 | 0.0 | 0.00 | 0.00 | 0.00 | 56 | 1019.0 |
| 20260905231303 | 18 | 0 | 3.2 | 0.0 | 0.00 | 0.00 | 0.00 | 56 | 1019.0 |
| 20260905231203 | 18 | 0 | 3.2 | 0.0 | 0.00 | 0.00 | 0.00 | 56 | 1019.0 |
| 20260905231103 | 18 | 0 | 3.2 | 0.0 | 0.00 | 0.00 | 0.00 | 55 | 1019.0 |
| 20260905231014 | 18 | 138 | 0.0 | 0.0 | 0.00 | 0.00 | 0.00 | 55 | 1019.3 |
| 20260905231003 | 18 | 0 | 3.2 | 0.0 | 0.00 | 0.00 | 0.00 | 55 | 1019.0 |
| 20260905230903 | 18 | 0 | 3.2 | 0.0 | 0.00 | 0.00 | 0.00 | 55 | 1019.1 |
| 20260905230803 | 18 | 0 | 3.2 | 0.0 | 0.00 | 0.00 | 0.00 | 55 | 1019.1 |
| 20260905230703 | 18 | 0 | 3.2 | 0.0 | 0.00 | 0.00 | 0.00 | 55 | 1019.0 |
| 20260905230603 | 18 | 0 | 3.2 | 0.0 | 0.00 | 0.00 | 0.00 | 54 | 1019.0 |
| 20260905230512 | 18 | 138 | 0.0 | 0.0 | 0.00 | 0.00 | 0.00 | 54 | 1019.3 |
| 20260905230503 | 18 | 0 | 3.2 | 0.0 | 0.00 | 0.00 | 0.00 | 54 | 1019.1 |
| 20260905230403 | 18 | 0 | 3.2 | 0.0 | 0.00 | 0.00 | 0.00 | 54 | 1019.0 |
| 20260905230303 | 18 | 0 | 3.2 | 0.0 | 0.00 | 0.00 | 0.00 | 55 | 1019.0 |
| 20260905230203 | 18 | 0 | 3.2 | 0.0 | 0.00 | 0.00 | 0.00 | 55 | 1019.0 |
| 20260905230103 | 18 | 0 | 3.2 | 0.0 | 0.00 | 0.00 | 0.00 | 54 | 1019.1 |
| 20260905230034 | 18 | 138 | 0.0 | 0.0 | 0.00 | 0.00 | 0.00 | 54 | 1019.4 |
| 20260905230004 | 18 | 0 | 3.2 | 0.0 | 0.00 | 0.00 | 0.00 | 55 | 1019.0 |
| 20260905225903 | 18 | 0 | 3.2 | 0.0 | 0.00 | 0.00 | 0.00 | 54 | 1019.0 |
| 20260905225703 | 18 | 0 | 3.2 | 0.0 | 0.00 | 0.00 | 0.00 | 54 | 1019.0 |
| 20260905225603 | 18 | 0 | 3.2 | 0.0 | 0.00 | 0.00 | 0.00 | 54 | 1019.0 |
| 20260905225520 | 18 | 138 | 0.0 | 0.0 | 0.00 | 0.00 | 0.00 | 54 | 1019.3 |
| 20260905225503 | 18 | 0 | 3.2 | 0.0 | 0.00 | 0.00 | 0.00 | 54 | 1019.0 |
| 20260905225403 | 18 | 0 | 3.2 | 0.0 | 0.00 | 0.00 | 0.00 | 54 | 1019.0 |
| 20260905225203 | 18 | 0 | 3.2 | 0.0 | 0.00 | 0.00 | 0.00 | 54 | 1019.0 |
| 20260905225103 | 18 | 0 | 3.2 | 0.0 | 0.00 | 0.00 | 0.00 | 53 | 1019.0 |
| 20260905225014 | 18 | 138 | 0.0 | 0.0 | 0.00 | 0.00 | 0.00 | 53 | 1019.3 |
| 20260905224918 | 18 | 0 | 3.2 | 0.0 | 0.00 | 0.00 | 0.00 | 53 | 1019.0 |
| 20260905224803 | 18 | 0 | 3.2 | 0.0 | 0.00 | 0.00 | 0.00 | 52 | 1019.0 |
| 20260905224603 | 18 | 0 | 3.2 | 0.0 | 0.00 | 0.00 | 0.00 | 52 | 1019.0 |
| 20260905224534 | 18 | 138 | 0.0 | 0.0 | 0.00 | 0.00 | 0.00 | 52 | 1019.3 |
| 20260905224503 | 18 | 0 | 3.2 | 0.0 | 0.00 | 0.00 | 0.00 | 52 | 1019.0 |
| 20260905224403 | 18 | 0 | 3.2 | 0.0 | 0.00 | 0.00 | 0.00 | 52 | 1019.0 |
| 20260905224303 | 18 | 0 | 3.2 | 0.0 | 0.00 | 0.00 | 0.00 | 52 | 1019.0 |
| 20260905224203 | 18 | 0 | 3.2 | 0.0 | 0.00 | 0.00 | 0.00 | 52 | 1019.0 |
| 20260905224103 | 18 | 0 | 3.2 | 0.0 | 0.00 | 0.00 | 0.00 | 52 | 1019.0 |
| 20260905224004 | 18 | 138 | 0.0 | 0.0 | 0.00 | 0.00 | 0.00 | 52 | 1019.3 |
| 20260905223803 | 18 | 0 | 3.2 | 0.0 | 0.00 | 0.00 | 0.00 | 52 | 1019.0 |
| 20260905223703 | 18 | 0 | 3.2 | 0.0 | 0.00 | 0.00 | 0.00 | 53 | 1019.0 |
| 20260905223603 | 19 | 0 | 3.2 | 0.0 | 0.00 | 0.00 | 0.00 | 53 | 1019.1 |
| 20260905223508 | 18 | 138 | 0.0 | 0.0 | 0.00 | 0.00 | 0.00 | 53 | 1019.4 |
| 20260905223403 | 19 | 0 | 3.2 | 0.0 | 0.00 | 0.00 | 0.00 | 53 | 1019.0 |
| 20260905223303 | 19 | 0 | 3.2 | 0.0 | 0.00 | 0.00 | 0.00 | 53 | 1019.0 |
| 20260905223203 | 19 | 0 | 3.2 | 0.0 | 0.00 | 0.00 | 0.00 | 53 | 1019.0 |
| 20260905223030 | 18 | 138 | 0.0 | 0.0 | 0.00 | 0.00 | 0.00 | 53 | 1019.3 |
| 20260905223003 | 19 | 0 | 3.2 | 0.0 | 0.00 | 0.00 | 0.00 | 53 | 1019.0 |
| 20260905222903 | 19 | 0 | 3.2 | 0.0 | 0.00 | 0.00 | 0.00 | 53 | 1019.0 |
| 20260905222803 | 19 | 0 | 3.2 | 0.0 | 0.00 | 0.00 | 0.00 | 53 | 1019.0 |
| 20260905222703 | 19 | 0 | 3.2 | 0.0 | 0.00 | 0.00 | 0.00 | 53 | 1019.0 |
| 20260905222603 | 19 | 0 | 3.2 | 0.0 | 0.00 | 0.00 | 0.00 | 52 | 1019.0 |
| 20260905222508 | 19 | 130 | 0.0 | 0.0 | 0.00 | 0.00 | 0.00 | 52 | 1019.3 |
| 20260905222503 | 19 | 0 | 3.2 | 0.0 | 0.00 | 0.00 | 0.00 | 53 | 1019.0 |
| 20260905222403 | 19 | 0 | 3.2 | 0.0 | 0.00 | 0.00 | 0.00 | 52 | 1019.0 |
| 20260905222306 | 19 | 0 | 3.2 | 0.0 | 0.00 | 0.00 | 0.00 | 52 | 1019.0 |
| 20260905222203 | 19 | 0 | 3.2 | 0.0 | 0.00 | 0.00 | 0.00 | 52 | 1019.0 |
| 20260905222103 | 19 | 0 | 3.2 | 0.0 | 0.00 | 0.00 | 0.00 | 51 | 1019.0 |
| 20260905222013 | 19 | 130 | 0.0 | 0.0 | 0.00 | 0.00 | 0.00 | 51 | 1019.3 |
| 20260905222003 | 19 | 0 | 3.2 | 0.0 | 0.00 | 0.00 | 0.00 | 51 | 1019.0 |
| 20260905221903 | 19 | 0 | 3.2 | 0.0 | 0.00 | 0.00 | 0.00 | 51 | 1019.1 |
| 20260905221803 | 19 | 0 | 3.2 | 0.0 | 0.00 | 0.00 | 0.00 | 51 | 1019.0 |
| 20260905221703 | 19 | 0 | 3.2 | 0.0 | 0.00 | 0.00 | 0.00 | 52 | 1019.0 |
| 20260905221603 | 19 | 0 | 3.2 | 0.0 | 0.00 | 0.00 | 0.00 | 52 | 1019.0 |
| 20260905221525 | 19 | 130 | 0.0 | 0.0 | 0.00 | 0.00 | 0.00 | 52 | 1019.3 |
| 20260905221503 | 19 | 0 | 3.2 | 0.0 | 0.00 | 0.00 | 0.00 | 53 | 1019.0 |
| 20260905221403 | 19 | 0 | 3.2 | 0.0 | 0.00 | 0.00 | 0.00 | 53 | 1019.0 |
| 20260905221303 | 19 | 0 | 3.2 | 0.0 | 0.00 | 0.00 | 0.00 | 51 | 1019.0 |
| 20260905221203 | 19 | 0 | 3.2 | 0.0 | 0.00 | 0.00 | 0.00 | 51 | 1019.0 |
| 20260905221103 | 19 | 0 | 3.2 | 0.0 | 0.00 | 0.00 | 0.00 | 51 | 1019.0 |
| 20260905221011 | 19 | 130 | 0.0 | 0.0 | 0.00 | 0.00 | 0.00 | 51 | 1019.3 |
| 20260905220903 | 20 | 0 | 3.2 | 0.0 | 0.00 | 0.00 | 0.00 | 51 | 1018.9 |
| 20260905220803 | 20 | 0 | 3.2 | 0.0 | 0.00 | 0.00 | 0.00 | 50 | 1019.0 |
| 20260905220717 | 20 | 0 | 3.2 | 0.0 | 0.00 | 0.00 | 0.00 | 50 | 1018.9 |
| 20260905220603 | 20 | 0 | 3.2 | 3.2 | 0.00 | 0.00 | 0.00 | 51 | 1019.0 |
| 20260905220518 | 20 | 0 | 3.2 | 3.2 | 0.00 | 0.00 | 0.00 | 51 | 1019.0 |
| 20260905220403 | 20 | 0 | 3.2 | 3.2 | 0.00 | 0.00 | 0.00 | 52 | 1019.0 |
| 20260905220103 | 20 | 0 | 3.2 | 3.2 | 0.00 | 0.00 | 0.00 | 49 | 1018.9 |
| 20260905220028 | 19 | 143 | 0.0 | 3.2 | 0.00 | 0.00 | 0.00 | 49 | 1019.2 |
| 20260905220003 | 20 | 0 | 3.2 | 3.2 | 0.00 | 0.00 | 0.00 | 49 | 1019.0 |
| 20260905215903 | 20 | 0 | 3.2 | 3.2 | 0.00 | 0.00 | 0.00 | 49 | 1019.0 |
| 20260905215803 | 20 | 0 | 3.2 | 3.2 | 0.00 | 0.00 | 0.00 | 50 | 1019.0 |
| 20260905215703 | 20 | 0 | 3.2 | 3.2 | 0.00 | 0.00 | 0.00 | 50 | 1019.0 |
| 20260905215603 | 20 | 0 | 3.2 | 3.2 | 0.00 | 0.00 | 0.00 | 50 | 1018.9 |
| 20260905215504 | 19 | 143 | 0.0 | 3.2 | 0.00 | 0.00 | 0.00 | 50 | 1019.2 |
| 20260905215403 | 20 | 0 | 3.2 | 0.0 | 0.00 | 0.00 | 0.00 | 51 | 1018.9 |
| 20260905215203 | 20 | 0 | 3.2 | 3.2 | 0.00 | 0.00 | 0.00 | 50 | 1018.9 |
| 20260905215103 | 20 | 172 | 3.2 | 3.2 | 0.00 | 0.00 | 0.00 | 51 | 1018.9 |
| 20260905215005 | 19 | 143 | 0.0 | 3.2 | 0.00 | 0.00 | 0.00 | 50 | 1019.2 |
| 20260905214903 | 20 | 172 | 3.2 | 3.2 | 0.00 | 0.00 | 0.00 | 50 | 1018.9 |
| 20260905214803 | 20 | 172 | 3.2 | 3.2 | 0.00 | 0.00 | 0.00 | 50 | 1018.9 |
| 20260905214703 | 20 | 172 | 3.2 | 3.2 | 0.00 | 0.00 | 0.00 | 50 | 1018.8 |
| 20260905214603 | 20 | 172 | 3.2 | 3.2 | 0.00 | 0.00 | 0.00 | 50 | 1018.8 |
| 20260905214511 | 20 | 143 | 0.0 | 3.2 | 0.00 | 0.00 | 0.00 | 50 | 1019.1 |
| 20260905214503 | 20 | 172 | 3.2 | 3.2 | 0.00 | 0.00 | 0.00 | 51 | 1018.8 |
| 20260905214403 | 20 | 172 | 3.2 | 3.2 | 0.00 | 0.00 | 0.00 | 50 | 1018.8 |
| 20260905214303 | 20 | 172 | 3.2 | 3.2 | 0.00 | 0.00 | 0.00 | 50 | 1018.8 |
| 20260905214103 | 20 | 0 | 3.2 | 0.0 | 0.00 | 0.00 | 0.00 | 50 | 1018.7 |
| 20260905214004 | 20 | 237 | 0.0 | 0.0 | 0.00 | 0.00 | 0.00 | 50 | 1019.0 |
| 20260905213903 | 20 | 0 | 3.2 | 0.0 | 0.00 | 0.00 | 0.00 | 51 | 1018.7 |
| 20260905213803 | 20 | 0 | 3.2 | 0.0 | 0.00 | 0.00 | 0.00 | 51 | 1018.7 |
| 20260905213703 | 20 | 0 | 3.2 | 0.0 | 0.00 | 0.00 | 0.00 | 50 | 1018.7 |
| 20260905213603 | 20 | 0 | 3.2 | 0.0 | 0.00 | 0.00 | 0.00 | 50 | 1018.7 |
| 20260905213504 | 20 | 247 | 0.0 | 0.0 | 0.00 | 0.00 | 0.00 | 50 | 1019.0 |
| 20260905213403 | 20 | 0 | 3.2 | 0.0 | 0.00 | 0.00 | 0.00 | 51 | 1018.7 |
| 20260905213303 | 20 | 0 | 3.2 | 0.0 | 0.00 | 0.00 | 0.00 | 52 | 1018.7 |
| 20260905213103 | 20 | 0 | 3.2 | 0.0 | 0.00 | 0.00 | 0.00 | 51 | 1018.7 |
| 20260905213013 | 20 | 283 | 0.0 | 0.0 | 0.00 | 0.00 | 0.00 | 51 | 1019.0 |
| 20260905213003 | 20 | 0 | 3.2 | 0.0 | 0.00 | 0.00 | 0.00 | 51 | 1018.7 |
| 20260905212903 | 20 | 0 | 3.2 | 0.0 | 0.00 | 0.00 | 0.00 | 50 | 1018.7 |
| 20260905212803 | 20 | 0 | 3.2 | 0.0 | 0.00 | 0.00 | 0.00 | 50 | 1018.7 |
| 20260905212703 | 20 | 0 | 3.2 | 0.0 | 0.00 | 0.00 | 0.00 | 51 | 1018.6 |
| 20260905212603 | 20 | 0 | 3.2 | 0.0 | 0.00 | 0.00 | 0.00 | 50 | 1018.6 |
| 20260905212508 | 20 | 283 | 0.0 | 0.0 | 0.00 | 0.00 | 0.00 | 50 | 1018.9 |
| 20260905212503 | 20 | 0 | 3.2 | 0.0 | 0.00 | 0.00 | 0.00 | 50 | 1018.6 |
| 20260905212403 | 20 | 0 | 3.2 | 0.0 | 0.00 | 0.00 | 0.00 | 50 | 1018.6 |
| 20260905212306 | 20 | 0 | 3.2 | 0.0 | 0.00 | 0.00 | 0.00 | 49 | 1018.6 |
| 20260905212103 | 20 | 0 | 3.2 | 0.0 | 0.00 | 0.00 | 0.00 | 49 | 1018.6 |
| 20260905212006 | 20 | 283 | 0.0 | 0.0 | 0.00 | 0.00 | 0.00 | 49 | 1018.9 |
| 20260905212003 | 20 | 0 | 3.2 | 0.0 | 0.00 | 0.00 | 0.00 | 49 | 1018.6 |
| 20260905211903 | 20 | 0 | 3.2 | 0.0 | 0.00 | 0.00 | 0.00 | 49 | 1018.6 |
| 20260905211803 | 20 | 0 | 3.2 | 1.6 | 0.00 | 0.00 | 0.00 | 50 | 1018.6 |
| 20260905211703 | 21 | 283 | 3.2 | 3.2 | 0.00 | 0.00 | 0.00 | 49 | 1018.5 |
| 20260905211603 | 21 | 283 | 3.2 | 3.2 | 0.00 | 0.00 | 0.00 | 49 | 1018.5 |
| 20260905211522 | 20 | 283 | 0.0 | 3.2 | 0.00 | 0.00 | 0.00 | 49 | 1018.8 |
| 20260905211503 | 21 | 283 | 3.2 | 3.2 | 0.00 | 0.00 | 0.00 | 49 | 1018.5 |
| 20260905211403 | 21 | 283 | 3.2 | 3.2 | 0.00 | 0.00 | 0.00 | 49 | 1018.5 |
| 20260905211303 | 21 | 283 | 3.2 | 3.2 | 0.00 | 0.00 | 0.00 | 49 | 1018.5 |
| 20260905211203 | 20 | 283 | 3.2 | 3.2 | 0.00 | 0.00 | 0.00 | 49 | 1018.5 |
| 20260905211103 | 20 | 283 | 3.2 | 3.2 | 0.00 | 0.00 | 0.00 | 49 | 1018.5 |
| 20260905211008 | 20 | 283 | 0.0 | 3.2 | 0.00 | 0.00 | 0.00 | 49 | 1018.8 |
| 20260905211003 | 21 | 283 | 3.2 | 3.2 | 0.00 | 0.00 | 0.00 | 49 | 1018.6 |
| 20260905210703 | 21 | 283 | 3.2 | 3.2 | 0.00 | 0.00 | 0.00 | 49 | 1018.5 |
| 20260905210603 | 21 | 0 | 3.2 | 0.0 | 0.00 | 0.00 | 0.00 | 50 | 1018.4 |
| 20260905210512 | 20 | 184 | 0.0 | 0.0 | 0.00 | 0.00 | 0.00 | 49 | 1018.7 |
| 20260905210403 | 21 | 0 | 3.2 | 0.0 | 0.00 | 0.00 | 0.00 | 50 | 1018.4 |
| 20260905210303 | 21 | 0 | 3.2 | 0.0 | 0.00 | 0.00 | 0.00 | 49 | 1018.4 |
| 20260905210217 | 21 | 0 | 3.2 | 0.0 | 0.00 | 0.00 | 0.00 | 49 | 1018.4 |
| 20260905210103 | 21 | 0 | 3.2 | 0.0 | 0.00 | 0.00 | 0.00 | 48 | 1018.3 |
| 20260905210038 | 20 | 171 | 0.0 | 0.0 | 0.00 | 0.00 | 0.00 | 48 | 1018.6 |
| 20260905205903 | 21 | 0 | 3.2 | 0.0 | 0.00 | 0.00 | 0.00 | 48 | 1018.3 |
| 20260905205803 | 21 | 0 | 3.2 | 0.0 | 0.00 | 0.00 | 0.00 | 47 | 1018.3 |
| 20260905205603 | 21 | 0 | 3.2 | 0.0 | 0.00 | 0.00 | 0.00 | 47 | 1018.3 |
| 20260905205512 | 21 | 171 | 0.0 | 0.0 | 0.00 | 0.00 | 0.00 | 47 | 1018.6 |
| 20260905205503 | 21 | 0 | 3.2 | 0.0 | 0.00 | 0.00 | 0.00 | 48 | 1018.3 |
| 20260905205403 | 21 | 0 | 3.2 | 0.0 | 0.00 | 0.00 | 0.00 | 47 | 1018.3 |
| 20260905205306 | 21 | 0 | 3.2 | 0.0 | 0.00 | 0.00 | 0.00 | 47 | 1018.2 |
| 20260905205203 | 21 | 0 | 3.2 | 0.0 | 0.00 | 0.00 | 0.00 | 47 | 1018.2 |
| 20260905205103 | 21 | 0 | 3.2 | 0.0 | 0.00 | 0.00 | 0.00 | 47 | 1018.2 |
| 20260905205016 | 21 | 171 | 0.0 | 0.0 | 0.00 | 0.00 | 0.00 | 47 | 1018.4 |
| 20260905205003 | 21 | 0 | 3.2 | 0.0 | 0.00 | 0.00 | 0.00 | 46 | 1018.2 |
| 20260905204903 | 21 | 0 | 3.2 | 0.0 | 0.00 | 0.00 | 0.00 | 46 | 1018.3 |
| 20260905204803 | 21 | 0 | 3.2 | 0.0 | 0.00 | 0.00 | 0.00 | 46 | 1018.2 |
| 20260905204603 | 21 | 0 | 3.2 | 0.0 | 0.00 | 0.00 | 0.00 | 46 | 1018.3 |
| 20260905204506 | 21 | 171 | 0.0 | 0.0 | 0.00 | 0.00 | 0.00 | 46 | 1018.5 |
| 20260905204503 | 21 | 0 | 3.2 | 0.0 | 0.00 | 0.00 | 0.00 | 47 | 1018.3 |
| 20260905204403 | 21 | 0 | 3.2 | 0.0 | 0.00 | 0.00 | 0.00 | 46 | 1018.3 |
| 20260905204303 | 21 | 0 | 3.2 | 0.0 | 0.00 | 0.00 | 0.00 | 46 | 1018.3 |
| 20260905204103 | 21 | 0 | 3.2 | 0.0 | 0.00 | 0.00 | 0.00 | 46 | 1018.3 |
| 20260905204004 | 21 | 171 | 0.0 | 0.0 | 0.00 | 0.00 | 0.00 | 45 | 1018.6 |
| 20260905203903 | 21 | 0 | 3.2 | 0.0 | 0.00 | 0.00 | 0.00 | 45 | 1018.3 |
| 20260905203803 | 21 | 0 | 3.2 | 0.0 | 0.00 | 0.00 | 0.00 | 45 | 1018.3 |
| 20260905203703 | 21 | 0 | 3.2 | 0.0 | 0.00 | 0.00 | 0.00 | 45 | 1018.3 |
| 20260905203603 | 21 | 0 | 3.2 | 0.0 | 0.00 | 0.00 | 0.00 | 45 | 1018.3 |
| 20260905203506 | 21 | 171 | 0.0 | 0.0 | 0.00 | 0.00 | 0.00 | 44 | 1018.6 |
| 20260905203503 | 21 | 0 | 3.2 | 0.0 | 0.00 | 0.00 | 0.00 | 45 | 1018.3 |
| 20260905203403 | 22 | 0 | 3.2 | 0.0 | 0.00 | 0.00 | 0.00 | 45 | 1018.3 |
| 20260905203303 | 22 | 0 | 3.2 | 0.0 | 0.00 | 0.00 | 0.00 | 45 | 1018.3 |
| 20260905203203 | 22 | 0 | 3.2 | 0.0 | 0.00 | 0.00 | 0.00 | 45 | 1018.3 |
| 20260905203103 | 22 | 0 | 3.2 | 3.2 | 0.00 | 0.00 | 0.00 | 44 | 1018.2 |
| 20260905203016 | 21 | 171 | 0.0 | 3.2 | 0.00 | 0.00 | 0.00 | 44 | 1018.5 |
| 20260905203003 | 22 | 0 | 3.2 | 3.2 | 0.00 | 0.00 | 0.00 | 44 | 1018.3 |
| 20260905202903 | 22 | 191 | 3.2 | 3.2 | 0.00 | 0.00 | 0.00 | 44 | 1018.2 |
| 20260905202803 | 22 | 191 | 3.2 | 3.2 | 0.00 | 0.00 | 0.00 | 44 | 1018.2 |
| 20260905202703 | 22 | 191 | 3.2 | 3.2 | 0.00 | 0.00 | 0.00 | 44 | 1018.2 |
| 20260905202603 | 22 | 191 | 3.2 | 3.2 | 0.00 | 0.00 | 0.00 | 44 | 1018.2 |
| 20260905202508 | 21 | 171 | 0.0 | 3.2 | 0.00 | 0.00 | 0.00 | 44 | 1018.5 |
| 20260905202503 | 22 | 191 | 3.2 | 3.2 | 0.00 | 0.00 | 0.00 | 44 | 1018.2 |
| 20260905202403 | 22 | 191 | 3.2 | 3.2 | 0.00 | 0.00 | 0.00 | 44 | 1018.2 |
| 20260905202306 | 22 | 191 | 3.2 | 3.2 | 0.00 | 0.00 | 0.00 | 44 | 1018.2 |
| 20260905202203 | 22 | 191 | 3.2 | 3.2 | 0.00 | 0.00 | 0.00 | 44 | 1018.2 |
| 20260905202103 | 22 | 191 | 3.2 | 3.2 | 0.00 | 0.00 | 0.00 | 44 | 1018.2 |
| 20260905202008 | 21 | 191 | 0.0 | 3.2 | 0.00 | 0.00 | 0.00 | 43 | 1018.4 |
| 20260905202003 | 22 | 191 | 3.2 | 1.6 | 0.00 | 0.00 | 0.00 | 45 | 1018.3 |
| 20260905201903 | 22 | 0 | 3.2 | 0.0 | 0.00 | 0.00 | 0.00 | 44 | 1018.2 |
| 20260905201803 | 22 | 0 | 3.2 | 3.2 | 0.00 | 0.00 | 0.00 | 44 | 1018.2 |
| 20260905201703 | 22 | 194 | 3.2 | 3.2 | 0.00 | 0.00 | 0.00 | 44 | 1018.2 |
| 20260905201603 | 22 | 194 | 3.2 | 3.2 | 0.00 | 0.00 | 0.00 | 44 | 1018.2 |
| 20260905201523 | 21 | 194 | 0.0 | 3.2 | 0.00 | 0.00 | 0.00 | 44 | 1018.4 |
| 20260905201503 | 22 | 194 | 3.2 | 3.2 | 0.00 | 0.00 | 0.00 | 44 | 1018.2 |
| 20260905201403 | 22 | 194 | 3.2 | 3.2 | 0.00 | 0.00 | 0.00 | 44 | 1018.2 |
| 20260905201303 | 22 | 194 | 3.2 | 3.2 | 0.00 | 0.00 | 0.00 | 44 | 1018.1 |
| 20260905201203 | 22 | 194 | 3.2 | 3.2 | 0.00 | 0.00 | 0.00 | 44 | 1018.2 |
| 20260905201103 | 22 | 194 | 3.2 | 3.2 | 0.00 | 0.00 | 0.00 | 43 | 1018.2 |
| 20260905201010 | 21 | 194 | 0.0 | 3.2 | 0.00 | 0.00 | 0.00 | 43 | 1018.5 |
| 20260905201003 | 22 | 194 | 3.2 | 3.2 | 0.00 | 0.00 | 0.00 | 43 | 1018.2 |
| 20260905200917 | 22 | 194 | 3.2 | 3.2 | 0.00 | 0.00 | 0.00 | 43 | 1018.1 |
| 20260905200803 | 22 | 194 | 3.2 | 3.2 | 0.00 | 0.00 | 0.00 | 43 | 1018.1 |
| 20260905200509 | 21 | 173 | 0.0 | 0.0 | 0.00 | 0.00 | 0.00 | 42 | 1018.3 |
| 20260905200503 | 22 | 0 | 3.2 | 0.0 | 0.00 | 0.00 | 0.00 | 43 | 1018.1 |
| 20260905200403 | 22 | 0 | 3.2 | 0.0 | 0.00 | 0.00 | 0.00 | 44 | 1018.1 |
| 20260905200303 | 22 | 0 | 3.2 | 0.0 | 0.00 | 0.00 | 0.00 | 44 | 1018.1 |
| 20260905200203 | 22 | 0 | 3.2 | 0.0 | 0.00 | 0.00 | 0.00 | 44 | 1018.1 |
| 20260905200037 | 22 | 173 | 0.0 | 0.0 | 0.00 | 0.00 | 0.00 | 43 | 1018.3 |
| 20260905195903 | 22 | 0 | 3.2 | 0.0 | 0.00 | 0.00 | 0.00 | 43 | 1018.1 |
| 20260905195803 | 22 | 0 | 3.2 | 0.0 | 0.00 | 0.00 | 0.00 | 43 | 1018.1 |
| 20260905195703 | 22 | 0 | 3.2 | 0.0 | 0.00 | 0.00 | 0.00 | 43 | 1018.1 |
| 20260905195603 | 22 | 0 | 3.2 | 0.0 | 0.00 | 0.00 | 0.00 | 43 | 1018.2 |
| 20260905195513 | 22 | 174 | 0.0 | 0.0 | 0.00 | 0.00 | 0.00 | 43 | 1018.4 |
| 20260905195503 | 22 | 0 | 3.2 | 0.0 | 0.00 | 0.00 | 0.00 | 44 | 1018.2 |
| 20260905195403 | 22 | 0 | 3.2 | 0.0 | 0.00 | 0.00 | 0.00 | 44 | 1018.2 |
| 20260905195203 | 22 | 0 | 3.2 | 0.0 | 0.00 | 0.00 | 0.00 | 44 | 1018.1 |
| 20260905195103 | 22 | 0 | 3.2 | 0.0 | 0.00 | 0.00 | 0.00 | 44 | 1018.1 |
| 20260905195014 | 22 | 174 | 0.0 | 0.0 | 0.00 | 0.00 | 0.00 | 43 | 1018.4 |
| 20260905194903 | 22 | 0 | 3.2 | 3.2 | 0.00 | 0.00 | 0.00 | 42 | 1018.2 |
| 20260905194803 | 22 | 0 | 3.2 | 3.2 | 0.00 | 0.00 | 0.00 | 43 | 1018.1 |
| 20260905194703 | 22 | 0 | 3.2 | 3.2 | 0.00 | 0.00 | 0.00 | 43 | 1018.1 |
| 20260905194603 | 22 | 0 | 3.2 | 3.2 | 0.00 | 0.00 | 0.00 | 44 | 1018.1 |
| 20260905194527 | 22 | 108 | 0.0 | 3.2 | 0.00 | 0.00 | 0.00 | 44 | 1018.4 |
| 20260905194503 | 22 | 0 | 3.2 | 3.2 | 0.00 | 0.00 | 0.00 | 44 | 1018.1 |
| 20260905194303 | 22 | 0 | 3.2 | 3.2 | 0.00 | 0.00 | 0.00 | 43 | 1018.1 |
| 20260905194203 | 22 | 0 | 3.2 | 3.2 | 0.00 | 0.00 | 0.00 | 43 | 1018.2 |
| 20260905194103 | 22 | 0 | 3.2 | 3.2 | 0.00 | 0.00 | 0.00 | 43 | 1018.1 |
| 20260905194014 | 22 | 107 | 0.0 | 3.2 | 0.00 | 0.00 | 0.00 | 42 | 1018.4 |
| 20260905194003 | 22 | 0 | 3.2 | 3.2 | 0.00 | 0.00 | 0.00 | 42 | 1018.1 |
| 20260905193903 | 23 | 0 | 3.2 | 0.0 | 0.00 | 0.00 | 0.00 | 43 | 1018.1 |
| 20260905193803 | 23 | 0 | 3.2 | 0.0 | 0.00 | 0.00 | 0.00 | 44 | 1018.1 |
| 20260905193703 | 23 | 0 | 3.2 | 0.0 | 0.00 | 0.00 | 0.00 | 44 | 1018.1 |
| 20260905193617 | 23 | 0 | 3.2 | 0.0 | 0.00 | 0.00 | 0.00 | 43 | 1018.1 |
| 20260905193503 | 23 | 0 | 3.2 | 0.0 | 0.00 | 0.00 | 0.00 | 43 | 1018.1 |
| 20260905193418 | 23 | 0 | 3.2 | 0.0 | 0.00 | 0.00 | 0.00 | 42 | 1018.1 |
| 20260905193103 | 23 | 0 | 3.2 | 0.0 | 0.00 | 0.00 | 0.00 | 44 | 1018.2 |
| 20260905193017 | 23 | 108 | 0.0 | 0.0 | 0.00 | 0.00 | 0.00 | 44 | 1018.4 |
| 20260905193003 | 23 | 0 | 3.2 | 0.0 | 0.00 | 0.00 | 0.00 | 43 | 1018.2 |
| 20260905192903 | 23 | 0 | 3.2 | 0.0 | 0.00 | 0.00 | 0.00 | 43 | 1018.2 |
| 20260905192803 | 23 | 0 | 3.2 | 0.0 | 0.00 | 0.00 | 0.00 | 44 | 1018.1 |
| 20260905192703 | 23 | 0 | 3.2 | 0.0 | 0.00 | 0.00 | 0.00 | 43 | 1018.1 |
| 20260905192603 | 23 | 0 | 3.2 | 0.0 | 0.00 | 0.00 | 0.00 | 40 | 1018.1 |
| 20260905192504 | 23 | 107 | 0.0 | 0.0 | 0.00 | 0.00 | 0.00 | 40 | 1018.4 |
| 20260905192403 | 23 | 0 | 3.2 | 0.0 | 0.00 | 0.00 | 0.00 | 40 | 1018.0 |
| 20260905192306 | 23 | 0 | 3.2 | 0.0 | 0.00 | 0.00 | 0.00 | 42 | 1018.1 |
| 20260905192203 | 23 | 0 | 3.2 | 0.0 | 0.00 | 0.00 | 0.00 | 42 | 1018.1 |
| 20260905192103 | 23 | 0 | 3.2 | 0.0 | 0.00 | 0.00 | 0.00 | 42 | 1018.0 |
| 20260905192004 | 23 | 107 | 0.0 | 0.0 | 0.00 | 0.00 | 0.00 | 41 | 1018.3 |
| 20260905191903 | 23 | 0 | 3.2 | 0.0 | 0.00 | 0.00 | 0.00 | 41 | 1018.0 |
| 20260905191803 | 23 | 0 | 3.2 | 0.0 | 0.00 | 0.00 | 0.00 | 41 | 1018.0 |
| 20260905191703 | 23 | 0 | 3.2 | 0.0 | 0.00 | 0.00 | 0.00 | 41 | 1018.0 |
| 20260905191603 | 23 | 0 | 3.2 | 0.0 | 0.00 | 0.00 | 0.00 | 41 | 1018.0 |
| 20260905191520 | 23 | 107 | 0.0 | 0.0 | 0.00 | 0.00 | 0.00 | 40 | 1018.2 |
| 20260905191503 | 23 | 0 | 3.2 | 0.0 | 0.00 | 0.00 | 0.00 | 41 | 1018.0 |
| 20260905191403 | 23 | 0 | 3.2 | 0.0 | 0.00 | 0.00 | 0.00 | 40 | 1017.9 |
| 20260905191217 | 23 | 0 | 3.2 | 0.0 | 0.00 | 0.00 | 0.00 | 40 | 1017.9 |
| 20260905191103 | 23 | 0 | 3.2 | 0.0 | 0.00 | 0.00 | 0.00 | 40 | 1017.9 |
| 20260905191008 | 23 | 107 | 0.0 | 0.0 | 0.00 | 0.00 | 0.00 | 40 | 1018.2 |
| 20260905190903 | 23 | 108 | 3.2 | 0.0 | 0.00 | 0.00 | 0.00 | 40 | 1017.9 |
| 20260905190803 | 23 | 108 | 3.2 | 0.0 | 0.00 | 0.00 | 0.00 | 40 | 1017.9 |
| 20260905190703 | 23 | 108 | 3.2 | 3.2 | 0.00 | 0.00 | 0.00 | 40 | 1017.9 |
| 20260905190603 | 23 | 108 | 3.2 | 3.2 | 0.00 | 0.00 | 0.00 | 40 | 1017.8 |
| 20260905190510 | 23 | 108 | 0.0 | 3.2 | 0.00 | 0.00 | 0.00 | 40 | 1018.1 |
| 20260905190503 | 23 | 108 | 3.2 | 3.2 | 0.00 | 0.00 | 0.00 | 41 | 1017.8 |
| 20260905190303 | 23 | 108 | 3.2 | 3.2 | 0.00 | 0.00 | 0.00 | 41 | 1017.8 |
| 20260905190203 | 23 | 108 | 3.2 | 3.2 | 0.00 | 0.00 | 0.00 | 41 | 1017.7 |
| 20260905190103 | 23 | 108 | 3.2 | 3.2 | 0.00 | 0.00 | 0.00 | 41 | 1017.8 |
| 20260905190026 | 23 | 108 | 0.0 | 3.2 | 0.00 | 0.00 | 0.00 | 40 | 1018.1 |
| 20260905190003 | 23 | 108 | 3.2 | 3.2 | 0.00 | 0.00 | 0.00 | 40 | 1017.8 |
| 20260905185903 | 23 | 108 | 3.2 | 3.2 | 0.00 | 0.00 | 0.00 | 41 | 1017.8 |
| 20260905185803 | 23 | 108 | 3.2 | 3.2 | 0.00 | 0.00 | 0.00 | 41 | 1017.8 |
| 20260905185703 | 23 | 108 | 3.2 | 3.2 | 0.00 | 0.00 | 0.00 | 41 | 1017.9 |
| 20260905185603 | 23 | 0 | 3.2 | 0.0 | 0.00 | 0.00 | 0.00 | 41 | 1017.9 |
| 20260905185511 | 23 | 108 | 0.0 | 0.0 | 0.00 | 0.00 | 0.00 | 41 | 1018.2 |
| 20260905185503 | 23 | 0 | 3.2 | 0.0 | 0.00 | 0.00 | 0.00 | 41 | 1017.8 |
| 20260905185305 | 23 | 0 | 3.2 | 0.0 | 0.00 | 0.00 | 0.00 | 41 | 1017.9 |
| 20260905185203 | 24 | 0 | 3.2 | 0.0 | 0.00 | 0.00 | 0.00 | 42 | 1017.9 |
| 20260905185012 | 23 | 108 | 0.0 | 0.0 | 0.00 | 0.00 | 0.00 | 40 | 1018.2 |
| 20260905185003 | 24 | 0 | 3.2 | 0.0 | 0.00 | 0.00 | 0.00 | 40 | 1017.9 |
| 20260905184903 | 24 | 0 | 3.2 | 0.0 | 0.00 | 0.00 | 0.00 | 40 | 1017.9 |
| 20260905184803 | 24 | 0 | 3.2 | 0.0 | 0.00 | 0.00 | 0.00 | 40 | 1017.9 |
| 20260905184603 | 24 | 108 | 3.2 | 0.0 | 0.00 | 0.00 | 0.00 | 40 | 1017.9 |
| 20260905184534 | 23 | 108 | 0.0 | 3.2 | 0.00 | 0.00 | 0.00 | 39 | 1018.2 |
| 20260905184503 | 24 | 108 | 3.2 | 0.0 | 0.00 | 0.00 | 0.00 | 40 | 1017.9 |
| 20260905184403 | 24 | 108 | 3.2 | 3.2 | 0.00 | 0.00 | 0.00 | 40 | 1017.9 |
| 20260905184303 | 24 | 108 | 3.2 | 3.2 | 0.00 | 0.00 | 0.00 | 40 | 1017.9 |
| 20260905184203 | 24 | 108 | 3.2 | 3.2 | 0.00 | 0.00 | 0.00 | 40 | 1017.9 |
| 20260905184103 | 24 | 108 | 3.2 | 3.2 | 0.00 | 0.00 | 0.00 | 40 | 1017.9 |
| 20260905184011 | 23 | 108 | 0.0 | 3.2 | 0.00 | 0.00 | 0.00 | 39 | 1018.2 |
| 20260905184003 | 24 | 108 | 3.2 | 3.2 | 0.00 | 0.00 | 0.00 | 40 | 1017.9 |
| 20260905183903 | 24 | 108 | 3.2 | 3.2 | 0.00 | 0.00 | 0.00 | 40 | 1017.9 |
| 20260905183803 | 24 | 108 | 3.2 | 3.2 | 0.00 | 0.00 | 0.00 | 39 | 1017.8 |
| 20260905183703 | 24 | 107 | 3.2 | 3.2 | 0.00 | 0.00 | 0.00 | 39 | 1017.9 |
| 20260905183513 | 23 | 108 | 0.0 | 3.2 | 0.00 | 0.00 | 0.00 | 39 | 1018.1 |
| 20260905183503 | 24 | 107 | 3.2 | 3.2 | 0.00 | 0.00 | 0.00 | 39 | 1017.8 |
| 20260905183403 | 24 | 107 | 3.2 | 3.2 | 0.00 | 0.00 | 0.00 | 39 | 1017.8 |
| 20260905183303 | 24 | 0 | 3.2 | 0.0 | 0.00 | 0.00 | 0.00 | 39 | 1017.8 |
| 20260905183203 | 24 | 0 | 3.2 | 0.0 | 0.00 | 0.00 | 0.00 | 40 | 1017.8 |
| 20260905183103 | 24 | 0 | 3.2 | 0.0 | 0.00 | 0.00 | 0.00 | 39 | 1017.8 |
| 20260905183038 | 23 | 106 | 0.0 | 0.0 | 0.00 | 0.00 | 0.00 | 38 | 1018.1 |
| 20260905183003 | 24 | 0 | 3.2 | 0.0 | 0.00 | 0.00 | 0.00 | 39 | 1017.8 |
| 20260905182903 | 24 | 0 | 3.2 | 0.0 | 0.00 | 0.00 | 0.00 | 39 | 1017.8 |
| 20260905182803 | 24 | 0 | 3.2 | 0.0 | 0.00 | 0.00 | 0.00 | 39 | 1017.7 |
| 20260905182703 | 24 | 0 | 3.2 | 0.0 | 0.00 | 0.00 | 0.00 | 39 | 1017.7 |
| 20260905182503 | 24 | 0 | 3.2 | 0.0 | 0.00 | 0.00 | 0.00 | 39 | 1017.7 |
| 20260905182403 | 24 | 0 | 3.2 | 0.0 | 0.00 | 0.00 | 0.00 | 39 | 1017.7 |
| 20260905182305 | 24 | 0 | 3.2 | 0.0 | 0.00 | 0.00 | 0.00 | 39 | 1017.7 |
| 20260905182203 | 24 | 0 | 3.2 | 0.0 | 0.00 | 0.00 | 0.00 | 38 | 1017.7 |
| 20260905182103 | 24 | 0 | 3.2 | 0.0 | 0.00 | 0.00 | 0.00 | 38 | 1017.7 |
| 20260905182006 | 24 | 106 | 0.0 | 0.0 | 0.00 | 0.00 | 0.00 | 38 | 1018.0 |
| 20260905182003 | 24 | 0 | 3.2 | 0.0 | 0.00 | 0.00 | 0.00 | 39 | 1017.7 |
| 20260905181903 | 24 | 0 | 3.2 | 0.0 | 0.00 | 0.00 | 0.00 | 39 | 1017.6 |
| 20260905181803 | 24 | 0 | 3.2 | 0.0 | 0.00 | 0.00 | 0.00 | 39 | 1017.6 |
| 20260905181703 | 24 | 0 | 3.2 | 0.0 | 0.00 | 0.00 | 0.00 | 39 | 1017.6 |
| 20260905181603 | 24 | 0 | 3.2 | 0.0 | 0.00 | 0.00 | 0.00 | 39 | 1017.5 |
| 20260905181512 | 24 | 106 | 0.0 | 0.0 | 0.00 | 0.00 | 0.00 | 38 | 1017.8 |
| 20260905181503 | 24 | 0 | 3.2 | 0.0 | 0.00 | 0.00 | 0.00 | 39 | 1017.5 |
| 20260905181403 | 25 | 0 | 3.2 | 0.0 | 0.00 | 0.00 | 0.00 | 39 | 1017.5 |
| 20260905181303 | 25 | 0 | 3.2 | 0.0 | 0.00 | 0.00 | 0.00 | 39 | 1017.5 |
| 20260905181203 | 25 | 0 | 3.2 | 0.0 | 0.00 | 0.00 | 0.00 | 39 | 1017.4 |
| 20260905181008 | 24 | 106 | 0.0 | 0.0 | 0.00 | 0.00 | 0.00 | 38 | 1017.7 |
| 20260905180903 | 25 | 0 | 3.2 | 0.0 | 0.00 | 0.00 | 0.00 | 38 | 1017.4 |
| 20260905180803 | 25 | 0 | 3.2 | 0.0 | 0.00 | 0.00 | 0.00 | 38 | 1017.4 |
| 20260905180703 | 25 | 0 | 3.2 | 0.0 | 0.00 | 0.00 | 0.00 | 38 | 1017.3 |
| 20260905180506 | 24 | 106 | 0.0 | 0.0 | 0.00 | 0.00 | 0.00 | 38 | 1017.6 |
| 20260905180503 | 25 | 0 | 3.2 | 0.0 | 0.00 | 0.00 | 0.00 | 38 | 1017.4 |
| 20260905180403 | 25 | 0 | 3.2 | 0.0 | 0.00 | 0.00 | 0.00 | 38 | 1017.4 |
| 20260905180303 | 25 | 0 | 3.2 | 0.0 | 0.00 | 0.00 | 0.00 | 38 | 1017.4 |
| 20260905180203 | 25 | 0 | 3.2 | 0.0 | 0.00 | 0.00 | 0.00 | 38 | 1017.3 |
| 20260905180103 | 25 | 0 | 3.2 | 0.0 | 0.00 | 0.00 | 0.00 | 38 | 1017.3 |
| 20260905180019 | 25 | 106 | 0.0 | 0.0 | 0.00 | 0.00 | 0.00 | 38 | 1017.6 |
| 20260905180003 | 25 | 0 | 3.2 | 0.0 | 0.00 | 0.00 | 0.00 | 38 | 1017.2 |
| 20260905175903 | 25 | 0 | 3.2 | 0.0 | 0.00 | 0.00 | 0.00 | 38 | 1017.3 |
| 20260905175803 | 25 | 0 | 3.2 | 0.0 | 0.00 | 0.00 | 0.00 | 38 | 1017.2 |
| 20260905175703 | 25 | 0 | 3.2 | 0.0 | 0.00 | 0.00 | 0.00 | 38 | 1017.2 |
| 20260905175603 | 25 | 0 | 3.2 | 0.0 | 0.00 | 0.00 | 0.00 | 38 | 1017.2 |
| 20260905175512 | 25 | 106 | 0.0 | 0.0 | 0.00 | 0.00 | 0.00 | 38 | 1017.5 |
| 20260905175503 | 25 | 0 | 3.2 | 0.0 | 0.00 | 0.00 | 0.00 | 38 | 1017.2 |
| 20260905175403 | 25 | 0 | 3.2 | 0.0 | 0.00 | 0.00 | 0.00 | 38 | 1017.2 |
| 20260905175306 | 25 | 0 | 3.2 | 0.0 | 0.00 | 0.00 | 0.00 | 37 | 1017.2 |
| 20260905175203 | 25 | 0 | 3.2 | 0.0 | 0.00 | 0.00 | 0.00 | 37 | 1017.2 |
| 20260905175117 | 25 | 0 | 3.2 | 0.0 | 0.00 | 0.00 | 0.00 | 37 | 1017.2 |
| 20260905175011 | 25 | 106 | 0.0 | 0.0 | 0.00 | 0.00 | 0.00 | 37 | 1017.5 |
| 20260905175003 | 25 | 0 | 3.2 | 0.0 | 0.00 | 0.00 | 0.00 | 36 | 1017.2 |
| 20260905174803 | 25 | 0 | 3.2 | 0.0 | 0.00 | 0.00 | 0.00 | 37 | 1017.2 |
| 20260905174703 | 25 | 0 | 3.2 | 0.0 | 0.00 | 0.00 | 0.00 | 37 | 1017.2 |
| 20260905174603 | 25 | 0 | 3.2 | 0.0 | 0.00 | 0.00 | 0.00 | 36 | 1017.2 |
| 20260905174526 | 25 | 106 | 0.0 | 0.0 | 0.00 | 0.00 | 0.00 | 36 | 1017.5 |
| 20260905174503 | 25 | 0 | 3.2 | 0.0 | 0.00 | 0.00 | 0.00 | 36 | 1017.1 |
| 20260905174403 | 25 | 0 | 3.2 | 0.0 | 0.00 | 0.00 | 0.00 | 36 | 1017.1 |
| 20260905174303 | 25 | 0 | 3.2 | 0.0 | 0.00 | 0.00 | 0.00 | 36 | 1017.1 |
| 20260905174203 | 26 | 0 | 3.2 | 0.0 | 0.00 | 0.00 | 0.00 | 36 | 1017.1 |
| 20260905174103 | 26 | 0 | 3.2 | 0.0 | 0.00 | 0.00 | 0.00 | 36 | 1017.1 |
| 20260905174013 | 25 | 106 | 0.0 | 0.0 | 0.00 | 0.00 | 0.00 | 35 | 1017.4 |
| 20260905173903 | 26 | 0 | 3.2 | 0.0 | 0.00 | 0.00 | 0.00 | 36 | 1017.1 |
| 20260905173803 | 26 | 0 | 3.2 | 0.0 | 0.00 | 0.00 | 0.00 | 36 | 1017.1 |
| 20260905173603 | 26 | 0 | 3.2 | 0.0 | 0.00 | 0.00 | 0.00 | 36 | 1017.0 |
| 20260905173514 | 26 | 106 | 0.0 | 0.0 | 0.00 | 0.00 | 0.00 | 35 | 1017.3 |
| 20260905173503 | 26 | 0 | 3.2 | 0.0 | 0.00 | 0.00 | 0.00 | 36 | 1017.0 |
| 20260905173403 | 26 | 0 | 3.2 | 0.0 | 0.00 | 0.00 | 0.00 | 35 | 1017.0 |
| 20260905173203 | 26 | 0 | 3.2 | 0.0 | 0.00 | 0.00 | 0.00 | 35 | 1017.0 |
| 20260905173103 | 26 | 0 | 3.2 | 0.0 | 0.00 | 0.00 | 0.00 | 35 | 1017.0 |
| 20260905173041 | 26 | 106 | 0.0 | 0.0 | 0.00 | 0.00 | 0.00 | 35 | 1017.2 |
| 20260905173003 | 26 | 0 | 3.2 | 0.0 | 0.00 | 0.00 | 0.00 | 35 | 1017.0 |
| 20260905172903 | 26 | 0 | 3.2 | 0.0 | 0.00 | 0.00 | 0.00 | 35 | 1017.0 |
| 20260905172803 | 26 | 0 | 3.2 | 0.0 | 0.00 | 0.00 | 0.00 | 35 | 1016.9 |
| 20260905172703 | 26 | 0 | 3.2 | 0.0 | 0.00 | 0.00 | 0.00 | 35 | 1017.0 |
| 20260905172603 | 26 | 0 | 3.2 | 1.6 | 0.00 | 0.00 | 0.00 | 35 | 1017.0 |
| 20260905172516 | 26 | 106 | 0.0 | 0.0 | 0.00 | 0.00 | 0.00 | 34 | 1017.2 |
| 20260905172503 | 26 | 0 | 3.2 | 1.6 | 0.00 | 0.00 | 0.00 | 34 | 1016.9 |
| 20260905172305 | 26 | 0 | 3.2 | 1.6 | 0.00 | 0.00 | 0.00 | 34 | 1016.9 |
| 20260905172203 | 26 | 0 | 3.2 | 1.6 | 0.00 | 0.00 | 0.00 | 34 | 1016.9 |
| 20260905172103 | 27 | 0 | 3.2 | 1.6 | 0.00 | 0.00 | 0.00 | 34 | 1016.9 |
| 20260905172014 | 26 | 105 | 0.0 | 1.6 | 0.00 | 0.00 | 0.00 | 34 | 1017.2 |
| 20260905172003 | 27 | 0 | 3.2 | 1.6 | 0.00 | 0.00 | 0.00 | 34 | 1016.9 |
| 20260905171903 | 27 | 0 | 3.2 | 1.6 | 0.00 | 0.00 | 0.00 | 34 | 1016.9 |
| 20260905171803 | 27 | 0 | 3.2 | 1.6 | 0.00 | 0.00 | 0.00 | 34 | 1016.9 |
| 20260905171603 | 27 | 75 | 3.2 | 1.6 | 0.00 | 0.00 | 0.00 | 33 | 1016.9 |
| 20260905171508 | 27 | 105 | 0.0 | 1.6 | 0.00 | 0.00 | 0.00 | 33 | 1017.1 |
| 20260905171503 | 27 | 75 | 3.2 | 0.0 | 0.00 | 0.00 | 0.00 | 33 | 1016.9 |
| 20260905171417 | 27 | 75 | 3.2 | 0.0 | 0.00 | 0.00 | 0.00 | 33 | 1016.9 |
| 20260905171303 | 27 | 112 | 3.2 | 3.2 | 0.00 | 0.00 | 0.00 | 33 | 1016.9 |
| 20260905171117 | 27 | 112 | 3.2 | 3.2 | 0.00 | 0.00 | 0.00 | 33 | 1016.9 |
| 20260905171005 | 27 | 88 | 0.0 | 3.2 | 0.00 | 0.00 | 0.00 | 32 | 1017.1 |
| 20260905171003 | 27 | 150 | 3.2 | 3.2 | 0.00 | 0.00 | 0.00 | 32 | 1016.9 |
| 20260905170918 | 27 | 152 | 3.2 | 3.2 | 0.00 | 0.00 | 0.00 | 32 | 1016.9 |
| 20260905170803 | 27 | 152 | 3.2 | 3.2 | 0.00 | 0.00 | 0.00 | 32 | 1016.8 |
| 20260905170603 | 27 | 160 | 3.2 | 3.2 | 0.00 | 0.00 | 0.00 | 32 | 1016.8 |
| 20260905170506 | 27 | 147 | 0.0 | 3.2 | 0.00 | 0.00 | 0.00 | 32 | 1017.1 |
| 20260905170503 | 27 | 170 | 3.2 | 3.2 | 0.00 | 0.00 | 0.00 | 32 | 1016.8 |
| 20260905170403 | 27 | 170 | 3.2 | 3.2 | 0.00 | 0.00 | 0.00 | 32 | 1016.8 |
| 20260905170303 | 27 | 185 | 3.2 | 3.2 | 0.00 | 0.00 | 0.00 | 32 | 1016.8 |
| 20260905170203 | 27 | 192 | 3.2 | 3.2 | 0.00 | 0.00 | 0.00 | 32 | 1016.8 |
| 20260905170014 | 27 | 190 | 0.0 | 3.2 | 0.00 | 0.00 | 0.00 | 31 | 1017.1 |
| 20260905170003 | 28 | 152 | 3.2 | 3.2 | 0.00 | 0.00 | 0.00 | 32 | 1016.7 |
| 20260905165903 | 28 | 143 | 3.2 | 3.2 | 0.00 | 0.00 | 0.00 | 32 | 1016.8 |
| 20260905165803 | 28 | 141 | 3.2 | 3.2 | 0.00 | 0.00 | 0.00 | 32 | 1016.7 |
| 20260905165703 | 28 | 141 | 3.2 | 3.2 | 0.00 | 0.00 | 0.00 | 31 | 1016.8 |
| 20260905165506 | 28 | 242 | 0.0 | 3.2 | 0.00 | 0.00 | 0.00 | 31 | 1017.1 |
| 20260905165503 | 28 | 129 | 3.2 | 3.2 | 0.00 | 0.00 | 0.00 | 31 | 1016.8 |
| 20260905165403 | 28 | 129 | 3.2 | 3.2 | 0.00 | 0.00 | 0.00 | 31 | 1016.7 |
| 20260905165203 | 28 | 99 | 3.2 | 3.2 | 0.00 | 0.00 | 0.00 | 31 | 1016.8 |
| 20260905165103 | 28 | 107 | 3.2 | 1.6 | 0.00 | 0.00 | 0.00 | 31 | 1016.7 |
| 20260905165013 | 28 | 107 | 0.0 | 1.6 | 0.00 | 0.00 | 0.00 | 31 | 1017.0 |
| 20260905165003 | 28 | 107 | 3.2 | 1.6 | 0.00 | 0.00 | 0.00 | 31 | 1016.7 |
| 20260905164903 | 28 | 0 | 3.2 | 1.6 | 0.00 | 0.00 | 0.00 | 31 | 1016.8 |
| 20260905164803 | 28 | 0 | 3.2 | 1.6 | 0.00 | 0.00 | 0.00 | 31 | 1016.7 |
| 20260905164703 | 28 | 0 | 3.2 | 0.0 | 0.00 | 0.00 | 0.00 | 31 | 1016.8 |
| 20260905164603 | 29 | 0 | 3.2 | 0.0 | 0.00 | 0.00 | 0.00 | 31 | 1016.8 |
| 20260905164522 | 28 | 108 | 0.0 | 3.2 | 0.00 | 0.00 | 0.00 | 30 | 1017.1 |
| 20260905164503 | 29 | 0 | 3.2 | 3.2 | 0.00 | 0.00 | 0.00 | 30 | 1016.7 |
| 20260905164403 | 29 | 117 | 3.2 | 3.2 | 0.00 | 0.00 | 0.00 | 30 | 1016.8 |
| 20260905164303 | 29 | 117 | 3.2 | 3.2 | 0.00 | 0.00 | 0.00 | 30 | 1016.7 |
| 20260905164203 | 29 | 117 | 3.2 | 3.2 | 0.00 | 0.00 | 0.00 | 30 | 1016.8 |
| 20260905164103 | 29 | 117 | 3.2 | 3.2 | 0.00 | 0.00 | 0.00 | 30 | 1016.7 |
| 20260905164011 | 29 | 117 | 0.0 | 3.2 | 0.00 | 0.00 | 0.00 | 30 | 1017.0 |
| 20260905163903 | 30 | 117 | 3.2 | 3.2 | 0.00 | 0.00 | 0.00 | 30 | 1016.7 |
| 20260905163803 | 30 | 117 | 3.2 | 3.2 | 0.00 | 0.00 | 0.00 | 30 | 1016.7 |
| 20260905163703 | 30 | 117 | 3.2 | 3.2 | 0.00 | 0.00 | 0.00 | 30 | 1016.7 |
| 20260905163603 | 30 | 117 | 3.2 | 3.2 | 0.00 | 0.00 | 0.00 | 30 | 1016.7 |
| 20260905163513 | 29 | 109 | 0.0 | 3.2 | 0.00 | 0.00 | 0.00 | 29 | 1017.0 |
| 20260905163503 | 30 | 117 | 3.2 | 3.2 | 0.00 | 0.00 | 0.00 | 30 | 1016.7 |
| 20260905163403 | 30 | 117 | 3.2 | 3.2 | 0.00 | 0.00 | 0.00 | 30 | 1016.6 |
| 20260905163303 | 30 | 0 | 3.2 | 3.2 | 0.00 | 0.00 | 0.00 | 30 | 1016.6 |
| 20260905163203 | 30 | 129 | 3.2 | 3.2 | 0.00 | 0.00 | 0.00 | 30 | 1016.6 |
| 20260905163103 | 30 | 129 | 3.2 | 3.2 | 0.00 | 0.00 | 0.00 | 30 | 1016.7 |
| 20260905163029 | 30 | 132 | 0.0 | 3.2 | 0.00 | 0.00 | 0.00 | 29 | 1017.0 |
| 20260905163003 | 30 | 129 | 3.2 | 3.2 | 0.00 | 0.00 | 0.00 | 29 | 1016.7 |
| 20260905162903 | 30 | 129 | 3.2 | 3.2 | 0.00 | 0.00 | 0.00 | 29 | 1016.6 |
| 20260905162803 | 30 | 129 | 3.2 | 3.2 | 0.00 | 0.00 | 0.00 | 29 | 1016.7 |
| 20260905162703 | 30 | 129 | 3.2 | 3.2 | 0.00 | 0.00 | 0.00 | 29 | 1016.7 |
| 20260905162603 | 30 | 129 | 3.2 | 3.2 | 0.00 | 0.00 | 0.00 | 29 | 1016.7 |
| 20260905162514 | 30 | 139 | 0.0 | 3.2 | 0.00 | 0.00 | 0.00 | 28 | 1017.0 |
| 20260905162503 | 31 | 129 | 3.2 | 3.2 | 0.00 | 0.00 | 0.00 | 29 | 1016.7 |
| 20260905162403 | 31 | 129 | 3.2 | 3.2 | 0.00 | 0.00 | 0.00 | 28 | 1016.7 |
| 20260905162203 | 31 | 181 | 3.2 | 3.2 | 0.00 | 0.00 | 0.00 | 27 | 1016.7 |
| 20260905162103 | 31 | 162 | 3.2 | 3.2 | 0.00 | 0.00 | 0.00 | 27 | 1016.7 |
| 20260905162015 | 30 | 153 | 0.0 | 3.2 | 0.00 | 0.00 | 0.00 | 26 | 1017.0 |
| 20260905161903 | 31 | 162 | 3.2 | 3.2 | 0.00 | 0.00 | 0.00 | 26 | 1016.7 |
| 20260905161803 | 31 | 162 | 3.2 | 3.2 | 0.00 | 0.00 | 0.00 | 26 | 1016.7 |
| 20260905161703 | 31 | 162 | 3.2 | 3.2 | 0.00 | 0.00 | 0.00 | 26 | 1016.7 |
| 20260905161603 | 31 | 162 | 3.2 | 3.2 | 0.00 | 0.00 | 0.00 | 26 | 1016.7 |
| 20260905161531 | 31 | 177 | 0.0 | 3.2 | 0.00 | 0.00 | 0.00 | 25 | 1017.0 |
| 20260905161503 | 31 | 162 | 3.2 | 3.2 | 0.00 | 0.00 | 0.00 | 26 | 1016.7 |
| 20260905161403 | 31 | 162 | 3.2 | 3.2 | 0.00 | 0.00 | 0.00 | 26 | 1016.6 |
| 20260905161303 | 31 | 158 | 3.2 | 3.2 | 0.00 | 0.00 | 0.00 | 25 | 1016.7 |
| 20260905161103 | 31 | 157 | 3.2 | 1.6 | 0.00 | 0.00 | 0.00 | 25 | 1016.7 |
| 20260905161018 | 31 | 149 | 0.0 | 4.8 | 0.00 | 0.00 | 0.00 | 25 | 1017.0 |
| 20260905161003 | 31 | 150 | 3.2 | 4.8 | 0.00 | 0.00 | 0.00 | 25 | 1016.6 |
| 20260905160803 | 31 | 144 | 3.2 | 4.8 | 0.00 | 0.00 | 0.00 | 25 | 1016.7 |
| 20260905160703 | 31 | 144 | 3.2 | 4.8 | 0.00 | 0.00 | 0.00 | 25 | 1016.7 |
| 20260905160603 | 31 | 144 | 3.2 | 4.8 | 0.00 | 0.00 | 0.00 | 25 | 1016.7 |
| 20260905160518 | 31 | 152 | 3.2 | 4.8 | 0.00 | 0.00 | 0.00 | 25 | 1016.6 |
| 20260905160505 | 31 | 149 | 0.0 | 4.8 | 0.00 | 0.00 | 0.00 | 24 | 1017.0 |
| 20260905160203 | 31 | 136 | 3.2 | 4.8 | 0.00 | 0.00 | 0.00 | 24 | 1016.6 |
| 20260905160012 | 31 | 132 | 0.0 | 4.8 | 0.00 | 0.00 | 0.00 | 24 | 1016.9 |
| 20260905155903 | 31 | 42 | 3.2 | 3.2 | 0.00 | 0.00 | 0.00 | 24 | 1016.7 |
| 20260905155803 | 31 | 73 | 3.2 | 3.2 | 0.00 | 0.00 | 0.00 | 24 | 1016.7 |
| 20260905155604 | 31 | 73 | 3.2 | 3.2 | 0.00 | 0.00 | 0.00 | 24 | 1016.7 |
| 20260905155507 | 31 | 271 | 0.0 | 3.2 | 0.00 | 0.00 | 0.00 | 24 | 1017.0 |
| 20260905155503 | 31 | 92 | 3.2 | 3.2 | 0.00 | 0.00 | 0.00 | 24 | 1016.7 |
| 20260905155403 | 31 | 110 | 3.2 | 3.2 | 0.00 | 0.00 | 0.00 | 24 | 1016.6 |
| 20260905155306 | 31 | 110 | 3.2 | 3.2 | 0.00 | 0.00 | 0.00 | 24 | 1016.6 |
| 20260905155203 | 32 | 110 | 3.2 | 3.2 | 0.00 | 0.00 | 0.00 | 24 | 1016.7 |
| 20260905155103 | 32 | 110 | 3.2 | 3.2 | 0.00 | 0.00 | 0.00 | 24 | 1016.7 |
| 20260905155006 | 31 | 102 | 0.0 | 3.2 | 0.00 | 0.00 | 0.00 | 24 | 1017.0 |
| 20260905155003 | 32 | 115 | 3.2 | 3.2 | 0.00 | 0.00 | 0.00 | 24 | 1016.6 |
| 20260905154903 | 32 | 115 | 3.2 | 3.2 | 0.00 | 0.00 | 0.00 | 24 | 1016.6 |
| 20260905154803 | 32 | 137 | 3.2 | 3.2 | 0.00 | 0.00 | 0.00 | 24 | 1016.7 |
| 20260905154703 | 32 | 137 | 3.2 | 3.2 | 0.00 | 0.00 | 0.00 | 24 | 1016.6 |
| 20260905154603 | 32 | 137 | 3.2 | 3.2 | 0.00 | 0.00 | 0.00 | 24 | 1016.6 |
| 20260905154517 | 31 | 137 | 0.0 | 3.2 | 0.00 | 0.00 | 0.00 | 23 | 1016.9 |
| 20260905154503 | 32 | 0 | 3.2 | 3.2 | 0.00 | 0.00 | 0.00 | 24 | 1016.6 |
| 20260905154403 | 32 | 0 | 3.2 | 3.2 | 0.00 | 0.00 | 0.00 | 24 | 1016.6 |
| 20260905154303 | 32 | 132 | 3.2 | 3.2 | 0.00 | 0.00 | 0.00 | 24 | 1016.6 |
| 20260905154203 | 32 | 134 | 3.2 | 3.2 | 0.00 | 0.00 | 0.00 | 24 | 1016.6 |
| 20260905154103 | 32 | 134 | 3.2 | 1.6 | 0.00 | 0.00 | 0.00 | 24 | 1016.6 |
| 20260905154011 | 31 | 136 | 0.0 | 3.2 | 0.00 | 0.00 | 0.00 | 23 | 1016.9 |
| 20260905154003 | 32 | 119 | 3.2 | 1.6 | 0.00 | 0.00 | 0.00 | 24 | 1016.6 |
| 20260905153917 | 32 | 119 | 3.2 | 1.6 | 0.00 | 0.00 | 0.00 | 24 | 1016.6 |
| 20260905153803 | 32 | 122 | 3.2 | 1.6 | 0.00 | 0.00 | 0.00 | 24 | 1016.6 |
| 20260905153603 | 32 | 126 | 3.2 | 3.2 | 0.00 | 0.00 | 0.00 | 24 | 1016.6 |
| 20260905153511 | 32 | 136 | 0.0 | 3.2 | 0.00 | 0.00 | 0.00 | 23 | 1016.9 |
| 20260905153503 | 32 | 126 | 3.2 | 3.2 | 0.00 | 0.00 | 0.00 | 24 | 1016.6 |
| 20260905153403 | 32 | 126 | 3.2 | 3.2 | 0.00 | 0.00 | 0.00 | 24 | 1016.6 |
| 20260905153303 | 32 | 124 | 3.2 | 3.2 | 0.00 | 0.00 | 0.00 | 24 | 1016.6 |
| 20260905153203 | 32 | 115 | 3.2 | 3.2 | 0.00 | 0.00 | 0.00 | 24 | 1016.6 |
| 20260905153103 | 32 | 115 | 3.2 | 3.2 | 0.00 | 0.00 | 0.00 | 23 | 1016.6 |
| 20260905153033 | 32 | 65 | 0.0 | 3.2 | 0.00 | 0.00 | 0.00 | 23 | 1016.9 |
| 20260905153003 | 32 | 142 | 3.2 | 3.2 | 0.00 | 0.00 | 0.00 | 23 | 1016.6 |
| 20260905152903 | 32 | 132 | 3.2 | 3.2 | 0.00 | 0.00 | 0.00 | 23 | 1016.6 |
| 20260905152716 | 32 | 72 | 3.2 | 3.2 | 0.00 | 0.00 | 0.00 | 23 | 1016.6 |
| 20260905152603 | 32 | 60 | 3.2 | 3.2 | 0.00 | 0.00 | 0.00 | 23 | 1016.7 |
| 20260905152516 | 32 | 115 | 0.0 | 3.2 | 0.00 | 0.00 | 0.00 | 22 | 1017.0 |
| 20260905152403 | 32 | 14 | 3.2 | 3.2 | 0.00 | 0.00 | 0.00 | 23 | 1016.7 |
| 20260905152306 | 32 | 344 | 3.2 | 3.2 | 0.00 | 0.00 | 0.00 | 23 | 1016.7 |
| 20260905152103 | 32 | 322 | 3.2 | 3.2 | 0.00 | 0.00 | 0.00 | 23 | 1016.7 |
| 20260905152012 | 32 | 132 | 1.6 | 3.2 | 0.00 | 0.00 | 0.00 | 22 | 1017.0 |
| 20260905152003 | 32 | 321 | 3.2 | 3.2 | 0.00 | 0.00 | 0.00 | 23 | 1016.7 |
| 20260905151903 | 32 | 316 | 3.2 | 3.2 | 0.00 | 0.00 | 0.00 | 23 | 1016.7 |
| 20260905151803 | 32 | 310 | 3.2 | 3.2 | 0.00 | 0.00 | 0.00 | 23 | 1016.8 |
| 20260905151703 | 32 | 310 | 3.2 | 3.2 | 0.00 | 0.00 | 0.00 | 22 | 1016.8 |
| 20260905151603 | 32 | 314 | 3.2 | 3.2 | 0.00 | 0.00 | 0.00 | 22 | 1016.8 |
| 20260905151531 | 32 | 341 | 1.6 | 3.2 | 0.00 | 0.00 | 0.00 | 22 | 1017.1 |
| 20260905151503 | 32 | 331 | 3.2 | 3.2 | 0.00 | 0.00 | 0.00 | 22 | 1016.8 |
| 20260905151403 | 32 | 333 | 3.2 | 3.2 | 0.00 | 0.00 | 0.00 | 22 | 1016.8 |
| 20260905151317 | 32 | 44 | 3.2 | 3.2 | 0.00 | 0.00 | 0.00 | 22 | 1016.9 |
| 20260905151203 | 32 | 102 | 3.2 | 3.2 | 0.00 | 0.00 | 0.00 | 22 | 1016.8 |
| 20260905151016 | 32 | 242 | 0.0 | 3.2 | 0.00 | 0.00 | 0.00 | 22 | 1017.1 |
| 20260905151003 | 32 | 63 | 3.2 | 3.2 | 0.00 | 0.00 | 0.00 | 23 | 1016.8 |
| 20260905150903 | 32 | 63 | 3.2 | 3.2 | 0.00 | 0.00 | 0.00 | 22 | 1016.8 |
| 20260905150803 | 32 | 48 | 3.2 | 3.2 | 0.00 | 0.00 | 0.00 | 22 | 1016.9 |
| 20260905150703 | 32 | 19 | 3.2 | 3.2 | 0.00 | 0.00 | 0.00 | 22 | 1016.9 |
| 20260905150603 | 32 | 337 | 3.2 | 3.2 | 0.00 | 0.00 | 0.00 | 22 | 1016.9 |
| 20260905150519 | 32 | 75 | 0.0 | 3.2 | 0.00 | 0.00 | 0.00 | 22 | 1017.1 |
| 20260905150503 | 32 | 299 | 3.2 | 3.2 | 0.00 | 0.00 | 0.00 | 22 | 1016.9 |
| 20260905150303 | 32 | 302 | 3.2 | 3.2 | 0.00 | 0.00 | 0.00 | 22 | 1016.9 |
| 20260905150203 | 32 | 304 | 3.2 | 3.2 | 0.00 | 0.00 | 0.00 | 22 | 1016.9 |
| 20260905150031 | 32 | 295 | 0.0 | 4.8 | 0.00 | 0.00 | 0.00 | 22 | 1017.2 |
| 20260905150003 | 32 | 313 | 3.2 | 8.0 | 0.00 | 0.00 | 0.00 | 22 | 1016.9 |
| 20260905145903 | 32 | 318 | 3.2 | 8.0 | 0.00 | 0.00 | 0.00 | 22 | 1016.9 |
| 20260905145803 | 32 | 312 | 3.2 | 8.0 | 0.00 | 0.00 | 0.00 | 22 | 1016.9 |
| 20260905145703 | 32 | 312 | 3.2 | 8.0 | 0.00 | 0.00 | 0.00 | 22 | 1016.9 |
| 20260905145603 | 32 | 302 | 3.2 | 8.0 | 0.00 | 0.00 | 0.00 | 22 | 1016.9 |
| 20260905145508 | 32 | 288 | 0.0 | 6.4 | 0.00 | 0.00 | 0.00 | 22 | 1017.2 |
| 20260905145503 | 32 | 301 | 3.2 | 8.0 | 0.00 | 0.00 | 0.00 | 22 | 1016.9 |
| 20260905145403 | 32 | 308 | 3.2 | 8.0 | 0.00 | 0.00 | 0.00 | 22 | 1016.9 |
| 20260905145306 | 32 | 310 | 3.2 | 8.0 | 0.00 | 0.00 | 0.00 | 22 | 1016.9 |
| 20260905145006 | 32 | 332 | 3.2 | 6.4 | 0.00 | 0.00 | 0.00 | 21 | 1017.2 |
| 20260905145003 | 32 | 323 | 3.2 | 8.0 | 0.00 | 0.00 | 0.00 | 22 | 1016.9 |
| 20260905144903 | 32 | 325 | 3.2 | 6.4 | 0.00 | 0.00 | 0.00 | 22 | 1017.0 |
| 20260905144803 | 32 | 330 | 3.2 | 6.4 | 0.00 | 0.00 | 0.00 | 22 | 1016.9 |
| 20260905144703 | 32 | 333 | 3.2 | 6.4 | 0.00 | 0.00 | 0.00 | 22 | 1017.0 |
| 20260905144603 | 32 | 337 | 3.2 | 6.4 | 0.00 | 0.00 | 0.00 | 22 | 1017.0 |
| 20260905144519 | 32 | 286 | 0.0 | 6.4 | 0.00 | 0.00 | 0.00 | 21 | 1017.3 |
| 20260905144503 | 32 | 339 | 3.2 | 6.4 | 0.00 | 0.00 | 0.00 | 22 | 1017.0 |
| 20260905144403 | 32 | 328 | 3.2 | 6.4 | 0.00 | 0.00 | 0.00 | 22 | 1017.0 |
| 20260905144303 | 32 | 326 | 3.2 | 6.4 | 0.00 | 0.00 | 0.00 | 21 | 1017.0 |
| 20260905144203 | 32 | 302 | 3.2 | 6.4 | 0.00 | 0.00 | 0.00 | 21 | 1017.1 |
| 20260905144103 | 32 | 292 | 3.2 | 6.4 | 0.00 | 0.00 | 0.00 | 21 | 1017.1 |
| 20260905144010 | 32 | 300 | 1.6 | 6.4 | 0.00 | 0.00 | 0.00 | 21 | 1017.4 |
| 20260905144003 | 32 | 297 | 3.2 | 3.2 | 0.00 | 0.00 | 0.00 | 21 | 1017.1 |
| 20260905143803 | 32 | 288 | 3.2 | 1.6 | 0.00 | 0.00 | 0.00 | 21 | 1017.1 |
| 20260905143703 | 32 | 293 | 3.2 | 6.4 | 0.00 | 0.00 | 0.00 | 21 | 1017.1 |
| 20260905143603 | 32 | 298 | 3.2 | 6.4 | 0.00 | 0.00 | 0.00 | 21 | 1017.1 |
| 20260905143511 | 32 | 304 | 1.6 | 6.4 | 0.00 | 0.00 | 0.00 | 20 | 1017.4 |
| 20260905143403 | 32 | 300 | 3.2 | 6.4 | 0.00 | 0.00 | 0.00 | 21 | 1017.1 |
| 20260905143303 | 32 | 305 | 3.2 | 6.4 | 0.00 | 0.00 | 0.00 | 21 | 1017.1 |
| 20260905143203 | 32 | 310 | 3.2 | 6.4 | 0.00 | 0.00 | 0.00 | 21 | 1017.1 |
| 20260905143103 | 32 | 319 | 3.2 | 6.4 | 0.00 | 0.00 | 0.00 | 21 | 1017.1 |
| 20260905143033 | 32 | 321 | 1.6 | 6.4 | 0.00 | 0.00 | 0.00 | 21 | 1017.4 |
| 20260905143003 | 32 | 316 | 3.2 | 6.4 | 0.00 | 0.00 | 0.00 | 21 | 1017.1 |
| 20260905142903 | 32 | 318 | 3.2 | 6.4 | 0.00 | 0.00 | 0.00 | 21 | 1017.1 |
| 20260905142803 | 32 | 321 | 3.2 | 6.4 | 0.00 | 0.00 | 0.00 | 21 | 1017.1 |
| 20260905142703 | 32 | 317 | 3.2 | 6.4 | 0.00 | 0.00 | 0.00 | 21 | 1017.1 |
| 20260905142511 | 32 | 274 | 0.0 | 4.8 | 0.00 | 0.00 | 0.00 | 20 | 1017.4 |
| 20260905142503 | 32 | 323 | 3.2 | 6.4 | 0.00 | 0.00 | 0.00 | 21 | 1017.1 |
| 20260905142403 | 32 | 316 | 3.2 | 6.4 | 0.00 | 0.00 | 0.00 | 21 | 1017.1 |
| 20260905142306 | 32 | 310 | 3.2 | 6.4 | 0.00 | 0.00 | 0.00 | 21 | 1017.1 |
| 20260905142203 | 32 | 291 | 3.2 | 6.4 | 0.00 | 0.00 | 0.00 | 21 | 1017.1 |
| 20260905142103 | 32 | 252 | 3.2 | 6.4 | 0.00 | 0.00 | 0.00 | 20 | 1017.2 |
| 20260905142012 | 32 | 288 | 0.0 | 4.8 | 0.00 | 0.00 | 0.00 | 20 | 1017.5 |
| 20260905142003 | 32 | 196 | 3.2 | 6.4 | 0.00 | 0.00 | 0.00 | 21 | 1017.2 |
| 20260905141903 | 32 | 176 | 3.2 | 6.4 | 0.00 | 0.00 | 0.00 | 21 | 1017.2 |
| 20260905141803 | 32 | 156 | 3.2 | 6.4 | 0.00 | 0.00 | 0.00 | 21 | 1017.1 |
| 20260905141703 | 32 | 138 | 3.2 | 6.4 | 0.00 | 0.00 | 0.00 | 21 | 1017.2 |
| 20260905141603 | 32 | 126 | 3.2 | 6.4 | 0.00 | 0.00 | 0.00 | 21 | 1017.1 |
| 20260905141530 | 32 | 300 | 1.6 | 4.8 | 0.00 | 0.00 | 0.00 | 20 | 1017.4 |
| 20260905141503 | 32 | 122 | 3.2 | 4.8 | 0.00 | 0.00 | 0.00 | 21 | 1017.1 |
| 20260905141203 | 32 | 97 | 3.2 | 3.2 | 0.00 | 0.00 | 0.00 | 20 | 1017.1 |
| 20260905141103 | 32 | 90 | 3.2 | 3.2 | 0.00 | 0.00 | 0.00 | 20 | 1017.1 |
| 20260905141015 | 32 | 119 | 1.6 | 8.0 | 0.00 | 0.00 | 0.00 | 20 | 1017.4 |
| 20260905141003 | 32 | 61 | 3.2 | 3.2 | 0.00 | 0.00 | 0.00 | 20 | 1017.1 |
| 20260905140903 | 32 | 26 | 3.2 | 9.7 | 0.00 | 0.00 | 0.00 | 20 | 1017.2 |
| 20260905140803 | 32 | 347 | 3.2 | 9.7 | 0.00 | 0.00 | 0.00 | 21 | 1017.2 |
| 20260905140703 | 32 | 328 | 3.2 | 9.7 | 0.00 | 0.00 | 0.00 | 21 | 1017.2 |
| 20260905140603 | 32 | 322 | 3.2 | 9.7 | 0.00 | 0.00 | 0.00 | 21 | 1017.2 |
| 20260905140515 | 32 | 329 | 1.6 | 8.0 | 0.00 | 0.00 | 0.00 | 20 | 1017.5 |
| 20260905140503 | 32 | 324 | 3.2 | 9.7 | 0.00 | 0.00 | 0.00 | 20 | 1017.2 |
| 20260905140303 | 32 | 309 | 3.2 | 9.7 | 0.00 | 0.00 | 0.00 | 20 | 1017.2 |
| 20260905140203 | 32 | 310 | 3.2 | 9.7 | 0.00 | 0.00 | 0.00 | 20 | 1017.2 |
| 20260905140103 | 32 | 308 | 3.2 | 9.7 | 0.00 | 0.00 | 0.00 | 20 | 1017.2 |
| 20260905140033 | 32 | 323 | 1.6 | 8.0 | 0.00 | 0.00 | 0.00 | 20 | 1017.5 |
| 20260905140003 | 32 | 305 | 3.2 | 9.7 | 0.00 | 0.00 | 0.00 | 20 | 1017.2 |
| 20260905135903 | 32 | 298 | 3.2 | 9.7 | 0.00 | 0.00 | 0.00 | 20 | 1017.2 |
| 20260905135803 | 32 | 299 | 3.2 | 8.0 | 0.00 | 0.00 | 0.00 | 20 | 1017.2 |
| 20260905135703 | 32 | 298 | 3.2 | 6.4 | 0.00 | 0.00 | 0.00 | 20 | 1017.2 |
| 20260905135603 | 32 | 296 | 3.2 | 6.4 | 0.00 | 0.00 | 0.00 | 20 | 1017.2 |
| 20260905135517 | 32 | 121 | 3.2 | 6.4 | 0.00 | 0.00 | 0.00 | 19 | 1017.5 |
| 20260905135503 | 32 | 296 | 3.2 | 6.4 | 0.00 | 0.00 | 0.00 | 20 | 1017.2 |
| 20260905135403 | 32 | 297 | 3.2 | 6.4 | 0.00 | 0.00 | 0.00 | 20 | 1017.2 |
| 20260905135203 | 32 | 285 | 3.2 | 6.4 | 0.00 | 0.00 | 0.00 | 20 | 1017.2 |
| 20260905135103 | 32 | 284 | 3.2 | 6.4 | 0.00 | 0.00 | 0.00 | 20 | 1017.2 |
| 20260905135018 | 32 | 296 | 3.2 | 6.4 | 0.00 | 0.00 | 0.00 | 19 | 1017.5 |
| 20260905135003 | 32 | 129 | 3.2 | 6.4 | 0.00 | 0.00 | 0.00 | 20 | 1017.2 |
| 20260905134903 | 32 | 106 | 3.2 | 6.4 | 0.00 | 0.00 | 0.00 | 20 | 1017.2 |
| 20260905134803 | 32 | 109 | 3.2 | 6.4 | 0.00 | 0.00 | 0.00 | 20 | 1017.2 |
| 20260905134718 | 32 | 115 | 3.2 | 6.4 | 0.00 | 0.00 | 0.00 | 20 | 1017.2 |
| 20260905134603 | 32 | 126 | 3.2 | 6.4 | 0.00 | 0.00 | 0.00 | 20 | 1017.2 |
| 20260905134525 | 32 | 12 | 0.0 | 4.8 | 0.00 | 0.00 | 0.00 | 20 | 1017.5 |
| 20260905134403 | 32 | 126 | 3.2 | 6.4 | 0.00 | 0.00 | 0.00 | 20 | 1017.2 |
| 20260905134303 | 32 | 128 | 3.2 | 6.4 | 0.00 | 0.00 | 0.00 | 20 | 1017.2 |
| 20260905134203 | 32 | 128 | 3.2 | 6.4 | 0.00 | 0.00 | 0.00 | 20 | 1017.2 |
| 20260905134103 | 32 | 136 | 3.2 | 6.4 | 0.00 | 0.00 | 0.00 | 20 | 1017.2 |
| 20260905134018 | 32 | 220 | 3.2 | 6.4 | 0.00 | 0.00 | 0.00 | 21 | 1017.3 |
| 20260905134006 | 32 | 117 | 1.6 | 4.8 | 0.00 | 0.00 | 0.00 | 20 | 1017.5 |
| 20260905133903 | 32 | 30 | 3.2 | 6.4 | 0.00 | 0.00 | 0.00 | 21 | 1017.4 |
| 20260905133703 | 32 | 341 | 3.2 | 6.4 | 0.00 | 0.00 | 0.00 | 21 | 1017.4 |
| 20260905133603 | 32 | 65 | 3.2 | 6.4 | 0.00 | 0.00 | 0.00 | 21 | 1017.4 |
| 20260905133510 | 32 | 136 | 0.0 | 4.8 | 0.00 | 0.00 | 0.00 | 20 | 1017.7 |
| 20260905133503 | 32 | 63 | 3.2 | 6.4 | 0.00 | 0.00 | 0.00 | 21 | 1017.4 |
| 20260905133403 | 32 | 75 | 3.2 | 6.4 | 0.00 | 0.00 | 0.00 | 21 | 1017.3 |
| 20260905133303 | 32 | 75 | 3.2 | 6.4 | 0.00 | 0.00 | 0.00 | 21 | 1017.4 |
| 20260905133203 | 32 | 92 | 3.2 | 6.4 | 0.00 | 0.00 | 0.00 | 21 | 1017.3 |
| 20260905133103 | 32 | 98 | 3.2 | 6.4 | 0.00 | 0.00 | 0.00 | 21 | 1017.4 |
| 20260905133027 | 32 | 301 | 3.2 | 4.8 | 0.00 | 0.00 | 0.00 | 20 | 1017.7 |
| 20260905133003 | 32 | 100 | 3.2 | 6.4 | 0.00 | 0.00 | 0.00 | 21 | 1017.4 |
| 20260905132903 | 32 | 117 | 3.2 | 4.8 | 0.00 | 0.00 | 0.00 | 21 | 1017.4 |
| 20260905132803 | 32 | 79 | 3.2 | 3.2 | 0.00 | 0.00 | 0.00 | 21 | 1017.4 |
| 20260905132703 | 32 | 92 | 3.2 | 3.2 | 0.00 | 0.00 | 0.00 | 21 | 1017.3 |
| 20260905132603 | 32 | 358 | 3.2 | 4.8 | 0.00 | 0.00 | 0.00 | 21 | 1017.3 |
| 20260905132512 | 32 | 121 | 0.0 | 3.2 | 0.00 | 0.00 | 0.00 | 21 | 1017.6 |
| 20260905132503 | 32 | 317 | 3.2 | 4.8 | 0.00 | 0.00 | 0.00 | 21 | 1017.4 |
| 20260905132403 | 32 | 326 | 3.2 | 4.8 | 0.00 | 0.00 | 0.00 | 21 | 1017.4 |
| 20260905132305 | 32 | 329 | 3.2 | 4.8 | 0.00 | 0.00 | 0.00 | 21 | 1017.3 |
| 20260905132203 | 32 | 323 | 3.2 | 12.9 | 0.00 | 0.00 | 0.00 | 21 | 1017.4 |
| 20260905132103 | 32 | 318 | 3.2 | 12.9 | 0.00 | 0.00 | 0.00 | 21 | 1017.4 |
| 20260905132014 | 32 | 328 | 0.0 | 12.9 | 0.00 | 0.00 | 0.00 | 21 | 1017.7 |
| 20260905132003 | 32 | 321 | 3.2 | 12.9 | 0.00 | 0.00 | 0.00 | 21 | 1017.4 |
| 20260905131903 | 32 | 326 | 3.2 | 12.9 | 0.00 | 0.00 | 0.00 | 21 | 1017.4 |
| 20260905131703 | 32 | 325 | 3.2 | 12.9 | 0.00 | 0.00 | 0.00 | 21 | 1017.4 |
| 20260905131603 | 32 | 315 | 3.2 | 12.9 | 0.00 | 0.00 | 0.00 | 21 | 1017.5 |
| 20260905131526 | 32 | 304 | 1.6 | 12.9 | 0.00 | 0.00 | 0.00 | 21 | 1017.7 |
| 20260905131503 | 32 | 310 | 3.2 | 12.9 | 0.00 | 0.00 | 0.00 | 21 | 1017.4 |
| 20260905131403 | 32 | 305 | 3.2 | 12.9 | 0.00 | 0.00 | 0.00 | 22 | 1017.4 |
| 20260905131303 | 32 | 306 | 3.2 | 12.9 | 0.00 | 0.00 | 0.00 | 22 | 1017.4 |
| 20260905131103 | 32 | 309 | 3.2 | 8.0 | 0.00 | 0.00 | 0.00 | 21 | 1017.4 |
| 20260905131017 | 32 | 329 | 1.6 | 8.0 | 0.00 | 0.00 | 0.00 | 21 | 1017.7 |
| 20260905131003 | 32 | 304 | 3.2 | 8.0 | 0.00 | 0.00 | 0.00 | 21 | 1017.5 |
| 20260905130903 | 32 | 301 | 3.2 | 8.0 | 0.00 | 0.00 | 0.00 | 21 | 1017.5 |
| 20260905130803 | 32 | 302 | 3.2 | 8.0 | 0.00 | 0.00 | 0.00 | 21 | 1017.5 |
| 20260905130703 | 32 | 301 | 3.2 | 8.0 | 0.00 | 0.00 | 0.00 | 21 | 1017.4 |
| 20260905130603 | 32 | 300 | 3.2 | 8.0 | 0.00 | 0.00 | 0.00 | 21 | 1017.5 |
| 20260905130515 | 32 | 282 | 3.2 | 8.0 | 0.00 | 0.00 | 0.00 | 21 | 1017.8 |
| 20260905130503 | 32 | 302 | 3.2 | 8.0 | 0.00 | 0.00 | 0.00 | 21 | 1017.5 |
| 20260905130403 | 32 | 295 | 3.2 | 8.0 | 0.00 | 0.00 | 0.00 | 22 | 1017.5 |
| 20260905130303 | 32 | 292 | 3.2 | 8.0 | 0.00 | 0.00 | 0.00 | 22 | 1017.5 |
| 20260905130031 | 32 | 305 | 3.2 | 8.0 | 0.00 | 0.00 | 0.00 | 21 | 1017.8 |
| 20260905130003 | 32 | 293 | 3.2 | 8.0 | 0.00 | 0.00 | 0.00 | 22 | 1017.5 |
| 20260905125903 | 32 | 293 | 3.2 | 8.0 | 0.00 | 0.00 | 0.00 | 22 | 1017.5 |
| 20260905125803 | 32 | 289 | 3.2 | 8.0 | 0.00 | 0.00 | 0.00 | 22 | 1017.5 |
| 20260905125703 | 32 | 285 | 3.2 | 8.0 | 0.00 | 0.00 | 0.00 | 22 | 1017.6 |
| 20260905125603 | 32 | 282 | 3.2 | 8.0 | 0.00 | 0.00 | 0.00 | 22 | 1017.6 |
| 20260905125503 | 32 | 289 | 4.8 | 8.0 | 0.00 | 0.00 | 0.00 | 21 | 1017.8 |
| 20260905125403 | 32 | 303 | 3.2 | 6.4 | 0.00 | 0.00 | 0.00 | 22 | 1017.6 |
| 20260905125306 | 32 | 304 | 3.2 | 6.4 | 0.00 | 0.00 | 0.00 | 21 | 1017.6 |
| 20260905125203 | 32 | 302 | 3.2 | 9.7 | 0.00 | 0.00 | 0.00 | 21 | 1017.6 |
| 20260905125007 | 32 | 20 | 1.6 | 8.0 | 0.00 | 0.00 | 0.00 | 21 | 1017.8 |
| 20260905125003 | 32 | 303 | 3.2 | 9.7 | 0.00 | 0.00 | 0.00 | 22 | 1017.6 |
| 20260905124903 | 32 | 303 | 3.2 | 9.7 | 0.00 | 0.00 | 0.00 | 22 | 1017.6 |
| 20260905124803 | 32 | 302 | 3.2 | 9.7 | 0.00 | 0.00 | 0.00 | 21 | 1017.6 |
| 20260905124717 | 32 | 299 | 3.2 | 9.7 | 0.00 | 0.00 | 0.00 | 22 | 1017.7 |
| 20260905124603 | 32 | 301 | 3.2 | 9.7 | 0.00 | 0.00 | 0.00 | 22 | 1017.7 |
| 20260905124521 | 32 | 329 | 3.2 | 8.0 | 0.00 | 0.00 | 0.00 | 21 | 1018.0 |
| 20260905124403 | 32 | 190 | 3.2 | 9.7 | 0.00 | 0.00 | 0.00 | 22 | 1017.7 |
| 20260905124303 | 32 | 142 | 3.2 | 9.7 | 0.00 | 0.00 | 0.00 | 22 | 1017.7 |
| 20260905124203 | 32 | 132 | 3.2 | 9.7 | 0.00 | 0.00 | 0.00 | 22 | 1017.6 |
| 20260905124103 | 32 | 145 | 3.2 | 6.4 | 0.00 | 0.00 | 0.00 | 22 | 1017.6 |
| 20260905124008 | 32 | 307 | 1.6 | 6.4 | 0.00 | 0.00 | 0.00 | 21 | 1017.9 |
| 20260905124003 | 32 | 142 | 3.2 | 11.3 | 0.00 | 0.00 | 0.00 | 22 | 1017.7 |
| 20260905123803 | 32 | 170 | 3.2 | 11.3 | 0.00 | 0.00 | 0.00 | 22 | 1017.7 |
| 20260905123703 | 32 | 204 | 3.2 | 11.3 | 0.00 | 0.00 | 0.00 | 22 | 1017.7 |
| 20260905123511 | 32 | 140 | 1.6 | 11.3 | 0.00 | 0.00 | 0.00 | 21 | 1018.0 |
| 20260905123503 | 32 | 294 | 3.2 | 11.3 | 0.00 | 0.00 | 0.00 | 22 | 1017.7 |
| 20260905123403 | 32 | 296 | 3.2 | 11.3 | 0.00 | 0.00 | 0.00 | 22 | 1017.7 |
| 20260905123303 | 32 | 306 | 3.2 | 11.3 | 0.00 | 0.00 | 0.00 | 22 | 1017.7 |
| 20260905123203 | 32 | 313 | 3.2 | 11.3 | 0.00 | 0.00 | 0.00 | 22 | 1017.7 |
| 20260905123103 | 32 | 318 | 3.2 | 11.3 | 0.00 | 0.00 | 0.00 | 22 | 1017.7 |
| 20260905123050 | 32 | 313 | 4.8 | 11.3 | 0.00 | 0.00 | 0.00 | 22 | 1018.0 |
| 20260905123003 | 32 | 328 | 3.2 | 11.3 | 0.00 | 0.00 | 0.00 | 23 | 1017.7 |
| 20260905122903 | 32 | 333 | 3.2 | 6.4 | 0.00 | 0.00 | 0.00 | 23 | 1017.7 |
| 20260905122803 | 32 | 334 | 3.2 | 6.4 | 0.00 | 0.00 | 0.00 | 23 | 1017.7 |
| 20260905122603 | 32 | 328 | 3.2 | 6.4 | 0.00 | 0.00 | 0.00 | 23 | 1017.8 |
| 20260905122511 | 31 | 300 | 1.6 | 6.4 | 0.00 | 0.00 | 0.00 | 23 | 1018.1 |
| 20260905122503 | 32 | 338 | 3.2 | 6.4 | 0.00 | 0.00 | 0.00 | 23 | 1017.8 |
| 20260905122403 | 32 | 332 | 3.2 | 6.4 | 0.00 | 0.00 | 0.00 | 23 | 1017.8 |
| 20260905122306 | 32 | 310 | 3.2 | 6.4 | 0.00 | 0.00 | 0.00 | 23 | 1017.9 |
| 20260905122203 | 32 | 286 | 3.2 | 6.4 | 0.00 | 0.00 | 0.00 | 24 | 1017.8 |
| 20260905122012 | 32 | 44 | 3.2 | 6.4 | 0.00 | 0.00 | 0.00 | 24 | 1018.2 |
| 20260905122003 | 32 | 205 | 3.2 | 6.4 | 0.00 | 0.00 | 0.00 | 24 | 1017.9 |
| 20260905121903 | 32 | 228 | 3.2 | 6.4 | 0.00 | 0.00 | 0.00 | 24 | 1017.9 |
| 20260905121703 | 32 | 288 | 3.2 | 8.0 | 0.00 | 0.00 | 0.00 | 24 | 1017.9 |
| 20260905121603 | 32 | 300 | 3.2 | 8.0 | 0.00 | 0.00 | 0.00 | 24 | 1017.9 |
| 20260905121524 | 31 | 292 | 1.6 | 8.0 | 0.00 | 0.00 | 0.00 | 24 | 1018.2 |
| 20260905121503 | 32 | 315 | 3.2 | 8.0 | 0.00 | 0.00 | 0.00 | 24 | 1018.0 |
| 20260905121403 | 32 | 332 | 3.2 | 8.0 | 0.00 | 0.00 | 0.00 | 24 | 1017.9 |
| 20260905121303 | 32 | 325 | 3.2 | 8.0 | 0.00 | 0.00 | 0.00 | 24 | 1018.0 |
| 20260905121203 | 32 | 315 | 3.2 | 8.0 | 0.00 | 0.00 | 0.00 | 25 | 1018.0 |
| 20260905121103 | 32 | 314 | 3.2 | 8.0 | 0.00 | 0.00 | 0.00 | 25 | 1018.0 |
| 20260905121014 | 31 | 302 | 1.6 | 8.0 | 0.00 | 0.00 | 0.00 | 24 | 1018.3 |
| 20260905121003 | 32 | 316 | 3.2 | 8.0 | 0.00 | 0.00 | 0.00 | 25 | 1018.0 |
| 20260905120903 | 32 | 324 | 3.2 | 8.0 | 0.00 | 0.00 | 0.00 | 25 | 1018.0 |
| 20260905120803 | 32 | 326 | 3.2 | 8.0 | 0.00 | 0.00 | 0.00 | 25 | 1018.0 |
| 20260905120703 | 32 | 343 | 3.2 | 8.0 | 0.00 | 0.00 | 0.00 | 24 | 1018.0 |
| 20260905120603 | 32 | 11 | 3.2 | 6.4 | 0.00 | 0.00 | 0.00 | 24 | 1018.0 |
| 20260905120511 | 31 | 348 | 3.2 | 6.4 | 0.00 | 0.00 | 0.00 | 24 | 1018.3 |
| 20260905120503 | 32 | 83 | 3.2 | 6.4 | 0.00 | 0.00 | 0.00 | 25 | 1018.1 |
| 20260905120303 | 32 | 122 | 3.2 | 8.0 | 0.00 | 0.00 | 0.00 | 25 | 1018.1 |
| 20260905120203 | 32 | 94 | 3.2 | 8.0 | 0.00 | 0.00 | 0.00 | 24 | 1018.1 |
| 20260905120103 | 32 | 69 | 3.2 | 8.0 | 0.00 | 0.00 | 0.00 | 24 | 1018.1 |
| 20260905120029 | 31 | 15 | 1.6 | 8.0 | 0.00 | 0.00 | 0.00 | 24 | 1018.3 |
| 20260905120004 | 32 | 66 | 3.2 | 8.0 | 0.00 | 0.00 | 0.00 | 24 | 1018.1 |
| 20260905115703 | 32 | 356 | 3.2 | 8.0 | 0.00 | 0.00 | 0.00 | 24 | 1018.1 |
| 20260905115603 | 31 | 3 | 3.2 | 8.0 | 0.00 | 0.00 | 0.00 | 24 | 1018.1 |
| 20260905115518 | 31 | 86 | 0.0 | 8.0 | 0.00 | 0.00 | 0.00 | 23 | 1018.4 |
| 20260905115503 | 32 | 7 | 3.2 | 8.0 | 0.00 | 0.00 | 0.00 | 24 | 1018.2 |
| 20260905115403 | 31 | 10 | 3.2 | 8.0 | 0.00 | 0.00 | 0.00 | 24 | 1018.1 |
| 20260905115218 | 32 | 18 | 3.2 | 6.4 | 0.00 | 0.00 | 0.00 | 25 | 1018.2 |
| 20260905115103 | 32 | 11 | 3.2 | 6.4 | 0.00 | 0.00 | 0.00 | 25 | 1018.2 |
| 20260905115004 | 31 | 302 | 1.6 | 6.4 | 0.00 | 0.00 | 0.00 | 25 | 1018.4 |
| 20260905114903 | 32 | 356 | 3.2 | 6.4 | 0.00 | 0.00 | 0.00 | 25 | 1018.1 |
| 20260905114803 | 32 | 337 | 3.2 | 6.4 | 0.00 | 0.00 | 0.00 | 25 | 1018.2 |
| 20260905114703 | 32 | 318 | 3.2 | 6.4 | 0.00 | 0.00 | 0.00 | 25 | 1018.3 |
| 20260905114603 | 32 | 300 | 3.2 | 6.4 | 0.00 | 0.00 | 0.00 | 25 | 1018.3 |
| 20260905114515 | 32 | 111 | 1.6 | 6.4 | 0.00 | 0.00 | 0.00 | 25 | 1018.5 |
| 20260905114503 | 32 | 297 | 3.2 | 6.4 | 0.00 | 0.00 | 0.00 | 25 | 1018.3 |
| 20260905114403 | 32 | 295 | 3.2 | 6.4 | 0.00 | 0.00 | 0.00 | 25 | 1018.3 |
| 20260905114303 | 32 | 291 | 3.2 | 6.4 | 0.00 | 0.00 | 0.00 | 26 | 1018.3 |
| 20260905114203 | 32 | 291 | 3.2 | 6.4 | 0.00 | 0.00 | 0.00 | 26 | 1018.3 |
| 20260905114009 | 32 | 234 | 1.6 | 4.8 | 0.00 | 0.00 | 0.00 | 26 | 1018.6 |
| 20260905113903 | 32 | 299 | 3.2 | 6.4 | 0.00 | 0.00 | 0.00 | 26 | 1018.3 |
| 20260905113803 | 32 | 297 | 3.2 | 6.4 | 0.00 | 0.00 | 0.00 | 26 | 1018.3 |
| 20260905113703 | 32 | 298 | 3.2 | 6.4 | 0.00 | 0.00 | 0.00 | 27 | 1018.3 |
| 20260905113603 | 32 | 296 | 3.2 | 6.4 | 0.00 | 0.00 | 0.00 | 27 | 1018.3 |
| 20260905113505 | 31 | 270 | 3.2 | 6.4 | 0.00 | 0.00 | 0.00 | 26 | 1018.6 |
| 20260905113503 | 32 | 295 | 3.2 | 6.4 | 0.00 | 0.00 | 0.00 | 27 | 1018.3 |
| 20260905113403 | 31 | 295 | 3.2 | 9.7 | 0.00 | 0.00 | 0.00 | 27 | 1018.4 |
| 20260905113303 | 31 | 310 | 3.2 | 9.7 | 0.00 | 0.00 | 0.00 | 27 | 1018.4 |
| 20260905113203 | 31 | 315 | 3.2 | 9.7 | 0.00 | 0.00 | 0.00 | 27 | 1018.4 |
| 20260905113103 | 31 | 309 | 3.2 | 9.7 | 0.00 | 0.00 | 0.00 | 27 | 1018.3 |
| 20260905113019 | 31 | 307 | 1.6 | 9.7 | 0.00 | 0.00 | 0.00 | 27 | 1018.6 |
| 20260905113003 | 31 | 303 | 3.2 | 9.7 | 0.00 | 0.00 | 0.00 | 27 | 1018.4 |
| 20260905112803 | 31 | 311 | 3.2 | 9.7 | 0.00 | 0.00 | 0.00 | 28 | 1018.4 |
| 20260905112703 | 31 | 306 | 3.2 | 9.7 | 0.00 | 0.00 | 0.00 | 28 | 1018.4 |
| 20260905112603 | 31 | 304 | 3.2 | 9.7 | 0.00 | 0.00 | 0.00 | 28 | 1018.4 |
| 20260905112508 | 31 | 254 | 1.6 | 9.7 | 0.00 | 0.00 | 0.00 | 28 | 1018.7 |
| 20260905112503 | 31 | 307 | 3.2 | 9.7 | 0.00 | 0.00 | 0.00 | 28 | 1018.4 |
| 20260905112305 | 31 | 291 | 3.2 | 9.7 | 0.00 | 0.00 | 0.00 | 28 | 1018.4 |
| 20260905112203 | 31 | 281 | 3.2 | 9.7 | 0.00 | 0.00 | 0.00 | 28 | 1018.5 |
| 20260905112103 | 31 | 281 | 3.2 | 9.7 | 0.00 | 0.00 | 0.00 | 28 | 1018.4 |
| 20260905112009 | 31 | 198 | 3.2 | 8.0 | 0.00 | 0.00 | 0.00 | 28 | 1018.7 |
| 20260905112003 | 31 | 299 | 3.2 | 9.7 | 0.00 | 0.00 | 0.00 | 29 | 1018.5 |
| 20260905111903 | 31 | 303 | 3.2 | 9.7 | 0.00 | 0.00 | 0.00 | 29 | 1018.5 |
| 20260905111803 | 31 | 296 | 3.2 | 9.7 | 0.00 | 0.00 | 0.00 | 29 | 1018.5 |
| 20260905111703 | 31 | 309 | 3.2 | 9.7 | 0.00 | 0.00 | 0.00 | 29 | 1018.5 |
| 20260905111603 | 31 | 318 | 3.2 | 9.7 | 0.00 | 0.00 | 0.00 | 29 | 1018.5 |
| 20260905111526 | 31 | 323 | 4.8 | 8.0 | 0.00 | 0.00 | 0.00 | 29 | 1018.8 |
| 20260905111503 | 31 | 316 | 3.2 | 9.7 | 0.00 | 0.00 | 0.00 | 29 | 1018.5 |
| 20260905111403 | 31 | 294 | 3.2 | 8.0 | 0.00 | 0.00 | 0.00 | 29 | 1018.5 |
| 20260905111303 | 31 | 314 | 3.2 | 8.0 | 0.00 | 0.00 | 0.00 | 29 | 1018.5 |
| 20260905111103 | 31 | 310 | 3.2 | 8.0 | 0.00 | 0.00 | 0.00 | 29 | 1018.5 |
| 20260905111011 | 31 | 360 | 3.2 | 8.0 | 0.00 | 0.00 | 0.00 | 29 | 1018.8 |
| 20260905111003 | 31 | 299 | 3.2 | 8.0 | 0.00 | 0.00 | 0.00 | 29 | 1018.5 |
| 20260905110903 | 31 | 301 | 3.2 | 8.0 | 0.00 | 0.00 | 0.00 | 29 | 1018.6 |
| 20260905110803 | 31 | 300 | 3.2 | 8.0 | 0.00 | 0.00 | 0.00 | 29 | 1018.6 |
| 20260905110703 | 31 | 296 | 3.2 | 8.0 | 0.00 | 0.00 | 0.00 | 29 | 1018.5 |
| 20260905110517 | 31 | 311 | 1.6 | 8.0 | 0.00 | 0.00 | 0.00 | 29 | 1018.8 |
| 20260905110503 | 31 | 304 | 3.2 | 8.0 | 0.00 | 0.00 | 0.00 | 30 | 1018.5 |
| 20260905110403 | 31 | 317 | 3.2 | 6.4 | 0.00 | 0.00 | 0.00 | 30 | 1018.6 |
| 20260905110303 | 31 | 326 | 3.2 | 6.4 | 0.00 | 0.00 | 0.00 | 30 | 1018.6 |
| 20260905110203 | 31 | 328 | 3.2 | 6.4 | 0.00 | 0.00 | 0.00 | 30 | 1018.6 |
| 20260905110026 | 30 | 266 | 0.0 | 8.0 | 0.00 | 0.00 | 0.00 | 29 | 1018.9 |
| 20260905110003 | 31 | 328 | 3.2 | 12.9 | 0.00 | 0.00 | 0.00 | 30 | 1018.5 |
| 20260905105903 | 31 | 322 | 3.2 | 12.9 | 0.00 | 0.00 | 0.00 | 30 | 1018.6 |
| 20260905105703 | 31 | 319 | 3.2 | 12.9 | 0.00 | 0.00 | 0.00 | 29 | 1018.6 |
| 20260905105603 | 31 | 312 | 3.2 | 12.9 | 0.00 | 0.00 | 0.00 | 29 | 1018.6 |
| 20260905105514 | 31 | 331 | 4.8 | 11.3 | 0.00 | 0.00 | 0.00 | 29 | 1018.9 |
| 20260905105503 | 31 | 310 | 3.2 | 12.9 | 0.00 | 0.00 | 0.00 | 29 | 1018.6 |
| 20260905105403 | 31 | 307 | 3.2 | 12.9 | 0.00 | 0.00 | 0.00 | 29 | 1018.6 |
| 20260905105306 | 31 | 301 | 3.2 | 12.9 | 0.00 | 0.00 | 0.00 | 29 | 1018.6 |
| 20260905105103 | 31 | 301 | 3.2 | 12.9 | 0.00 | 0.00 | 0.00 | 30 | 1018.6 |
| 20260905105016 | 31 | 306 | 4.8 | 11.3 | 0.00 | 0.00 | 0.00 | 29 | 1018.9 |
| 20260905105003 | 31 | 303 | 3.2 | 12.9 | 0.00 | 0.00 | 0.00 | 30 | 1018.6 |
| 20260905104803 | 31 | 303 | 3.2 | 6.4 | 0.00 | 0.00 | 0.00 | 30 | 1018.5 |
| 20260905104703 | 31 | 297 | 3.2 | 6.4 | 0.00 | 0.00 | 0.00 | 30 | 1018.6 |
| 20260905104603 | 31 | 86 | 3.2 | 6.4 | 0.00 | 0.00 | 0.00 | 30 | 1018.6 |
| 20260905104530 | 31 | 294 | 1.6 | 6.4 | 0.00 | 0.00 | 0.00 | 30 | 1018.9 |
| 20260905104503 | 31 | 78 | 3.2 | 4.8 | 0.00 | 0.00 | 0.00 | 30 | 1018.6 |
| 20260905104403 | 31 | 96 | 3.2 | 4.8 | 0.00 | 0.00 | 0.00 | 30 | 1018.7 |
| 20260905104317 | 31 | 75 | 3.2 | 3.2 | 0.00 | 0.00 | 0.00 | 30 | 1018.6 |
| 20260905104203 | 31 | 71 | 3.2 | 3.2 | 0.00 | 0.00 | 0.00 | 30 | 1018.6 |
| 20260905104004 | 31 | 346 | 0.0 | 3.2 | 0.00 | 0.00 | 0.00 | 30 | 1018.9 |
| 20260905103903 | 31 | 121 | 3.2 | 3.2 | 0.00 | 0.00 | 0.00 | 30 | 1018.7 |
| 20260905103803 | 31 | 149 | 3.2 | 3.2 | 0.00 | 0.00 | 0.00 | 30 | 1018.8 |
| 20260905103703 | 31 | 216 | 3.2 | 3.2 | 0.00 | 0.00 | 0.00 | 30 | 1018.8 |
| 20260905103603 | 31 | 251 | 3.2 | 3.2 | 0.00 | 0.00 | 0.00 | 30 | 1018.8 |
| 20260905103505 | 31 | 301 | 0.0 | 3.2 | 0.00 | 0.00 | 0.00 | 30 | 1019.1 |
| 20260905103503 | 31 | 273 | 3.2 | 3.2 | 0.00 | 0.00 | 0.00 | 30 | 1018.8 |
| 20260905103403 | 31 | 311 | 3.2 | 3.2 | 0.00 | 0.00 | 0.00 | 31 | 1018.8 |
| 20260905103203 | 31 | 220 | 3.2 | 3.2 | 0.00 | 0.00 | 0.00 | 31 | 1018.9 |
| 20260905103103 | 31 | 230 | 3.2 | 3.2 | 0.00 | 0.00 | 0.00 | 31 | 1018.9 |
| 20260905103012 | 30 | 132 | 0.0 | 3.2 | 0.00 | 0.00 | 0.00 | 31 | 1019.2 |
| 20260905103003 | 30 | 243 | 3.2 | 3.2 | 0.00 | 0.00 | 0.00 | 32 | 1019.0 |
| 20260905102903 | 30 | 272 | 3.2 | 3.2 | 0.00 | 0.00 | 0.00 | 32 | 1018.9 |
| 20260905102803 | 30 | 247 | 3.2 | 3.2 | 0.00 | 0.00 | 0.00 | 32 | 1019.0 |
| 20260905102603 | 30 | 334 | 3.2 | 3.2 | 0.00 | 0.00 | 0.00 | 32 | 1019.0 |
| 20260905102510 | 30 | 341 | 0.0 | 3.2 | 0.00 | 0.00 | 0.00 | 32 | 1019.3 |
| 20260905102503 | 30 | 319 | 3.2 | 3.2 | 0.00 | 0.00 | 0.00 | 32 | 1019.0 |
| 20260905102306 | 30 | 295 | 3.2 | 4.8 | 0.00 | 0.00 | 0.00 | 32 | 1019.1 |
| 20260905102203 | 30 | 304 | 3.2 | 4.8 | 0.00 | 0.00 | 0.00 | 32 | 1019.0 |
| 20260905102103 | 30 | 309 | 3.2 | 4.8 | 0.00 | 0.00 | 0.00 | 32 | 1019.1 |
| 20260905102008 | 30 | 323 | 0.0 | 3.2 | 0.00 | 0.00 | 0.00 | 32 | 1019.4 |
| 20260905102003 | 30 | 310 | 3.2 | 4.8 | 0.00 | 0.00 | 0.00 | 33 | 1019.1 |
| 20260905101903 | 30 | 306 | 3.2 | 4.8 | 0.00 | 0.00 | 0.00 | 33 | 1019.1 |
| 20260905101803 | 30 | 311 | 3.2 | 4.8 | 0.00 | 0.00 | 0.00 | 33 | 1019.1 |
| 20260905101703 | 29 | 314 | 3.2 | 4.8 | 0.00 | 0.00 | 0.00 | 33 | 1019.2 |
| 20260905101603 | 29 | 301 | 3.2 | 4.8 | 0.00 | 0.00 | 0.00 | 33 | 1019.2 |
| 20260905101521 | 29 | 260 | 1.6 | 4.8 | 0.00 | 0.00 | 0.00 | 33 | 1019.5 |
| 20260905101503 | 29 | 309 | 3.2 | 4.8 | 0.00 | 0.00 | 0.00 | 34 | 1019.2 |
| 20260905101403 | 29 | 313 | 3.2 | 4.8 | 0.00 | 0.00 | 0.00 | 34 | 1019.2 |
| 20260905101303 | 29 | 340 | 3.2 | 4.8 | 0.00 | 0.00 | 0.00 | 34 | 1019.2 |
| 20260905101203 | 29 | 336 | 3.2 | 4.8 | 0.00 | 0.00 | 0.00 | 34 | 1019.2 |
| 20260905101103 | 29 | 333 | 3.2 | 4.8 | 0.00 | 0.00 | 0.00 | 34 | 1019.2 |
| 20260905101010 | 28 | 326 | 1.6 | 4.8 | 0.00 | 0.00 | 0.00 | 34 | 1019.5 |
| 20260905101003 | 29 | 334 | 3.2 | 4.8 | 0.00 | 0.00 | 0.00 | 34 | 1019.3 |
| 20260905100803 | 28 | 336 | 3.2 | 4.8 | 0.00 | 0.00 | 0.00 | 34 | 1019.3 |
| 20260905100703 | 28 | 335 | 3.2 | 6.4 | 0.00 | 0.00 | 0.00 | 34 | 1019.3 |
| 20260905100603 | 28 | 64 | 3.2 | 6.4 | 0.00 | 0.00 | 0.00 | 35 | 1019.3 |
| 20260905100511 | 28 | 96 | 0.0 | 4.8 | 0.00 | 0.00 | 0.00 | 34 | 1019.6 |
| 20260905100503 | 28 | 19 | 3.2 | 6.4 | 0.00 | 0.00 | 0.00 | 35 | 1019.3 |
| 20260905100403 | 28 | 88 | 3.2 | 6.4 | 0.00 | 0.00 | 0.00 | 35 | 1019.3 |
| 20260905100303 | 28 | 79 | 3.2 | 6.4 | 0.00 | 0.00 | 0.00 | 35 | 1019.4 |
| 20260905100203 | 28 | 80 | 3.2 | 6.4 | 0.00 | 0.00 | 0.00 | 35 | 1019.4 |
| 20260905100033 | 28 | 310 | 1.6 | 4.8 | 0.00 | 0.00 | 0.00 | 35 | 1019.6 |
| 20260905100003 | 28 | 81 | 3.2 | 6.4 | 0.00 | 0.00 | 0.00 | 35 | 1019.4 |
| 20260905095903 | 28 | 88 | 3.2 | 6.4 | 0.00 | 0.00 | 0.00 | 35 | 1019.4 |
| 20260905095803 | 28 | 95 | 3.2 | 6.4 | 0.00 | 0.00 | 0.00 | 35 | 1019.4 |
| 20260905095703 | 28 | 105 | 3.2 | 6.4 | 0.00 | 0.00 | 0.00 | 35 | 1019.4 |
| 20260905095603 | 28 | 78 | 3.2 | 6.4 | 0.00 | 0.00 | 0.00 | 35 | 1019.4 |
| 20260905095515 | 28 | 360 | 1.6 | 6.4 | 0.00 | 0.00 | 0.00 | 35 | 1019.7 |
| 20260905095503 | 28 | 72 | 3.2 | 6.4 | 0.00 | 0.00 | 0.00 | 35 | 1019.5 |
| 20260905095403 | 28 | 50 | 3.2 | 6.4 | 0.00 | 0.00 | 0.00 | 35 | 1019.5 |
| 20260905095305 | 28 | 60 | 3.2 | 6.4 | 0.00 | 0.00 | 0.00 | 35 | 1019.5 |
| 20260905095203 | 28 | 65 | 3.2 | 6.4 | 0.00 | 0.00 | 0.00 | 36 | 1019.5 |
| 20260905095103 | 28 | 65 | 3.2 | 6.4 | 0.00 | 0.00 | 0.00 | 36 | 1019.5 |
| 20260905095013 | 28 | 24 | 1.6 | 6.4 | 0.00 | 0.00 | 0.00 | 36 | 1019.8 |
| 20260905095003 | 28 | 61 | 3.2 | 6.4 | 0.00 | 0.00 | 0.00 | 36 | 1019.5 |
| 20260905094903 | 28 | 48 | 3.2 | 6.4 | 0.00 | 0.00 | 0.00 | 36 | 1019.5 |
| 20260905094703 | 28 | 10 | 3.2 | 6.4 | 0.00 | 0.00 | 0.00 | 36 | 1019.5 |
| 20260905094603 | 28 | 31 | 3.2 | 6.4 | 0.00 | 0.00 | 0.00 | 35 | 1019.6 |
| 20260905094529 | 28 | 14 | 1.6 | 4.8 | 0.00 | 0.00 | 0.00 | 35 | 1019.9 |
| 20260905094503 | 28 | 50 | 3.2 | 6.4 | 0.00 | 0.00 | 0.00 | 35 | 1019.5 |
| 20260905094403 | 28 | 60 | 3.2 | 6.4 | 0.00 | 0.00 | 0.00 | 35 | 1019.5 |
| 20260905094317 | 28 | 50 | 3.2 | 6.4 | 0.00 | 0.00 | 0.00 | 35 | 1019.6 |
| 20260905094203 | 28 | 15 | 3.2 | 6.4 | 0.00 | 0.00 | 0.00 | 35 | 1019.6 |
| 20260905094014 | 27 | 352 | 3.2 | 4.8 | 0.00 | 0.00 | 0.00 | 35 | 1019.9 |
| 20260905093903 | 28 | 35 | 3.2 | 6.4 | 0.00 | 0.00 | 0.00 | 36 | 1019.6 |
| 20260905093803 | 28 | 52 | 3.2 | 6.4 | 0.00 | 0.00 | 0.00 | 36 | 1019.6 |
| 20260905093703 | 28 | 20 | 3.2 | 6.4 | 0.00 | 0.00 | 0.00 | 36 | 1019.6 |
| 20260905093603 | 28 | 4 | 3.2 | 6.4 | 0.00 | 0.00 | 0.00 | 36 | 1019.6 |
| 20260905093518 | 27 | 141 | 1.6 | 6.4 | 0.00 | 0.00 | 0.00 | 35 | 1019.9 |
| 20260905093503 | 28 | 354 | 3.2 | 6.4 | 0.00 | 0.00 | 0.00 | 36 | 1019.6 |
| 20260905093403 | 28 | 346 | 3.2 | 6.4 | 0.00 | 0.00 | 0.00 | 36 | 1019.6 |
| 20260905093303 | 28 | 344 | 3.2 | 6.4 | 0.00 | 0.00 | 0.00 | 36 | 1019.6 |
| 20260905093203 | 28 | 354 | 3.2 | 6.4 | 0.00 | 0.00 | 0.00 | 36 | 1019.6 |
| 20260905093103 | 28 | 4 | 3.2 | 6.4 | 0.00 | 0.00 | 0.00 | 36 | 1019.7 |
| 20260905093013 | 27 | 325 | 1.6 | 6.4 | 0.00 | 0.00 | 0.00 | 35 | 1020.0 |
| 20260905092903 | 28 | 14 | 3.2 | 6.4 | 0.00 | 0.00 | 0.00 | 36 | 1019.7 |
| 20260905092803 | 28 | 45 | 3.2 | 8.0 | 0.00 | 0.00 | 0.00 | 36 | 1019.7 |
| 20260905092603 | 28 | 14 | 3.2 | 8.0 | 0.00 | 0.00 | 0.00 | 36 | 1019.7 |
| 20260905092508 | 28 | 333 | 1.6 | 8.0 | 0.00 | 0.00 | 0.00 | 35 | 1020.0 |
| 20260905092503 | 28 | 75 | 3.2 | 8.0 | 0.00 | 0.00 | 0.00 | 36 | 1019.7 |
| 20260905092403 | 28 | 82 | 3.2 | 8.0 | 0.00 | 0.00 | 0.00 | 36 | 1019.6 |
| 20260905092306 | 28 | 18 | 3.2 | 8.0 | 0.00 | 0.00 | 0.00 | 36 | 1019.7 |
| 20260905092203 | 28 | 328 | 3.2 | 8.0 | 0.00 | 0.00 | 0.00 | 36 | 1019.6 |
| 20260905092103 | 28 | 301 | 3.2 | 8.0 | 0.00 | 0.00 | 0.00 | 36 | 1019.7 |
| 20260905092009 | 28 | 12 | 1.6 | 8.0 | 0.00 | 0.00 | 0.00 | 35 | 1020.0 |
| 20260905092003 | 28 | 297 | 3.2 | 8.0 | 0.00 | 0.00 | 0.00 | 36 | 1019.7 |
| 20260905091703 | 28 | 348 | 3.2 | 6.4 | 0.00 | 0.00 | 0.00 | 36 | 1019.8 |
| 20260905091603 | 28 | 31 | 3.2 | 6.4 | 0.00 | 0.00 | 0.00 | 36 | 1019.8 |
| 20260905091519 | 28 | 149 | 1.6 | 6.4 | 0.00 | 0.00 | 0.00 | 36 | 1020.0 |
| 20260905091403 | 28 | 360 | 3.2 | 6.4 | 0.00 | 0.00 | 0.00 | 36 | 1019.8 |
| 20260905091303 | 28 | 50 | 3.2 | 6.4 | 0.00 | 0.00 | 0.00 | 36 | 1019.9 |
| 20260905091203 | 28 | 43 | 3.2 | 4.8 | 0.00 | 0.00 | 0.00 | 36 | 1019.8 |
| 20260905091103 | 28 | 62 | 3.2 | 4.8 | 0.00 | 0.00 | 0.00 | 36 | 1019.9 |
| 20260905091008 | 28 | 315 | 1.6 | 3.2 | 0.00 | 0.00 | 0.00 | 36 | 1020.2 |
| 20260905091003 | 28 | 69 | 3.2 | 4.8 | 0.00 | 0.00 | 0.00 | 37 | 1019.9 |
| 20260905090803 | 28 | 347 | 3.2 | 4.8 | 0.00 | 0.00 | 0.00 | 37 | 1019.9 |
| 20260905090703 | 28 | 293 | 3.2 | 4.8 | 0.00 | 0.00 | 0.00 | 37 | 1019.9 |
| 20260905090603 | 27 | 255 | 3.2 | 4.8 | 0.00 | 0.00 | 0.00 | 37 | 1019.9 |
| 20260905090512 | 27 | 85 | 1.6 | 4.8 | 0.00 | 0.00 | 0.00 | 37 | 1020.2 |
| 20260905090503 | 27 | 182 | 3.2 | 6.4 | 0.00 | 0.00 | 0.00 | 37 | 1019.9 |
| 20260905090203 | 27 | 140 | 3.2 | 6.4 | 0.00 | 0.00 | 0.00 | 37 | 1019.9 |
| 20260905090103 | 27 | 135 | 3.2 | 6.4 | 0.00 | 0.00 | 0.00 | 38 | 1019.9 |
| 20260905090024 | 27 | 284 | 1.6 | 6.4 | 0.00 | 0.00 | 0.00 | 37 | 1020.2 |
| 20260905090003 | 27 | 135 | 3.2 | 6.4 | 0.00 | 0.00 | 0.00 | 38 | 1019.9 |
| 20260905085903 | 27 | 119 | 3.2 | 6.4 | 0.00 | 0.00 | 0.00 | 38 | 1019.9 |
| 20260905085703 | 27 | 121 | 3.2 | 6.4 | 0.00 | 0.00 | 0.00 | 38 | 1019.9 |
| 20260905085603 | 27 | 120 | 3.2 | 6.4 | 0.00 | 0.00 | 0.00 | 38 | 1020.0 |
| 20260905085515 | 27 | 126 | 3.2 | 6.4 | 0.00 | 0.00 | 0.00 | 37 | 1020.2 |
| 20260905085503 | 27 | 82 | 3.2 | 6.4 | 0.00 | 0.00 | 0.00 | 38 | 1020.0 |
| 20260905085305 | 27 | 4 | 3.2 | 4.8 | 0.00 | 0.00 | 0.00 | 38 | 1020.0 |
| 20260905085203 | 27 | 39 | 3.2 | 4.8 | 0.00 | 0.00 | 0.00 | 38 | 1020.0 |
| 20260905085103 | 27 | 53 | 3.2 | 4.8 | 0.00 | 0.00 | 0.00 | 38 | 1020.0 |
| 20260905085016 | 27 | 261 | 0.0 | 4.8 | 0.00 | 0.00 | 0.00 | 38 | 1020.3 |
| 20260905085003 | 27 | 77 | 3.2 | 4.8 | 0.00 | 0.00 | 0.00 | 38 | 1020.0 |
| 20260905084903 | 27 | 66 | 3.2 | 4.8 | 0.00 | 0.00 | 0.00 | 38 | 1020.0 |
| 20260905084803 | 26 | 74 | 3.2 | 4.8 | 0.00 | 0.00 | 0.00 | 38 | 1020.1 |
| 20260905084526 | 26 | 90 | 1.6 | 4.8 | 0.00 | 0.00 | 0.00 | 39 | 1020.4 |
| 20260905084503 | 26 | 46 | 3.2 | 4.8 | 0.00 | 0.00 | 0.00 | 39 | 1020.1 |
| 20260905084403 | 26 | 38 | 3.2 | 4.8 | 0.00 | 0.00 | 0.00 | 39 | 1020.1 |
| 20260905084303 | 26 | 61 | 3.2 | 4.8 | 0.00 | 0.00 | 0.00 | 40 | 1020.1 |
| 20260905084203 | 26 | 29 | 3.2 | 4.8 | 0.00 | 0.00 | 0.00 | 40 | 1020.2 |
| 20260905084103 | 26 | 18 | 3.2 | 3.2 | 0.00 | 0.00 | 0.00 | 40 | 1020.1 |
| 20260905084016 | 26 | 131 | 1.6 | 4.8 | 0.00 | 0.00 | 0.00 | 39 | 1020.4 |
| 20260905084003 | 26 | 356 | 3.2 | 4.8 | 0.00 | 0.00 | 0.00 | 40 | 1020.2 |
| 20260905083903 | 26 | 353 | 3.2 | 4.8 | 0.00 | 0.00 | 0.00 | 40 | 1020.2 |
| 20260905083803 | 26 | 353 | 3.2 | 4.8 | 0.00 | 0.00 | 0.00 | 40 | 1020.2 |
| 20260905083703 | 26 | 4 | 3.2 | 4.8 | 0.00 | 0.00 | 0.00 | 40 | 1020.2 |
| 20260905083603 | 26 | 7 | 3.2 | 4.8 | 0.00 | 0.00 | 0.00 | 40 | 1020.2 |
| 20260905083517 | 26 | 306 | 1.6 | 4.8 | 0.00 | 0.00 | 0.00 | 40 | 1020.5 |
| 20260905083303 | 26 | 336 | 3.2 | 4.8 | 0.00 | 0.00 | 0.00 | 40 | 1020.2 |
| 20260905083203 | 26 | 330 | 3.2 | 4.8 | 0.00 | 0.00 | 0.00 | 40 | 1020.3 |
| 20260905083103 | 26 | 339 | 3.2 | 4.8 | 0.00 | 0.00 | 0.00 | 40 | 1020.3 |
| 20260905083032 | 26 | 298 | 1.6 | 4.8 | 0.00 | 0.00 | 0.00 | 39 | 1020.5 |
| 20260905083003 | 26 | 340 | 3.2 | 4.8 | 0.00 | 0.00 | 0.00 | 40 | 1020.3 |
| 20260905082903 | 26 | 29 | 3.2 | 3.2 | 0.00 | 0.00 | 0.00 | 40 | 1020.3 |
| 20260905082703 | 26 | 71 | 3.2 | 3.2 | 0.00 | 0.00 | 0.00 | 40 | 1020.3 |
| 20260905082603 | 26 | 171 | 3.2 | 3.2 | 0.00 | 0.00 | 0.00 | 40 | 1020.3 |
| 20260905082514 | 26 | 344 | 1.6 | 3.2 | 0.00 | 0.00 | 0.00 | 40 | 1020.6 |
| 20260905082503 | 26 | 154 | 3.2 | 4.8 | 0.00 | 0.00 | 0.00 | 41 | 1020.3 |
| 20260905082403 | 26 | 95 | 3.2 | 4.8 | 0.00 | 0.00 | 0.00 | 41 | 1020.3 |
| 20260905082306 | 26 | 60 | 3.2 | 4.8 | 0.00 | 0.00 | 0.00 | 41 | 1020.3 |
| 20260905082103 | 25 | 31 | 3.2 | 4.8 | 0.00 | 0.00 | 0.00 | 41 | 1020.3 |
| 20260905082007 | 25 | 188 | 0.0 | 4.8 | 0.00 | 0.00 | 0.00 | 41 | 1020.6 |
| 20260905082003 | 25 | 18 | 3.2 | 4.8 | 0.00 | 0.00 | 0.00 | 41 | 1020.4 |
| 20260905081903 | 25 | 30 | 3.2 | 4.8 | 0.00 | 0.00 | 0.00 | 41 | 1020.3 |
| 20260905081803 | 25 | 349 | 3.2 | 4.8 | 0.00 | 0.00 | 0.00 | 41 | 1020.4 |
| 20260905081703 | 25 | 341 | 3.2 | 4.8 | 0.00 | 0.00 | 0.00 | 41 | 1020.4 |
| 20260905081603 | 25 | 344 | 3.2 | 4.8 | 0.00 | 0.00 | 0.00 | 41 | 1020.4 |
| 20260905081520 | 25 | 40 | 1.6 | 4.8 | 0.00 | 0.00 | 0.00 | 41 | 1020.7 |
| 20260905081503 | 25 | 342 | 3.2 | 4.8 | 0.00 | 0.00 | 0.00 | 41 | 1020.4 |
| 20260905081403 | 25 | 341 | 3.2 | 4.8 | 0.00 | 0.00 | 0.00 | 41 | 1020.4 |
| 20260905081203 | 25 | 50 | 3.2 | 4.8 | 0.00 | 0.00 | 0.00 | 42 | 1020.4 |
| 20260905081103 | 25 | 57 | 3.2 | 4.8 | 0.00 | 0.00 | 0.00 | 42 | 1020.4 |
| 20260905081008 | 25 | 352 | 1.6 | 4.8 | 0.00 | 0.00 | 0.00 | 41 | 1020.7 |
| 20260905081003 | 25 | 78 | 3.2 | 4.8 | 0.00 | 0.00 | 0.00 | 42 | 1020.4 |
| 20260905080903 | 25 | 41 | 3.2 | 4.8 | 0.00 | 0.00 | 0.00 | 42 | 1020.5 |
| 20260905080803 | 25 | 78 | 3.2 | 4.8 | 0.00 | 0.00 | 0.00 | 42 | 1020.4 |
| 20260905080703 | 25 | 84 | 3.2 | 4.8 | 0.00 | 0.00 | 0.00 | 42 | 1020.4 |
| 20260905080603 | 25 | 70 | 3.2 | 4.8 | 0.00 | 0.00 | 0.00 | 42 | 1020.4 |
| 20260905080507 | 25 | 53 | 1.6 | 4.8 | 0.00 | 0.00 | 0.00 | 42 | 1020.7 |
| 20260905080503 | 25 | 83 | 3.2 | 4.8 | 0.00 | 0.00 | 0.00 | 42 | 1020.5 |
| 20260905080403 | 25 | 91 | 3.2 | 4.8 | 0.00 | 0.00 | 0.00 | 42 | 1020.5 |
| 20260905080303 | 25 | 75 | 3.2 | 4.8 | 0.00 | 0.00 | 0.00 | 42 | 1020.5 |
| 20260905080203 | 25 | 78 | 3.2 | 4.8 | 0.00 | 0.00 | 0.00 | 43 | 1020.5 |
| 20260905080027 | 24 | 304 | 0.0 | 4.8 | 0.00 | 0.00 | 0.00 | 42 | 1020.7 |
| 20260905080003 | 25 | 78 | 3.2 | 4.8 | 0.00 | 0.00 | 0.00 | 43 | 1020.5 |
| 20260905075903 | 25 | 80 | 3.2 | 4.8 | 0.00 | 0.00 | 0.00 | 43 | 1020.5 |
| 20260905075603 | 24 | 98 | 3.2 | 6.4 | 0.00 | 0.00 | 0.00 | 43 | 1020.5 |
| 20260905075512 | 24 | 120 | 1.6 | 4.8 | 0.00 | 0.00 | 0.00 | 43 | 1020.7 |
| 20260905075503 | 24 | 87 | 3.2 | 6.4 | 0.00 | 0.00 | 0.00 | 43 | 1020.5 |
| 20260905075403 | 24 | 66 | 3.2 | 6.4 | 0.00 | 0.00 | 0.00 | 43 | 1020.5 |
| 20260905075306 | 24 | 41 | 3.2 | 6.4 | 0.00 | 0.00 | 0.00 | 43 | 1020.5 |
| 20260905075203 | 24 | 344 | 3.2 | 6.4 | 0.00 | 0.00 | 0.00 | 43 | 1020.5 |
| 20260905075103 | 24 | 346 | 3.2 | 6.4 | 0.00 | 0.00 | 0.00 | 43 | 1020.5 |
| 20260905075011 | 24 | 77 | 0.0 | 4.8 | 0.00 | 0.00 | 0.00 | 43 | 1020.7 |
| 20260905075003 | 24 | 348 | 3.2 | 6.4 | 0.00 | 0.00 | 0.00 | 43 | 1020.5 |
| 20260905074903 | 24 | 338 | 3.2 | 6.4 | 0.00 | 0.00 | 0.00 | 43 | 1020.5 |
| 20260905074817 | 24 | 335 | 3.2 | 6.4 | 0.00 | 0.00 | 0.00 | 43 | 1020.5 |
| 20260905074703 | 25 | 333 | 3.2 | 6.4 | 0.00 | 0.00 | 0.00 | 42 | 1020.5 |
| 20260905074528 | 24 | 81 | 1.6 | 3.2 | 0.00 | 0.00 | 0.00 | 42 | 1020.8 |
| 20260905074503 | 25 | 351 | 3.2 | 3.2 | 0.00 | 0.00 | 0.00 | 42 | 1020.5 |
| 20260905074403 | 25 | 6 | 3.2 | 3.2 | 0.00 | 0.00 | 0.00 | 42 | 1020.5 |
| 20260905074303 | 25 | 37 | 3.2 | 6.4 | 0.00 | 0.00 | 0.00 | 42 | 1020.6 |
| 20260905074203 | 25 | 90 | 3.2 | 6.4 | 0.00 | 0.00 | 0.00 | 42 | 1020.6 |
| 20260905074103 | 25 | 114 | 3.2 | 6.4 | 0.00 | 0.00 | 0.00 | 42 | 1020.5 |
| 20260905074013 | 25 | 360 | 0.0 | 6.4 | 0.00 | 0.00 | 0.00 | 41 | 1020.8 |
| 20260905074003 | 25 | 119 | 3.2 | 6.4 | 0.00 | 0.00 | 0.00 | 42 | 1020.6 |
| 20260905073918 | 25 | 124 | 3.2 | 6.4 | 0.00 | 0.00 | 0.00 | 42 | 1020.6 |
| 20260905073717 | 25 | 124 | 3.2 | 6.4 | 0.00 | 0.00 | 0.00 | 42 | 1020.6 |
| 20260905073603 | 25 | 123 | 3.2 | 6.4 | 0.00 | 0.00 | 0.00 | 42 | 1020.5 |
| 20260905073513 | 25 | 65 | 0.0 | 6.4 | 0.00 | 0.00 | 0.00 | 42 | 1020.8 |
| 20260905073403 | 25 | 125 | 3.2 | 6.4 | 0.00 | 0.00 | 0.00 | 42 | 1020.6 |
| 20260905073303 | 25 | 121 | 3.2 | 6.4 | 0.00 | 0.00 | 0.00 | 42 | 1020.6 |
| 20260905073203 | 25 | 124 | 3.2 | 6.4 | 0.00 | 0.00 | 0.00 | 43 | 1020.5 |
| 20260905073103 | 24 | 120 | 3.2 | 6.4 | 0.00 | 0.00 | 0.00 | 43 | 1020.5 |
| 20260905073031 | 24 | 89 | 0.0 | 4.8 | 0.00 | 0.00 | 0.00 | 43 | 1020.8 |
| 20260905073003 | 24 | 124 | 3.2 | 6.4 | 0.00 | 0.00 | 0.00 | 43 | 1020.6 |
| 20260905072903 | 24 | 119 | 3.2 | 6.4 | 0.00 | 0.00 | 0.00 | 43 | 1020.5 |
| 20260905072803 | 24 | 114 | 3.2 | 6.4 | 0.00 | 0.00 | 0.00 | 43 | 1020.5 |
| 20260905072703 | 24 | 107 | 3.2 | 6.4 | 0.00 | 0.00 | 0.00 | 43 | 1020.5 |
| 20260905072603 | 24 | 109 | 3.2 | 6.4 | 0.00 | 0.00 | 0.00 | 43 | 1020.5 |
| 20260905072521 | 24 | 194 | 1.6 | 4.8 | 0.00 | 0.00 | 0.00 | 43 | 1020.8 |
| 20260905072403 | 24 | 107 | 3.2 | 4.8 | 0.00 | 0.00 | 0.00 | 44 | 1020.5 |
| 20260905072306 | 24 | 103 | 3.2 | 4.8 | 0.00 | 0.00 | 0.00 | 44 | 1020.6 |
| 20260905072203 | 24 | 100 | 3.2 | 4.8 | 0.00 | 0.00 | 0.00 | 44 | 1020.5 |
| 20260905072103 | 24 | 105 | 3.2 | 4.8 | 0.00 | 0.00 | 0.00 | 44 | 1020.5 |
| 20260905072018 | 23 | 71 | 0.0 | 4.8 | 0.00 | 0.00 | 0.00 | 44 | 1020.8 |
| 20260905072003 | 24 | 106 | 3.2 | 4.8 | 0.00 | 0.00 | 0.00 | 44 | 1020.5 |
| 20260905071918 | 24 | 112 | 3.2 | 4.8 | 0.00 | 0.00 | 0.00 | 44 | 1020.5 |
| 20260905071803 | 24 | 107 | 3.2 | 4.8 | 0.00 | 0.00 | 0.00 | 44 | 1020.4 |
| 20260905071603 | 24 | 113 | 3.2 | 4.8 | 0.00 | 0.00 | 0.00 | 44 | 1020.5 |
| 20260905071531 | 23 | 119 | 0.0 | 4.8 | 0.00 | 0.00 | 0.00 | 44 | 1020.7 |
| 20260905071503 | 24 | 112 | 3.2 | 4.8 | 0.00 | 0.00 | 0.00 | 44 | 1020.5 |
| 20260905071303 | 24 | 113 | 3.2 | 4.8 | 0.00 | 0.00 | 0.00 | 44 | 1020.5 |
| 20260905071203 | 24 | 116 | 3.2 | 4.8 | 0.00 | 0.00 | 0.00 | 44 | 1020.5 |
| 20260905071103 | 24 | 115 | 3.2 | 3.2 | 0.00 | 0.00 | 0.00 | 44 | 1020.5 |
| 20260905071008 | 23 | 119 | 0.0 | 3.2 | 0.00 | 0.00 | 0.00 | 44 | 1020.8 |
| 20260905071003 | 24 | 114 | 3.2 | 3.2 | 0.00 | 0.00 | 0.00 | 44 | 1020.5 |
| 20260905070903 | 24 | 105 | 3.2 | 3.2 | 0.00 | 0.00 | 0.00 | 45 | 1020.6 |
| 20260905070703 | 23 | 125 | 3.2 | 3.2 | 0.00 | 0.00 | 0.00 | 45 | 1020.6 |
| 20260905070603 | 23 | 119 | 3.2 | 3.2 | 0.00 | 0.00 | 0.00 | 45 | 1020.5 |
| 20260905070508 | 23 | 126 | 1.6 | 3.2 | 0.00 | 0.00 | 0.00 | 45 | 1020.8 |
| 20260905070503 | 23 | 115 | 3.2 | 3.2 | 0.00 | 0.00 | 0.00 | 46 | 1020.6 |
| 20260905070403 | 23 | 117 | 3.2 | 3.2 | 0.00 | 0.00 | 0.00 | 46 | 1020.6 |
| 20260905070303 | 23 | 73 | 3.2 | 3.2 | 0.00 | 0.00 | 0.00 | 46 | 1020.6 |
| 20260905070031 | 23 | 104 | 0.0 | 3.2 | 0.00 | 0.00 | 0.00 | 46 | 1020.8 |
| 20260905070003 | 23 | 45 | 3.2 | 3.2 | 0.00 | 0.00 | 0.00 | 46 | 1020.5 |
| 20260905065903 | 23 | 45 | 3.2 | 3.2 | 0.00 | 0.00 | 0.00 | 46 | 1020.6 |
| 20260905065803 | 23 | 61 | 3.2 | 3.2 | 0.00 | 0.00 | 0.00 | 47 | 1020.6 |
| 20260905065510 | 22 | 336 | 0.0 | 3.2 | 0.00 | 0.00 | 0.00 | 46 | 1020.8 |
| 20260905065503 | 22 | 95 | 3.2 | 3.2 | 0.00 | 0.00 | 0.00 | 47 | 1020.5 |
| 20260905065403 | 22 | 109 | 3.2 | 3.2 | 0.00 | 0.00 | 0.00 | 47 | 1020.6 |
| 20260905065306 | 22 | 118 | 3.2 | 4.8 | 0.00 | 0.00 | 0.00 | 47 | 1020.6 |
| 20260905065103 | 22 | 116 | 3.2 | 4.8 | 0.00 | 0.00 | 0.00 | 47 | 1020.6 |
| 20260905065012 | 22 | 63 | 0.0 | 4.8 | 0.00 | 0.00 | 0.00 | 47 | 1020.8 |
| 20260905065003 | 22 | 123 | 3.2 | 4.8 | 0.00 | 0.00 | 0.00 | 48 | 1020.6 |
| 20260905064918 | 22 | 118 | 3.2 | 4.8 | 0.00 | 0.00 | 0.00 | 47 | 1020.6 |
| 20260905064603 | 22 | 112 | 3.2 | 4.8 | 0.00 | 0.00 | 0.00 | 48 | 1020.6 |
| 20260905064526 | 22 | 140 | 1.6 | 4.8 | 0.00 | 0.00 | 0.00 | 47 | 1020.8 |
| 20260905064503 | 22 | 100 | 3.2 | 4.8 | 0.00 | 0.00 | 0.00 | 47 | 1020.5 |
| 20260905064303 | 22 | 85 | 3.2 | 4.8 | 0.00 | 0.00 | 0.00 | 48 | 1020.6 |
| 20260905064203 | 22 | 91 | 3.2 | 3.2 | 0.00 | 0.00 | 0.00 | 48 | 1020.6 |
| 20260905064103 | 22 | 87 | 3.2 | 3.2 | 0.00 | 0.00 | 0.00 | 48 | 1020.5 |
| 20260905064011 | 22 | 352 | 0.0 | 3.2 | 0.00 | 0.00 | 0.00 | 47 | 1020.8 |
| 20260905064003 | 22 | 106 | 3.2 | 3.2 | 0.00 | 0.00 | 0.00 | 48 | 1020.6 |
| 20260905063903 | 22 | 107 | 3.2 | 3.2 | 0.00 | 0.00 | 0.00 | 48 | 1020.6 |
| 20260905063803 | 22 | 107 | 3.2 | 3.2 | 0.00 | 0.00 | 0.00 | 48 | 1020.6 |
| 20260905063703 | 22 | 104 | 3.2 | 3.2 | 0.00 | 0.00 | 0.00 | 48 | 1020.6 |
| 20260905063603 | 22 | 101 | 3.2 | 3.2 | 0.00 | 0.00 | 0.00 | 48 | 1020.6 |
| 20260905063515 | 22 | 86 | 1.6 | 3.2 | 0.00 | 0.00 | 0.00 | 48 | 1020.8 |
| 20260905063503 | 22 | 106 | 3.2 | 3.2 | 0.00 | 0.00 | 0.00 | 48 | 1020.6 |
| 20260905063403 | 22 | 104 | 3.2 | 3.2 | 0.00 | 0.00 | 0.00 | 48 | 1020.6 |
| 20260905063303 | 22 | 108 | 3.2 | 6.4 | 0.00 | 0.00 | 0.00 | 48 | 1020.5 |
| 20260905063103 | 22 | 112 | 3.2 | 6.4 | 0.00 | 0.00 | 0.00 | 49 | 1020.6 |
| 20260905063026 | 21 | 150 | 0.0 | 4.8 | 0.00 | 0.00 | 0.00 | 48 | 1020.8 |
| 20260905063003 | 22 | 106 | 3.2 | 6.4 | 0.00 | 0.00 | 0.00 | 49 | 1020.6 |
| 20260905062903 | 22 | 109 | 3.2 | 6.4 | 0.00 | 0.00 | 0.00 | 49 | 1020.5 |
| 20260905062803 | 22 | 112 | 3.2 | 6.4 | 0.00 | 0.00 | 0.00 | 48 | 1020.5 |
| 20260905062703 | 22 | 113 | 3.2 | 6.4 | 0.00 | 0.00 | 0.00 | 48 | 1020.5 |
| 20260905062603 | 22 | 116 | 3.2 | 6.4 | 0.00 | 0.00 | 0.00 | 48 | 1020.5 |
| 20260905062514 | 21 | 121 | 1.6 | 4.8 | 0.00 | 0.00 | 0.00 | 48 | 1020.8 |
| 20260905062503 | 22 | 116 | 3.2 | 6.4 | 0.00 | 0.00 | 0.00 | 48 | 1020.5 |
| 20260905062403 | 22 | 121 | 3.2 | 6.4 | 0.00 | 0.00 | 0.00 | 48 | 1020.5 |
| 20260905062305 | 22 | 118 | 3.2 | 6.4 | 0.00 | 0.00 | 0.00 | 49 | 1020.5 |
| 20260905062103 | 22 | 120 | 3.2 | 3.2 | 0.00 | 0.00 | 0.00 | 49 | 1020.6 |
| 20260905062016 | 22 | 126 | 1.6 | 3.2 | 0.00 | 0.00 | 0.00 | 49 | 1020.8 |
| 20260905062003 | 22 | 117 | 3.2 | 3.2 | 0.00 | 0.00 | 0.00 | 49 | 1020.6 |
| 20260905061903 | 22 | 115 | 3.2 | 3.2 | 0.00 | 0.00 | 0.00 | 50 | 1020.5 |
| 20260905061803 | 22 | 115 | 3.2 | 3.2 | 0.00 | 0.00 | 0.00 | 50 | 1020.5 |
| 20260905061703 | 22 | 120 | 3.2 | 3.2 | 0.00 | 0.00 | 0.00 | 50 | 1020.5 |
| 20260905061531 | 21 | 59 | 0.0 | 3.2 | 0.00 | 0.00 | 0.00 | 50 | 1020.8 |
| 20260905061503 | 21 | 118 | 3.2 | 3.2 | 0.00 | 0.00 | 0.00 | 50 | 1020.5 |
| 20260905061403 | 21 | 119 | 3.2 | 3.2 | 0.00 | 0.00 | 0.00 | 51 | 1020.5 |
| 20260905061303 | 21 | 120 | 3.2 | 3.2 | 0.00 | 0.00 | 0.00 | 50 | 1020.6 |
| 20260905061203 | 21 | 123 | 3.2 | 3.2 | 0.00 | 0.00 | 0.00 | 50 | 1020.6 |
| 20260905061103 | 21 | 122 | 3.2 | 3.2 | 0.00 | 0.00 | 0.00 | 51 | 1020.5 |
| 20260905061020 | 21 | 107 | 1.6 | 3.2 | 0.00 | 0.00 | 0.00 | 50 | 1020.8 |
| 20260905061003 | 21 | 119 | 3.2 | 3.2 | 0.00 | 0.00 | 0.00 | 51 | 1020.6 |
| 20260905060903 | 21 | 121 | 3.2 | 3.2 | 0.00 | 0.00 | 0.00 | 51 | 1020.6 |
| 20260905060803 | 21 | 118 | 3.2 | 3.2 | 0.00 | 0.00 | 0.00 | 51 | 1020.6 |
| 20260905060703 | 21 | 112 | 3.2 | 3.2 | 0.00 | 0.00 | 0.00 | 51 | 1020.6 |
| 20260905060603 | 21 | 109 | 3.2 | 3.2 | 0.00 | 0.00 | 0.00 | 51 | 1020.6 |
| 20260905060513 | 21 | 128 | 0.0 | 3.2 | 0.00 | 0.00 | 0.00 | 51 | 1020.9 |
| 20260905060503 | 21 | 103 | 3.2 | 3.2 | 0.00 | 0.00 | 0.00 | 51 | 1020.5 |
| 20260905060403 | 21 | 92 | 3.2 | 3.2 | 0.00 | 0.00 | 0.00 | 52 | 1020.5 |
| 20260905060203 | 21 | 76 | 3.2 | 3.2 | 0.00 | 0.00 | 0.00 | 52 | 1020.6 |
| 20260905060103 | 21 | 80 | 3.2 | 3.2 | 0.00 | 0.00 | 0.00 | 52 | 1020.6 |
| 20260905060036 | 20 | 65 | 0.0 | 3.2 | 0.00 | 0.00 | 0.00 | 52 | 1020.8 |
| 20260905060003 | 21 | 72 | 3.2 | 3.2 | 0.00 | 0.00 | 0.00 | 53 | 1020.6 |
| 20260905055903 | 21 | 68 | 3.2 | 3.2 | 0.00 | 0.00 | 0.00 | 53 | 1020.5 |
| 20260905055803 | 20 | 61 | 3.2 | 3.2 | 0.00 | 0.00 | 0.00 | 53 | 1020.6 |
| 20260905055703 | 20 | 76 | 3.2 | 3.2 | 0.00 | 0.00 | 0.00 | 53 | 1020.5 |
| 20260905055603 | 20 | 76 | 3.2 | 3.2 | 0.00 | 0.00 | 0.00 | 53 | 1020.6 |
| 20260905055510 | 20 | 32 | 0.0 | 3.2 | 0.00 | 0.00 | 0.00 | 53 | 1020.9 |
| 20260905055503 | 20 | 95 | 3.2 | 3.2 | 0.00 | 0.00 | 0.00 | 54 | 1020.6 |
| 20260905055306 | 20 | 354 | 3.2 | 3.2 | 0.00 | 0.00 | 0.00 | 54 | 1020.6 |
| 20260905055203 | 20 | 326 | 3.2 | 3.2 | 0.00 | 0.00 | 0.00 | 55 | 1020.6 |
| 20260905055103 | 20 | 317 | 3.2 | 3.2 | 0.00 | 0.00 | 0.00 | 55 | 1020.6 |
| 20260905055011 | 19 | 332 | 0.0 | 3.2 | 0.00 | 0.00 | 0.00 | 54 | 1020.8 |
| 20260905055003 | 20 | 311 | 3.2 | 3.2 | 0.00 | 0.00 | 0.00 | 55 | 1020.6 |
| 20260905054903 | 20 | 311 | 3.2 | 3.2 | 0.00 | 0.00 | 0.00 | 55 | 1020.6 |
| 20260905054818 | 19 | 311 | 3.2 | 3.2 | 0.00 | 0.00 | 0.00 | 55 | 1020.5 |
| 20260905054703 | 19 | 301 | 3.2 | 3.2 | 0.00 | 0.00 | 0.00 | 56 | 1020.5 |
| 20260905054523 | 19 | 313 | 0.0 | 3.2 | 0.00 | 0.00 | 0.00 | 56 | 1020.8 |
| 20260905054503 | 19 | 139 | 3.2 | 3.2 | 0.00 | 0.00 | 0.00 | 56 | 1020.5 |
| 20260905054403 | 19 | 132 | 3.2 | 3.2 | 0.00 | 0.00 | 0.00 | 56 | 1020.5 |
| 20260905054303 | 19 | 128 | 3.2 | 3.2 | 0.00 | 0.00 | 0.00 | 56 | 1020.5 |
| 20260905054203 | 19 | 126 | 3.2 | 3.2 | 0.00 | 0.00 | 0.00 | 57 | 1020.5 |
| 20260905054103 | 18 | 124 | 3.2 | 3.2 | 0.00 | 0.00 | 0.00 | 57 | 1020.5 |
| 20260905054016 | 18 | 136 | 0.0 | 3.2 | 0.00 | 0.00 | 0.00 | 56 | 1020.8 |
| 20260905054003 | 18 | 123 | 3.2 | 3.2 | 0.00 | 0.00 | 0.00 | 57 | 1020.5 |
| 20260905053903 | 18 | 121 | 3.2 | 3.2 | 0.00 | 0.00 | 0.00 | 58 | 1020.5 |
| 20260905053803 | 18 | 118 | 3.2 | 3.2 | 0.00 | 0.00 | 0.00 | 58 | 1020.5 |
| 20260905053703 | 18 | 114 | 3.2 | 3.2 | 0.00 | 0.00 | 0.00 | 58 | 1020.5 |
| 20260905053603 | 18 | 111 | 3.2 | 3.2 | 0.00 | 0.00 | 0.00 | 58 | 1020.5 |
| 20260905053512 | 18 | 128 | 0.0 | 3.2 | 0.00 | 0.00 | 0.00 | 58 | 1020.7 |
| 20260905053403 | 18 | 109 | 3.2 | 3.2 | 0.00 | 0.00 | 0.00 | 58 | 1020.5 |
| 20260905053303 | 18 | 108 | 3.2 | 3.2 | 0.00 | 0.00 | 0.00 | 58 | 1020.5 |
| 20260905053103 | 18 | 91 | 3.2 | 3.2 | 0.00 | 0.00 | 0.00 | 58 | 1020.5 |
| 20260905053028 | 18 | 111 | 1.6 | 3.2 | 0.00 | 0.00 | 0.00 | 58 | 1020.8 |
| 20260905053003 | 18 | 91 | 3.2 | 3.2 | 0.00 | 0.00 | 0.00 | 59 | 1020.5 |
| 20260905052903 | 18 | 93 | 3.2 | 3.2 | 0.00 | 0.00 | 0.00 | 59 | 1020.5 |
| 20260905052803 | 18 | 90 | 3.2 | 3.2 | 0.00 | 0.00 | 0.00 | 59 | 1020.5 |
| 20260905052703 | 18 | 84 | 3.2 | 3.2 | 0.00 | 0.00 | 0.00 | 60 | 1020.5 |
| 20260905052603 | 18 | 84 | 3.2 | 3.2 | 0.00 | 0.00 | 0.00 | 60 | 1020.4 |
| 20260905052515 | 18 | 109 | 0.0 | 3.2 | 0.00 | 0.00 | 0.00 | 59 | 1020.7 |
| 20260905052503 | 18 | 84 | 3.2 | 3.2 | 0.00 | 0.00 | 0.00 | 60 | 1020.4 |
| 20260905052306 | 18 | 63 | 3.2 | 3.2 | 0.00 | 0.00 | 0.00 | 60 | 1020.4 |
| 20260905052203 | 17 | 131 | 3.2 | 3.2 | 0.00 | 0.00 | 0.00 | 60 | 1020.4 |
| 20260905052103 | 17 | 132 | 3.2 | 3.2 | 0.00 | 0.00 | 0.00 | 61 | 1020.5 |
| 20260905052016 | 17 | 113 | 0.0 | 3.2 | 0.00 | 0.00 | 0.00 | 61 | 1020.7 |
| 20260905052003 | 17 | 135 | 3.2 | 3.2 | 0.00 | 0.00 | 0.00 | 61 | 1020.4 |
| 20260905051903 | 17 | 135 | 3.2 | 3.2 | 0.00 | 0.00 | 0.00 | 62 | 1020.4 |
| 20260905051803 | 17 | 135 | 3.2 | 3.2 | 0.00 | 0.00 | 0.00 | 62 | 1020.4 |
| 20260905051603 | 17 | 135 | 3.2 | 3.2 | 0.00 | 0.00 | 0.00 | 62 | 1020.4 |